[[{"header":{"parameterUnit":"m.s-1","parameterCategory":1,"la1":30.6,"la2":29.2853,"lo1":-89.7004,"lo2":-87.6739,"dy":0.0162,"dx":0.0183,"nx":112,"ny":82,"refTime":"2023-03-08T18:00:00:Z","depth":0,"parameterNumber":2,"parameterNumberName":"U-component_of_WINDS"},"data":[0.0,0.0,0.0,0.0,0.0,0.0,0.0,0.0,0.0,0.0,0.0,0.0,0.0,0.0,0.0,0.0,0.0,0.0,0.0,0.0,0.0,0.0,0.0,0.0,0.0,0.0,0.0,0.0,0.0,0.0,0.0,0.0,0.0,0.0,0.0,0.0,0.0,0.0,0.0,0.0,0.0,0.0,0.0,0.0,0.0,0.0,0.0,0.0,0.0,0.0,0.0,0.0,0.0,0.0,0.0,0.0,0.0,0.0,0.0,0.0,0.0,0.0,0.0,0.0,0.0,0.0,0.0,0.0,0.0,0.0,0.0,0.0,0.0,0.0,0.0,0.0,0.0,0.0,0.0,0.0,0.0,0.0,0.0,0.0,0.0,0.0,0.0,0.0,0.0,0.0,-7.9569,-7.9672,-7.9672,-7.9741,-7.9844,-7.9741,-8.0017,-8.0741,0.0,0.0,0.0,0.0,0.0,0.0,0.0,0.0,0.0,0.0,0.0,0.0,0.0,0.0,0.0,0.0,0.0,0.0,0.0,0.0,0.0,0.0,0.0,0.0,0.0,0.0,0.0,0.0,0.0,0.0,0.0,0.0,0.0,0.0,0.0,0.0,0.0,0.0,0.0,0.0,0.0,0.0,0.0,0.0,0.0,0.0,0.0,0.0,0.0,0.0,0.0,0.0,0.0,0.0,0.0,0.0,0.0,0.0,0.0,0.0,0.0,0.0,0.0,0.0,0.0,0.0,0.0,0.0,0.0,0.0,0.0,0.0,0.0,0.0,0.0,0.0,0.0,0.0,0.0,0.0,0.0,0.0,0.0,0.0,0.0,0.0,0.0,0.0,0.0,0.0,0.0,0.0,0.0,0.0,0.0,0.0,0.0,0.0,0.0,0.0,0.0,0.0,0.0,0.0,-7.9741,-8.0396,-8.0465,-8.0741,-8.1397,-8.0845,-8.0776,-8.1569,0.0,0.0,0.0,0.0,0.0,0.0,0.0,0.0,0.0,0.0,0.0,0.0,0.0,0.0,0.0,0.0,0.0,0.0,0.0,0.0,0.0,0.0,0.0,0.0,0.0,0.0,0.0,0.0,0.0,0.0,0.0,0.0,0.0,0.0,0.0,0.0,0.0,0.0,0.0,0.0,0.0,0.0,0.0,0.0,0.0,0.0,0.0,0.0,0.0,0.0,0.0,0.0,0.0,0.0,0.0,0.0,0.0,0.0,0.0,0.0,0.0,0.0,0.0,0.0,0.0,0.0,0.0,0.0,0.0,0.0,0.0,0.0,0.0,0.0,0.0,0.0,0.0,0.0,0.0,0.0,0.0,0.0,0.0,0.0,0.0,0.0,0.0,0.0,0.0,0.0,0.0,0.0,0.0,0.0,0.0,0.0,0.0,0.0,0.0,0.0,0.0,0.0,0.0,-8.0694,-8.0879,-8.1224,-8.1259,-8.1397,-8.1776,-8.1466,-8.1431,-8.1776,-8.1155,0.0,0.0,0.0,0.0,0.0,0.0,0.0,0.0,0.0,0.0,0.0,0.0,0.0,0.0,0.0,0.0,0.0,0.0,0.0,0.0,0.0,0.0,0.0,0.0,0.0,0.0,0.0,0.0,0.0,0.0,0.0,0.0,0.0,0.0,0.0,0.0,0.0,0.0,0.0,0.0,0.0,0.0,0.0,0.0,0.0,0.0,0.0,0.0,0.0,0.0,0.0,0.0,0.0,0.0,0.0,0.0,0.0,0.0,0.0,0.0,0.0,0.0,0.0,0.0,0.0,0.0,0.0,0.0,0.0,0.0,0.0,0.0,0.0,0.0,0.0,0.0,0.0,0.0,0.0,0.0,0.0,0.0,0.0,0.0,0.0,0.0,0.0,0.0,0.0,0.0,0.0,0.0,0.0,0.0,0.0,0.0,0.0,0.0,0.0,0.0,0.0,0.0,-8.181,-8.181,-8.181,-8.181,-8.181,-8.181,-8.181,-8.181,-8.181,-8.181,0.0,0.0,0.0,0.0,0.0,0.0,0.0,0.0,0.0,0.0,0.0,0.0,0.0,0.0,0.0,0.0,0.0,0.0,0.0,0.0,0.0,0.0,0.0,0.0,0.0,0.0,0.0,0.0,0.0,0.0,0.0,0.0,0.0,0.0,0.0,0.0,0.0,0.0,0.0,0.0,0.0,0.0,0.0,0.0,0.0,0.0,0.0,0.0,0.0,0.0,0.0,0.0,0.0,0.0,0.0,0.0,0.0,0.0,0.0,0.0,0.0,0.0,0.0,0.0,0.0,0.0,0.0,0.0,0.0,0.0,0.0,0.0,0.0,0.0,0.0,0.0,0.0,0.0,0.0,0.0,0.0,0.0,0.0,0.0,0.0,0.0,0.0,0.0,0.0,0.0,0.0,0.0,0.0,0.0,0.0,0.0,0.0,0.0,0.0,0.0,0.0,0.0,-8.181,-8.181,-8.181,-8.181,-8.181,-8.181,-8.181,-8.181,-8.181,-8.181,0.0,0.0,0.0,0.0,0.0,0.0,0.0,0.0,0.0,0.0,0.0,0.0,0.0,0.0,0.0,0.0,0.0,0.0,0.0,0.0,0.0,0.0,0.0,0.0,0.0,0.0,0.0,0.0,0.0,0.0,0.0,0.0,0.0,0.0,0.0,0.0,0.0,0.0,0.0,0.0,0.0,0.0,0.0,0.0,0.0,0.0,0.0,0.0,0.0,0.0,0.0,0.0,0.0,0.0,0.0,0.0,0.0,0.0,0.0,0.0,0.0,0.0,0.0,0.0,0.0,0.0,0.0,0.0,0.0,0.0,0.0,0.0,0.0,0.0,0.0,0.0,0.0,0.0,0.0,0.0,0.0,0.0,0.0,0.0,0.0,0.0,0.0,0.0,0.0,0.0,0.0,0.0,0.0,0.0,0.0,0.0,0.0,0.0,0.0,0.0,0.0,0.0,-8.181,-8.181,-8.181,-8.181,-8.181,-8.181,-8.181,-8.181,-8.181,0.0,0.0,0.0,0.0,0.0,0.0,0.0,0.0,0.0,0.0,0.0,0.0,0.0,0.0,0.0,0.0,0.0,0.0,0.0,0.0,0.0,0.0,0.0,0.0,0.0,0.0,0.0,0.0,0.0,0.0,0.0,0.0,0.0,0.0,0.0,0.0,0.0,0.0,0.0,0.0,0.0,0.0,0.0,0.0,0.0,0.0,0.0,0.0,0.0,0.0,0.0,0.0,0.0,0.0,0.0,0.0,0.0,0.0,0.0,0.0,0.0,0.0,0.0,0.0,0.0,0.0,0.0,0.0,0.0,0.0,0.0,0.0,0.0,0.0,0.0,0.0,0.0,0.0,0.0,0.0,0.0,0.0,0.0,0.0,0.0,0.0,0.0,0.0,0.0,0.0,0.0,0.0,0.0,0.0,0.0,0.0,0.0,0.0,0.0,0.0,0.0,0.0,-8.181,-8.181,-8.181,-8.181,-8.181,-8.181,-8.181,-8.181,-8.181,-8.181,0.0,0.0,0.0,0.0,0.0,0.0,0.0,0.0,0.0,0.0,0.0,0.0,0.0,0.0,0.0,0.0,0.0,0.0,0.0,0.0,0.0,0.0,0.0,0.0,0.0,0.0,0.0,0.0,0.0,0.0,0.0,0.0,0.0,0.0,0.0,0.0,0.0,0.0,0.0,0.0,0.0,0.0,0.0,0.0,0.0,0.0,0.0,0.0,0.0,0.0,0.0,0.0,0.0,0.0,0.0,0.0,0.0,0.0,0.0,0.0,0.0,0.0,0.0,0.0,0.0,0.0,0.0,0.0,0.0,0.0,0.0,0.0,0.0,0.0,0.0,0.0,0.0,0.0,0.0,0.0,0.0,0.0,0.0,0.0,0.0,0.0,0.0,0.0,0.0,0.0,0.0,0.0,0.0,0.0,0.0,0.0,0.0,0.0,0.0,0.0,0.0,0.0,-8.1763,-8.181,-8.181,-8.181,-8.181,-8.181,-8.181,-8.181,-8.181,0.0,0.0,0.0,0.0,0.0,0.0,0.0,0.0,0.0,0.0,0.0,0.0,0.0,0.0,0.0,0.0,0.0,0.0,0.0,0.0,0.0,0.0,0.0,0.0,0.0,0.0,0.0,0.0,0.0,0.0,0.0,0.0,0.0,0.0,0.0,0.0,0.0,0.0,0.0,0.0,0.0,0.0,0.0,0.0,0.0,0.0,0.0,0.0,0.0,0.0,0.0,0.0,0.0,0.0,0.0,0.0,0.0,0.0,0.0,0.0,0.0,0.0,0.0,0.0,0.0,0.0,0.0,0.0,0.0,0.0,0.0,0.0,0.0,0.0,0.0,0.0,0.0,0.0,0.0,0.0,0.0,0.0,0.0,0.0,0.0,0.0,0.0,0.0,0.0,0.0,0.0,0.0,0.0,0.0,0.0,0.0,0.0,0.0,0.0,0.0,0.0,0.0,0.0,-8.1763,-8.181,-8.181,-8.181,-8.181,-8.181,-8.181,-8.181,-8.181,-8.181,0.0,0.0,0.0,0.0,0.0,0.0,0.0,0.0,0.0,0.0,0.0,0.0,0.0,0.0,0.0,0.0,0.0,0.0,0.0,0.0,0.0,0.0,0.0,0.0,0.0,0.0,0.0,0.0,0.0,0.0,0.0,0.0,0.0,0.0,0.0,0.0,0.0,0.0,0.0,0.0,0.0,0.0,0.0,0.0,0.0,0.0,0.0,0.0,0.0,0.0,0.0,0.0,0.0,0.0,0.0,0.0,0.0,0.0,0.0,0.0,0.0,0.0,0.0,0.0,0.0,0.0,0.0,0.0,0.0,0.0,0.0,0.0,0.0,0.0,0.0,0.0,0.0,0.0,0.0,0.0,0.0,0.0,0.0,0.0,0.0,0.0,0.0,0.0,0.0,0.0,0.0,0.0,0.0,0.0,0.0,0.0,0.0,0.0,0.0,0.0,0.0,0.0,-8.1763,-8.181,-8.181,-8.181,-8.181,-8.181,-8.181,-8.181,-8.181,-8.181,0.0,0.0,0.0,0.0,0.0,0.0,0.0,0.0,0.0,0.0,0.0,0.0,0.0,0.0,0.0,0.0,0.0,0.0,0.0,0.0,0.0,0.0,0.0,0.0,0.0,0.0,0.0,0.0,0.0,0.0,0.0,0.0,0.0,0.0,0.0,0.0,0.0,0.0,0.0,0.0,0.0,0.0,0.0,0.0,0.0,0.0,0.0,0.0,0.0,0.0,0.0,0.0,0.0,0.0,0.0,0.0,0.0,0.0,0.0,0.0,0.0,0.0,0.0,0.0,0.0,0.0,0.0,0.0,0.0,0.0,0.0,0.0,0.0,0.0,0.0,0.0,0.0,0.0,0.0,0.0,0.0,0.0,0.0,0.0,0.0,0.0,0.0,0.0,0.0,0.0,0.0,0.0,0.0,0.0,0.0,0.0,0.0,0.0,0.0,0.0,0.0,0.0,-8.1585,-8.1633,-8.1633,-8.1633,-8.1728,-8.181,-8.181,-8.181,-8.181,-8.181,0.0,0.0,0.0,0.0,0.0,0.0,0.0,0.0,0.0,0.0,0.0,0.0,0.0,0.0,0.0,0.0,0.0,0.0,0.0,0.0,0.0,0.0,0.0,0.0,0.0,0.0,0.0,0.0,0.0,0.0,0.0,0.0,0.0,0.0,0.0,0.0,0.0,0.0,0.0,0.0,0.0,0.0,0.0,0.0,0.0,0.0,0.0,0.0,0.0,0.0,0.0,0.0,0.0,0.0,0.0,0.0,0.0,0.0,0.0,0.0,-8.228,-8.3036,0.0,0.0,0.0,0.0,0.0,0.0,0.0,0.0,0.0,0.0,0.0,0.0,0.0,0.0,0.0,0.0,0.0,0.0,0.0,0.0,0.0,0.0,0.0,0.0,0.0,0.0,0.0,0.0,0.0,0.0,0.0,0.0,0.0,0.0,0.0,0.0,0.0,0.0,0.0,0.0,-8.034,-8.039,-8.039,-8.039,-8.1228,-8.181,-8.181,-8.181,-8.181,-8.181,-8.181,0.0,0.0,0.0,0.0,0.0,0.0,0.0,0.0,0.0,0.0,0.0,0.0,0.0,0.0,0.0,0.0,0.0,0.0,0.0,0.0,0.0,0.0,0.0,0.0,0.0,0.0,0.0,0.0,0.0,0.0,0.0,0.0,0.0,0.0,0.0,0.0,0.0,0.0,0.0,0.0,0.0,0.0,0.0,0.0,0.0,0.0,0.0,0.0,0.0,0.0,0.0,0.0,0.0,0.0,0.0,0.0,0.0,0.0,0.0,-8.2046,-8.2411,0.0,0.0,0.0,0.0,0.0,0.0,0.0,0.0,0.0,0.0,0.0,0.0,0.0,0.0,0.0,0.0,0.0,0.0,0.0,0.0,0.0,0.0,0.0,0.0,0.0,0.0,0.0,0.0,0.0,0.0,0.0,0.0,0.0,0.0,0.0,0.0,0.0,0.0,0.0,0.0,-7.9239,-7.9154,-7.9361,-7.9955,-8.0573,-8.118,-8.1728,-8.181,-8.181,-8.181,-8.181,0.0,0.0,0.0,0.0,0.0,0.0,0.0,0.0,0.0,0.0,0.0,0.0,0.0,0.0,0.0,0.0,0.0,0.0,0.0,0.0,0.0,0.0,0.0,0.0,0.0,0.0,0.0,0.0,0.0,0.0,0.0,0.0,0.0,0.0,0.0,0.0,0.0,0.0,0.0,0.0,0.0,0.0,0.0,0.0,0.0,0.0,0.0,0.0,0.0,0.0,0.0,0.0,0.0,-8.181,-8.181,-8.181,-8.1948,-8.1983,-8.2017,-8.2121,-8.2046,-8.1888,-8.2595,0.0,0.0,0.0,0.0,0.0,0.0,0.0,0.0,0.0,0.0,0.0,0.0,0.0,0.0,0.0,0.0,0.0,0.0,0.0,0.0,0.0,0.0,-7.7838,-7.8843,-7.7757,-7.6448,-7.6213,0.0,0.0,0.0,0.0,0.0,0.0,0.0,0.0,0.0,0.0,0.0,-7.8151,-7.8184,-7.863,-7.96,-8.0056,-8.0721,-8.1715,-8.181,-8.181,-8.181,-8.181,-8.181,0.0,0.0,0.0,0.0,0.0,0.0,0.0,0.0,0.0,0.0,0.0,0.0,0.0,0.0,0.0,0.0,0.0,0.0,0.0,0.0,0.0,0.0,0.0,0.0,0.0,0.0,0.0,0.0,0.0,0.0,0.0,0.0,-6.5103,-6.5719,0.0,0.0,0.0,0.0,0.0,0.0,0.0,0.0,0.0,0.0,0.0,0.0,0.0,-7.8522,-8.0556,-8.0243,-8.0653,-8.181,-8.181,-8.181,-8.181,-8.2466,-8.2742,-8.2811,-8.3431,0.0,-8.3679,-8.4274,0.0,0.0,0.0,0.0,0.0,0.0,0.0,0.0,0.0,0.0,0.0,0.0,0.0,0.0,0.0,0.0,0.0,0.0,0.0,0.0,0.0,0.0,-7.6292,-7.642,-7.583,-7.5086,-7.4501,-7.6223,-7.7649,-7.6863,-7.6958,-7.7324,0.0,0.0,0.0,0.0,0.0,0.0,-7.6925,-7.7697,-7.8345,-7.8505,-8.0324,-8.1633,-8.181,-8.181,-8.181,-8.181,-8.181,-8.181,-8.181,-8.181,0.0,0.0,0.0,0.0,0.0,0.0,0.0,0.0,0.0,0.0,0.0,0.0,0.0,0.0,0.0,0.0,0.0,0.0,0.0,0.0,0.0,0.0,0.0,0.0,0.0,0.0,0.0,0.0,0.0,-6.5226,-6.5565,-6.5873,-6.6242,-6.6735,0.0,0.0,0.0,0.0,0.0,0.0,0.0,0.0,0.0,-7.6977,-7.8116,-7.9247,-8.0209,-8.0731,-8.1311,-8.181,-8.181,-8.2017,-8.2431,-8.2742,-8.3121,-8.3569,-8.4363,-8.4673,-8.4708,-8.4954,-8.5248,-8.5508,0.0,0.0,0.0,0.0,-8.3805,-8.3421,-8.1245,-8.0412,-8.0352,-8.0472,0.0,0.0,0.0,0.0,0.0,0.0,0.0,-7.7212,-7.7016,-7.68,-7.6492,-7.6092,-7.5913,-7.5517,-7.4498,-7.5485,-7.6251,-7.5079,-7.5681,-7.6338,-7.6338,-7.7424,0.0,0.0,0.0,-7.679,-7.5771,-7.6085,-7.6621,-7.7258,-7.8291,-7.9428,-8.0672,-8.0804,-8.1083,-8.1763,-8.181,-8.181,-8.181,-8.181,-8.181,0.0,0.0,0.0,0.0,0.0,0.0,0.0,0.0,0.0,0.0,0.0,0.0,0.0,0.0,0.0,0.0,0.0,0.0,0.0,0.0,0.0,0.0,0.0,0.0,0.0,0.0,0.0,0.0,-6.575,-6.6242,-6.6396,-6.6858,-6.7442,0.0,0.0,0.0,0.0,0.0,0.0,-7.3105,-7.544,-7.6774,-7.6828,-7.802,-7.9102,-8.0006,-8.0573,-8.1317,-8.2086,-8.2086,-8.2466,-8.319,-8.3397,-8.3811,-8.4363,-8.5156,-8.5466,-8.5466,-8.5466,-8.5466,-8.5535,-8.6087,-8.5992,-8.536,-8.3988,-8.3354,-8.2797,-8.0235,-7.941,-7.944,-7.9563,-7.9192,-7.8942,-8.0171,0.0,0.0,0.0,0.0,-7.7377,-7.7061,-7.703,-7.6845,-7.6165,-7.6203,-7.6053,-7.4874,-7.5027,-7.5053,-7.3848,-7.4536,-7.5391,-7.5391,-7.6532,0.0,-7.6028,-7.6313,-7.6199,-7.5043,-7.5161,-7.5655,-7.6508,-7.7148,-7.8044,-7.9446,-8.014,-8.0721,-8.1311,-8.1633,-8.181,-8.181,-8.181,-8.181,-8.181,0.0,0.0,0.0,0.0,0.0,0.0,0.0,0.0,0.0,0.0,0.0,0.0,0.0,0.0,0.0,0.0,0.0,0.0,0.0,0.0,0.0,0.0,0.0,0.0,0.0,0.0,0.0,0.0,0.0,-6.775,-6.7843,0.0,0.0,0.0,0.0,-7.0345,-7.2013,-7.278,-7.2369,-7.4413,-7.5608,-7.5663,-7.533,-7.6701,-7.9955,-7.8979,-7.9918,-8.2845,-8.2845,-8.3225,-8.3983,-8.4742,-8.5087,-8.519,-8.5915,-8.626,-8.626,-8.626,-8.626,-8.626,-8.6294,-8.5566,-8.4345,-8.2505,-8.1297,-8.0324,-7.828,-7.7861,-7.8246,-7.8564,-7.8437,-7.799,-7.7408,-7.7667,0.0,0.0,-7.7959,-7.828,-7.7243,-7.7023,-7.6836,-7.6151,-7.5995,-7.5808,-7.5153,-7.5211,-7.5114,-7.4061,-7.4207,-7.4479,-7.4479,0.0,-7.5906,-7.5102,-7.5913,-7.6199,-7.5043,-7.5855,-7.6565,-7.6621,-7.8525,-7.9446,-7.8505,-8.0458,-8.1228,-8.0156,-8.118,-8.181,-8.181,-8.181,-8.181,-8.181,-8.181,0.0,0.0,0.0,0.0,0.0,0.0,0.0,0.0,0.0,0.0,0.0,0.0,0.0,0.0,0.0,0.0,0.0,0.0,0.0,0.0,0.0,0.0,0.0,0.0,0.0,0.0,0.0,0.0,-6.7904,-6.8304,0.0,-6.8858,-6.9407,-6.9896,-7.0379,-7.1979,-7.2958,-7.3006,-7.4341,-7.5098,-7.5156,-7.5669,-7.6565,-7.7773,-7.9394,-8.0319,-8.0692,-8.1868,-8.2427,-8.2455,-8.3582,-8.3903,-8.3672,-8.5515,-8.5412,-8.4096,-8.5669,-8.6294,-8.6244,-8.5463,-8.4909,-8.4204,-8.2001,-8.0982,-8.0477,-7.9037,-7.831,-7.8023,-7.7894,-7.799,-7.8085,-7.8054,-7.787,-7.7716,-7.7495,-7.7056,-7.6555,-7.6116,-7.5864,-7.5582,-7.5153,-7.5185,-7.5214,-7.471,-7.4857,-7.4942,-7.4631,-7.4659,-7.4659,-7.4419,-7.4925,-7.5247,-7.4925,-7.5279,-7.5364,-7.4956,-7.5279,-7.5481,-7.5481,-7.6224,-7.7148,-7.8238,-7.8398,-7.8927,-7.9955,-8.039,-8.0622,-8.0622,-8.1407,-8.1569,-8.1052,-8.1052,-8.081,0.0,0.0,0.0,0.0,0.0,0.0,0.0,0.0,0.0,0.0,0.0,0.0,0.0,0.0,0.0,0.0,0.0,0.0,0.0,0.0,0.0,0.0,0.0,0.0,0.0,-6.7812,-6.8243,-6.8243,-6.8612,-6.8982,-6.9197,-6.9628,-7.0209,-7.103,-7.2197,-7.318,-7.3729,-7.4466,-7.4897,-7.4897,-7.5655,-7.6353,-7.6977,-7.9011,-8.0048,-8.0145,-8.137,-8.2005,-8.2022,-8.2795,-8.2974,-8.2774,-8.4398,-8.4184,-8.283,-8.4452,-8.5066,-8.5066,-8.4664,-8.3934,-8.2909,-8.1219,-8.0296,-7.9873,-7.9194,-7.8691,-7.8247,-7.7581,-7.7583,-7.7871,-7.7621,-7.7277,-7.6995,-7.6995,-7.6401,-7.5808,-7.559,-7.5402,-7.5247,-7.4748,-7.4806,-7.4863,-7.4634,-7.4719,-7.4897,-7.4897,-7.4897,-7.4838,-7.4599,-7.4778,-7.4897,-7.4897,-7.4897,-7.4897,-7.4897,-7.4897,-7.4897,-7.4897,-7.5279,-7.5913,-7.7037,-7.7533,-7.8044,-7.8788,-7.9989,-8.039,-8.0006,-8.118,-8.1569,-8.1017,-8.0741,-8.0258,-7.95,0.0,0.0,0.0,0.0,0.0,0.0,0.0,0.0,0.0,0.0,0.0,0.0,0.0,0.0,0.0,0.0,0.0,0.0,0.0,0.0,0.0,0.0,0.0,-6.7966,-6.8489,-6.8889,-6.892,-6.892,-6.9166,-6.9874,-6.9936,-7.061,-7.2271,-7.2726,-7.3339,-7.4328,-7.4719,-7.4897,-7.4897,-7.4929,-7.5805,-7.7632,-7.7754,-7.9007,-8.149,-8.1546,-8.1943,-8.2605,-8.2661,-8.2605,-8.2605,-8.2661,-8.2661,-8.2605,-8.2661,-8.2661,-8.2661,-8.388,-8.2797,-8.0384,-8.0021,-7.9129,-7.8151,-7.8406,-7.8723,-7.8817,-7.737,-7.7151,-7.7183,-7.5931,-7.5744,-7.5995,-7.5995,-7.6213,-7.6272,-7.5613,-7.5699,-7.5782,-7.5055,-7.4897,-7.4929,-7.4929,-7.4929,-7.496,-7.496,-7.496,-7.4929,-7.4897,-7.4897,-7.4897,-7.4897,-7.4897,0.0,-7.4897,-7.4897,-7.4897,-7.4897,-7.5913,-7.6142,-7.5043,-7.7936,-7.8946,-7.679,-7.9786,-8.1131,-8.0006,-8.1131,-8.1728,-8.1776,-8.0948,-8.0189,-7.9465,0.0,0.0,0.0,0.0,0.0,0.0,0.0,0.0,0.0,0.0,0.0,0.0,0.0,0.0,0.0,0.0,0.0,0.0,0.0,0.0,0.0,-6.8612,-6.8612,-6.8612,-6.8766,-6.9074,-6.9566,-6.9628,-6.9874,-7.0551,-7.1105,-7.1658,-7.2333,-7.3162,-7.3839,-7.4359,-7.4719,-7.4897,-7.4897,-7.5403,-7.5962,-7.6478,-7.826,-7.9145,-7.8999,-8.0437,-8.0734,-8.0117,-8.0988,-8.0928,-8.0178,-8.1919,-8.157,-7.9841,-8.1596,-8.1127,-7.9533,-8.1219,-8.1428,-8.0657,-7.9688,-7.8783,-7.7999,-7.759,-7.7151,-7.6745,-7.6149,-7.5961,-7.6056,-7.6182,-7.5962,-7.5708,-7.5953,-7.5514,-7.4953,-7.4765,-7.4581,-7.4458,-7.4511,-7.4917,-7.5415,-7.5627,-7.6066,-7.6414,-7.6414,-7.6414,-7.6098,-7.5055,-7.4897,-7.4897,-7.4897,-7.4897,-7.4897,-7.4897,-7.4897,-7.4897,-7.4897,-7.5161,-7.5597,-7.6085,-7.6224,-7.6701,-7.7806,-7.7969,-7.8238,-7.8736,-7.9888,-8.0629,-8.0901,-7.9672,-7.8913,0.0,0.0,0.0,0.0,0.0,0.0,0.0,0.0,0.0,0.0,0.0,0.0,0.0,0.0,0.0,0.0,0.0,0.0,0.0,0.0,0.0,0.0,-6.8889,-6.8982,-6.9259,-6.932,-6.9443,-6.9843,-7.0151,-7.0582,-7.129,-7.1721,-7.2213,-7.2797,-7.3504,-7.4026,-7.4359,-7.5002,-7.534,-7.534,-7.6035,-7.654,-7.6856,-7.8283,-7.8825,-7.8468,-7.959,-7.9782,-7.91,-7.9843,-7.9782,-7.9163,-8.0569,-8.0267,-7.888,-8.0328,-7.971,0.0,0.0,0.0,0.0,0.0,-7.7183,-7.6901,-7.6494,-7.6181,-7.5933,-7.5465,-7.5372,-7.5496,-7.5584,-7.5361,-7.5108,-7.5289,-7.5074,-7.4859,-7.4859,-7.5018,-7.5206,-7.5299,-7.5734,-7.614,-7.6232,-7.6638,-7.6983,-7.6983,-7.6983,0.0,-7.5908,-7.5782,-7.5782,-7.5782,-7.5782,-7.5782,-7.5782,-7.5529,-7.534,-7.534,-7.5055,-7.5161,-7.5797,-7.5713,0.0,0.0,0.0,-7.7828,-7.8946,-7.9651,0.0,0.0,0.0,-7.9017,-7.8396,-7.7948,0.0,0.0,-7.7706,-7.743,0.0,0.0,0.0,0.0,0.0,0.0,0.0,0.0,0.0,0.0,0.0,0.0,0.0,0.0,0.0,0.0,-6.8889,-6.9105,-6.9813,-6.9967,-7.0028,-7.012,-7.0644,-7.129,-7.2029,-7.2091,-7.2521,-7.3447,-7.3753,-7.4057,-7.4485,-7.5444,0.0,0.0,0.0,-7.7394,-7.7994,-7.8089,-7.8468,-7.91,-7.91,-7.91,-7.9037,-7.9037,-7.9037,-7.8975,-7.8975,-7.8975,-7.8912,-7.8817,-7.8188,-7.7465,-7.8963,-7.828,-7.6362,-7.5519,-7.5335,-7.5494,-7.5431,0.0,0.0,-7.5091,-7.5181,-7.5361,-7.4767,-7.461,-7.461,-7.4639,-7.5171,-7.5581,-7.5581,-7.6266,-7.6861,-7.6492,-7.674,-7.6955,-7.6679,-7.6927,-7.7236,-7.7236,-7.7236,-7.7236,-7.7236,-7.7078,-7.6983,-7.6983,-7.6983,-7.6983,-7.6983,-7.6477,-7.6098,-7.6098,0.0,0.0,-7.5024,-7.5861,-7.6028,-7.5161,-7.7092,-7.8683,-7.9566,-7.9854,-8.0183,-8.0553,-8.0578,-7.9982,-7.8672,-7.8568,-7.812,-7.7361,-7.7258,-7.7223,0.0,0.0,0.0,0.0,0.0,0.0,0.0,0.0,0.0,0.0,0.0,0.0,0.0,0.0,0.0,-6.8889,-6.8889,-6.9105,-6.9813,-7.0367,-7.0921,-7.1506,-7.169,-7.2029,-7.2706,-7.2798,-7.2984,-7.3478,-7.3753,-7.4276,-7.5236,-7.5727,-7.6224,-7.6762,-7.7457,-7.7868,-7.8026,-7.8595,-7.8974,-7.91,-7.91,0.0,-7.8691,-7.8691,-7.8596,-7.8277,-7.8277,-7.8118,-7.7734,-7.727,-7.6426,-7.5582,-7.6744,-7.6712,-7.6151,-7.6461,-7.6146,-7.5492,-7.5184,-7.4932,-7.4648,-7.4283,-7.4625,-7.5182,-7.5558,-7.5683,0.0,-7.6329,-7.6423,-7.6303,-7.6303,-7.6459,-7.6492,-7.6182,-7.6745,-7.7402,-7.734,-7.803,-7.8689,-7.8689,-7.8689,-7.8689,-7.8689,-7.7741,-7.6983,-7.6983,-7.6983,-7.6983,-7.6983,-7.6856,-7.6793,-7.6793,-7.6193,-7.5782,-7.5782,-7.5451,-7.5539,-7.6224,-7.7533,-7.8023,-7.7313,-7.8998,-8.0039,-8.0103,-8.0453,-8.0465,-8.0189,-7.9603,-7.8913,-7.8154,-7.7534,-7.7223,0.0,0.0,0.0,0.0,0.0,0.0,0.0,0.0,0.0,0.0,0.0,-6.8889,-6.8889,0.0,-6.8889,-6.8889,-6.9166,-6.9628,-7.0305,-7.1013,-7.1567,-7.1937,-7.2275,-7.2614,-7.2952,-7.2983,-7.3045,-7.3231,-7.385,-7.4438,-7.4965,-7.6146,-7.6927,-7.7242,-7.806,-7.8563,-7.8563,-7.8942,-7.91,-7.91,-7.91,-7.8912,-7.8564,-7.8564,-7.8374,-7.8085,-7.8085,-7.799,-7.7734,-7.6858,-7.617,-7.5797,-7.5932,-7.5807,-7.5493,-7.5465,-7.5434,-7.5247,-7.5059,-7.4905,-7.4718,-7.4747,-7.4997,-7.5372,-7.5839,-7.6026,-7.6089,-7.643,-7.6619,-7.6776,-7.6776,-7.7027,-7.7214,-7.6834,-7.7305,-7.7746,-7.7524,-7.8186,-7.8849,-7.8849,-7.8975,-7.91,-7.91,-7.8531,-7.8057,-7.8057,-7.8057,-7.8057,-7.8057,-7.7741,-7.7488,-7.7488,-7.6888,-7.6351,-7.6035,-7.5308,-7.5161,-7.5713,-7.6281,-7.6621,-7.6621,-7.8258,-7.9446,-8.0006,-8.0803,-8.1017,-8.0603,-8.0258,-7.9672,-7.8948,-7.8568,-7.7948,0.0,0.0,0.0,0.0,0.0,0.0,0.0,-6.7877,-6.8062,-6.8766,-6.8889,-6.8889,-6.8889,-6.8889,-6.892,-6.9043,-6.9536,-7.0182,-7.1013,-7.1629,-7.2029,-7.2152,-7.2645,-7.2983,-7.2983,-7.2983,-7.3045,-7.3168,-7.4004,-7.4625,-7.4935,-7.662,-7.7591,-7.7779,-7.8691,-7.91,-7.91,-7.91,-7.91,-7.91,-7.9037,-7.8849,-7.8501,-7.8437,-7.8182,-7.7892,-7.7892,-7.7799,-7.7643,-7.6732,-7.6294,-7.6108,-7.5646,-7.5332,-7.5107,-7.4557,-7.4649,-7.5112,-7.5112,-7.5112,-7.5206,-7.552,-7.5678,-7.5836,-7.6307,-7.6338,-7.6338,-7.6526,-7.6869,-7.7243,-7.7306,-7.7776,-7.8118,-7.7732,-7.7925,-7.8118,-7.7797,-7.8246,-7.8691,-7.8691,-7.8912,-7.91,-7.91,-7.91,-7.91,-7.91,-7.91,-7.91,-7.91,-7.8595,-7.8215,-7.8215,-7.7615,-7.6856,-7.6066,-7.5434,-7.5055,-7.4897,-7.5337,-7.5739,-7.6224,-7.8023,-7.9083,-7.9309,-8.0755,-8.1146,-8.0445,-8.0445,-8.0243,-7.9741,-7.9741,-7.8982,-6.2701,-6.3538,-6.411,-6.441,-6.5303,-6.6327,0.0,-6.8215,-6.8766,-6.8858,-6.8889,-6.8889,-6.8889,-6.8889,-6.9074,-6.969,-6.9843,-7.0336,-7.166,-7.1937,-7.2214,-7.2798,-7.2922,-7.2983,-7.2983,-7.2983,-7.3229,-7.3845,-7.4282,-7.5153,-7.6649,-7.7246,-7.7936,-7.8911,-7.9006,-7.91,-7.91,-7.91,-7.91,-7.91,-7.8786,-7.8501,-7.8149,-7.7797,-7.7473,-7.7147,-7.7147,-7.6807,-7.6252,-7.6095,-7.5726,-7.5171,-7.5109,-7.5418,-7.588,-7.5774,-7.5619,-7.5429,-7.5429,-7.5619,-7.5932,-7.5949,-7.6358,-7.6961,-7.7648,-7.7643,-7.7548,-7.8502,-7.8344,-7.8024,-7.8343,-7.8438,-7.8437,-7.8118,-7.831,-7.8501,-7.8501,-7.8786,-7.9037,-7.9037,-7.9037,-7.91,-7.91,-7.91,-7.91,-7.91,-7.91,-7.91,-7.91,-7.9037,-7.9005,-7.9005,-7.8342,-7.7394,-7.6098,-7.5908,-7.5592,-7.4929,-7.6757,-7.7037,-7.5161,-7.9169,-8.0023,-7.7037,-7.9102,-8.0123,-8.0055,-8.0055,-8.0209,-8.05,-8.05,-8.0051,-6.3164,-6.3706,-6.4054,-6.5128,-6.5994,-6.6897,-6.8092,-6.8643,-6.8889,-6.8889,-6.8889,-6.8889,-6.8889,-6.8889,-6.9105,-6.9782,-7.0213,-7.0828,-7.1844,-7.2306,-7.2675,-7.2952,-7.2983,-7.2983,-7.2983,-7.3322,-7.3691,-7.3968,-7.4865,-7.5671,-7.642,-7.7144,-7.7678,-7.8182,-7.8405,-7.8532,-7.8532,-7.8532,-7.8532,-7.8532,-7.8405,-7.8118,-7.7732,-7.7603,-7.7343,-7.7016,-7.7016,-7.6862,-7.6585,-7.6585,-7.6431,-7.6184,-7.6184,-7.6338,-7.6523,-7.6168,-7.6168,-7.6348,-7.6348,-7.6477,-7.6603,-7.6817,-7.7039,-7.7423,-7.7927,-7.799,-7.7925,-7.8405,-7.8341,-7.8149,-7.8246,-7.8341,-7.8246,-7.8149,-7.8054,-7.7959,-7.7959,-7.8246,-7.8532,-7.8501,-7.8849,-7.91,-7.91,-7.91,-7.91,-7.91,-7.91,-7.91,-7.91,-7.91,-7.91,-7.91,-7.8468,-7.7615,-7.6635,-7.6224,-7.5687,-7.4929,-7.5797,-7.6199,-7.5913,-7.7752,-7.8716,-7.8577,-7.9515,-8.034,-8.1083,-8.1083,-8.1139,-8.1293,-8.1293,-8.1155,-6.3451,-6.3819,-6.4114,-6.5639,-6.6564,-6.7408,-6.8612,-6.8889,-6.8889,-6.8889,-6.8889,-6.8889,-6.8889,-6.8889,-6.9166,-7.0028,-7.0582,-7.1229,-7.2121,-7.2675,-7.2983,-7.2983,-7.2983,-7.3045,-7.326,-7.3722,-7.4153,-7.4522,-7.5446,-7.6092,-7.6407,-7.7129,-7.7507,-7.7667,-7.7925,-7.8085,-7.8085,-7.8085,-7.8085,-7.8085,-7.799,-7.7797,-7.7507,-7.7377,-7.7212,-7.7016,-7.7016,-7.7016,-7.7016,-7.7016,-7.7016,-7.7016,-7.7016,-7.7016,-7.6954,-7.6461,-7.6585,-7.7016,-7.7016,-7.7016,-7.7016,-7.7277,-7.7377,-7.7473,-7.7925,-7.799,-7.799,-7.8277,-7.8341,-7.8277,-7.8341,-7.8405,-7.8405,-7.8405,-7.8118,-7.7925,-7.7925,-7.8182,-7.831,-7.8151,-7.8691,-7.9037,-7.8975,-7.9037,-7.91,-7.91,-7.91,-7.91,-7.91,-7.91,-7.91,-7.91,-7.8626,-7.8026,-7.733,-7.6635,-7.5972,-7.5245,-7.5315,-7.5597,-7.6142,-7.6734,-7.7588,-7.8577,-7.9206,-7.9989,-8.0838,-8.1131,-8.1455,-8.181,-8.181,-8.181,-6.3424,-6.3766,-6.4262,-6.538,-6.6629,-6.7826,-6.8701,-6.8889,-6.8889,-6.8889,-6.8889,-6.8889,-6.8889,-6.8889,-6.932,-7.0644,-7.089,-7.1383,-7.2768,-7.2983,-7.2983,-7.2983,-7.2983,-7.3229,-7.3907,-7.3968,-7.4522,-7.5846,-7.6,-7.6437,-7.738,-7.7507,-7.7667,-7.8085,-7.8085,-7.8085,-7.8085,-7.8085,-7.8085,-7.8085,-7.7732,-7.7507,-7.7507,-7.7147,-7.7016,-7.7016,-7.7016,-7.7016,-7.7016,-7.7016,-7.7016,-7.7016,-7.7016,-7.7016,-7.7016,-7.6985,-7.7016,-7.7016,-7.7016,-7.7016,-7.7016,-7.7016,-7.7016,-7.7147,-7.7861,-7.7797,-7.7732,-7.8786,-7.8849,-7.8628,-7.8975,-7.9037,-7.9037,-7.9037,-7.9037,-7.9037,-7.9037,-7.9037,-7.8975,-7.8628,-7.8849,-7.8975,-7.8691,-7.8912,-7.91,-7.91,-7.91,-7.91,-7.91,-7.91,-7.91,-7.91,-7.91,-7.8784,-7.8057,-7.7362,-7.6667,-7.6003,-7.6297,-7.6085,-7.5016,-7.7092,-7.7258,-7.5102,-7.7203,-7.8398,-7.8398,-7.9548,-8.0672,-8.181,-8.181,-8.181,-6.3709,-6.4418,-6.5224,-6.5822,-6.7231,-6.8563,-6.8825,-6.8889,-6.8889,-6.8889,-6.8889,-6.9012,-6.9474,-6.9566,-6.9997,-7.1383,-7.1629,-7.1937,-7.286,-7.2983,-7.2983,-7.2983,-7.3383,-7.3907,-7.4584,-7.4645,-7.5046,-7.5938,-7.6431,-7.6835,-7.7116,-7.7147,-7.7212,-7.7343,-7.7343,-7.7343,-7.7343,-7.7343,-7.7343,-7.7343,-7.7212,-7.7147,-7.7147,-7.7081,-7.7016,-7.7016,-7.7016,-7.7016,-7.7016,-7.7016,-7.7016,-7.7016,-7.7016,-7.7016,-7.7016,-7.7016,-7.7016,-7.7016,-7.7016,-7.7016,-7.7016,-7.7277,-7.7538,-7.7797,-7.8246,-7.8501,-7.8564,-7.8722,-7.8722,-7.8628,-7.8786,-7.8786,-7.8786,-7.8786,-7.8786,-7.8722,-7.8469,-7.8596,-7.8691,-7.8628,-7.8691,-7.8786,-7.8912,-7.8849,-7.8849,-7.9037,-7.91,-7.91,-7.91,-7.91,-7.91,-7.91,-7.91,-7.8816,-7.8089,-7.7804,-7.7204,-7.6066,-7.6137,-7.6167,-7.6028,-7.6757,-7.7148,-7.7148,-7.7915,-7.863,-7.9446,-7.9803,-8.0622,-8.181,-8.181,-8.181,-6.3823,-6.4714,-6.5586,-6.6265,-6.7473,-6.8602,-6.8855,-6.8889,-6.8951,-6.9197,-6.9259,-6.9443,-7.012,-7.0244,-7.0644,-7.1783,-7.1967,-7.2214,-7.2891,-7.2983,-7.3076,-7.3322,-7.3722,-7.4368,-7.5261,-7.5353,-7.5661,-7.6338,-7.6769,-7.7016,-7.7016,-7.7016,-7.7016,-7.7016,-7.7016,-7.7016,-7.7016,-7.7016,-7.7016,-7.7016,-7.7016,-7.7016,-7.7016,-7.7016,-7.7016,-7.7016,-7.7016,-7.7016,-7.7016,-7.7016,-7.7016,-7.7016,-7.7016,-7.7016,-7.7016,-7.7016,-7.7016,-7.7016,-7.7016,-7.7016,-7.7016,-7.7277,-7.7473,-7.7732,-7.8118,-7.8374,-7.8501,-7.8437,-7.8437,-7.8437,-7.8437,-7.8501,-7.8564,-7.8437,-7.8564,-7.8628,-7.8213,-7.8469,-7.8722,-7.8437,-7.8628,-7.8849,-7.8912,-7.8849,-7.8849,-7.9037,-7.91,-7.91,-7.91,-7.91,-7.91,-7.91,-7.91,-7.8911,-7.8437,-7.8152,-7.752,-7.6414,-7.613,-7.5982,-7.6002,-7.597,-7.6338,-7.7092,-7.7915,-7.8683,-7.9412,-8.024,-8.1034,-8.181,-8.181,-8.181,-6.3823,-6.4509,-6.5349,-6.6564,-6.7442,-6.815,-6.8797,-6.8951,-6.9105,-6.9751,-6.9905,-7.009,-7.0767,-7.089,-7.1136,-7.1906,-7.2029,-7.2244,-7.2891,-7.2983,-7.3229,-7.3907,-7.403,-7.4553,-7.5877,-7.6031,-7.6338,-7.6954,-7.7016,-7.7016,-7.7016,-7.7016,-7.7016,-7.7016,-7.7016,-7.7016,-7.7016,-7.7016,-7.7016,-7.7016,-7.7016,-7.7016,-7.7016,-7.7016,-7.7016,-7.7016,-7.7016,-7.7016,-7.7016,-7.7016,-7.7016,-7.7016,-7.7016,-7.7016,-7.7016,-7.7016,-7.7016,-7.7016,-7.7016,-7.7016,-7.7016,-7.7016,-7.7016,-7.7081,-7.7377,-7.7507,-7.7603,-7.799,-7.8085,-7.8085,-7.8085,-7.8341,-7.8437,-7.8118,-7.8596,-7.8849,-7.8213,-7.8596,-7.8849,-7.8213,-7.8596,-7.8975,-7.8628,-7.8849,-7.91,-7.91,-7.91,-7.91,-7.91,-7.91,-7.91,-7.91,-7.91,-7.91,-7.91,-7.8468,-7.7741,-7.7014,-7.6382,-7.5687,-7.4929,-7.4984,-7.5043,-7.5016,-7.717,-7.8332,-7.8385,-8.0523,-8.1681,-8.181,-8.181,-8.181,-6.3538,-6.4671,-6.587,-6.6369,-6.7577,-6.8828,-6.9474,-6.9628,-6.969,-6.9843,-6.9905,-7.009,-7.0767,-7.089,-7.129,-7.2521,-7.2737,-7.2768,-7.2952,-7.2983,-7.3229,-7.3907,-7.443,-7.5076,-7.5938,-7.6461,-7.6831,-7.7016,-7.7016,-7.7016,-7.7016,-7.7016,-7.7016,-7.7016,-7.7016,-7.7016,-7.7016,-7.7016,-7.7016,-7.7016,-7.7016,-7.7016,-7.7016,-7.7016,-7.7016,-7.7016,-7.7016,-7.7016,-7.7016,-7.7016,-7.7016,-7.7016,-7.7016,-7.7016,-7.7016,-7.7016,-7.7016,-7.7016,-7.7016,-7.7016,-7.7016,-7.7016,-7.7147,-7.7408,-7.7442,-7.7732,-7.7925,-7.7732,-7.7667,-7.7667,-7.7667,-7.7732,-7.7765,-7.7636,-7.799,-7.8213,-7.7732,-7.799,-7.8341,-7.8149,-7.8277,-7.8341,-7.8246,-7.8532,-7.8849,-7.9037,-7.91,-7.91,-7.91,-7.91,-7.91,-7.91,-7.91,-7.91,-7.91,-7.8942,-7.831,-7.7046,-7.6825,-7.6161,-7.4929,-7.6508,-7.7037,-7.6167,-7.7555,-7.8736,-7.9566,-7.9291,-8.0073,-8.181,-8.181,-8.181,-6.3424,-6.4734,-6.6083,-6.6342,-6.7641,-6.8982,-6.9382,-6.9443,-6.9536,-6.9843,-6.9905,-7.0182,-7.1198,-7.1383,-7.1721,-7.2798,-7.2983,-7.2983,-7.2983,-7.3229,-7.3691,-7.4368,-7.5015,-7.5723,-7.64,-7.68,-7.7016,-7.7016,-7.7016,-7.7016,-7.7016,-7.7016,-7.7016,-7.7016,-7.7016,-7.7016,-7.7016,-7.7016,-7.7016,-7.7016,-7.7016,-7.7016,-7.7016,-7.7016,-7.7016,-7.7016,-7.7016,-7.7016,-7.7016,-7.7016,-7.7016,-7.7016,-7.7016,-7.7016,-7.7016,-7.7016,-7.7016,-7.7016,-7.7016,-7.7016,-7.7016,-7.7016,-7.7147,-7.7277,-7.7277,-7.7473,-7.7538,-7.7343,-7.7277,-7.7277,-7.7277,-7.7377,-7.7442,-7.7343,-7.7667,-7.7925,-7.7408,-7.7732,-7.8085,-7.8085,-7.8085,-7.8085,-7.8085,-7.8374,-7.8628,-7.8849,-7.8975,-7.91,-7.91,-7.91,-7.91,-7.91,-7.91,-7.91,-7.91,-7.91,-7.8626,-7.7488,-7.7141,-7.6477,-7.5434,-7.6303,-7.6701,-7.6621,-7.7719,-7.8841,-8.0006,-7.9888,-8.0508,-8.181,-8.181,-8.181,-6.3457,-6.4737,-6.6055,-6.6348,-6.7644,-6.892,-6.8953,-6.9012,-6.9197,-6.9782,-6.9905,-7.0305,-7.1598,-7.1813,-7.2091,-7.286,-7.2983,-7.2983,-7.2983,-7.3568,-7.4245,-7.4922,-7.56,-7.6277,-7.6954,-7.7016,-7.7016,-7.7016,-7.7016,-7.7016,-7.7016,-7.7016,-7.7016,-7.7016,-7.7016,-7.7016,-7.7016,-7.7016,-7.7016,-7.7016,-7.7016,-7.7016,-7.7016,-7.7016,-7.7016,-7.7016,-7.7016,-7.7016,-7.7016,-7.7016,-7.7016,-7.7016,-7.7016,-7.7016,-7.7016,-7.7016,-7.7016,-7.7016,-7.7016,-7.7016,-7.7016,-7.7016,-7.7016,-7.7016,-7.7016,-7.7016,-7.7016,-7.7016,-7.7016,-7.7016,-7.7016,-7.7212,-7.7343,-7.7081,-7.7473,-7.7797,-7.7147,-7.7473,-7.7957,-7.7957,-7.7957,-7.7957,-7.799,-7.831,-7.8564,-7.8564,-7.8912,-7.91,-7.91,-7.91,-7.91,-7.91,-7.91,-7.91,-7.91,-7.91,-7.8816,-7.8057,-7.7362,-7.6698,-7.6035,-7.5455,-7.5597,-7.6565,-7.7588,-7.8683,-8.0006,-8.0902,-8.149,-8.181,-8.181,-8.181,-6.3765,-6.4953,-6.6118,-6.6428,-6.7718,-6.8953,-6.9209,-6.9542,-6.9751,-6.9874,-6.9905,-7.012,-7.0952,-7.1075,-7.1506,-7.2768,-7.2983,-7.2983,-7.2983,-7.3568,-7.4245,-7.4922,-7.56,-7.6277,-7.6954,-7.7016,-7.7016,-7.7016,-7.7016,-7.7016,-7.7016,-7.7016,-7.7016,-7.7016,-7.7016,-7.7016,-7.7016,-7.7016,-7.7016,-7.7016,-7.7016,-7.7016,-7.7016,-7.7016,-7.7016,-7.7016,-7.7016,0.0,-7.7016,-7.7016,-7.7016,-7.7016,-7.7016,-7.7016,-7.7016,-7.7016,-7.7016,-7.7016,-7.7016,-7.7016,-7.7016,-7.7016,-7.7016,-7.7016,-7.7016,-7.7016,-7.7016,-7.7016,-7.7016,-7.7016,-7.7016,-7.7016,-7.7081,-7.7016,-7.7081,-7.7147,-7.7016,-7.7081,-7.7212,-7.7212,-7.7212,-7.7277,-7.7538,-7.7925,-7.8277,-7.8564,-7.8912,-7.91,-7.91,-7.91,-7.91,-7.91,-7.91,-7.91,-7.91,-7.91,-7.8816,-7.8057,-7.7362,-7.6698,-7.6035,-7.6213,-7.6395,-7.6621,-7.6757,-7.7936,-8.0006,-7.9291,-7.9888,-8.181,-8.181,-8.181,-6.3827,-6.4868,-6.5884,-6.6579,-6.7691,-6.8715,-6.9053,-6.9233,-6.9382,-6.9382,-6.9659,-7.009,-7.0767,-7.1198,-7.1813,-7.2829,-7.2983,-7.2983,-7.2983,-7.3876,-7.4645,-7.4953,-7.5907,-7.6677,-7.6985,-7.7016,-7.7016,-7.7016,-7.7016,-7.7016,-7.7016,-7.7016,-7.7016,-7.7016,-7.7016,-7.7016,-7.7016,-7.7016,-7.7016,-7.7016,-7.7016,-7.7016,-7.7016,-7.7016,-7.7016,-7.7016,-7.7016,-7.7016,-7.7016,-7.7016,-7.7016,-7.7016,-7.7016,-7.7016,-7.7016,-7.7016,-7.7016,-7.7016,-7.7016,-7.7016,-7.7016,-7.7016,-7.7016,-7.7016,-7.7016,-7.7016,-7.7016,-7.7016,-7.7016,-7.7016,-7.7016,-7.7016,-7.7016,-7.7016,-7.7016,-7.7016,-7.7016,-7.7016,-7.7016,-7.7016,-7.7016,-7.7081,-7.7212,-7.7732,-7.8118,-7.8341,-7.8786,-7.91,-7.91,-7.91,-7.91,-7.91,-7.91,-7.91,-7.91,-7.91,-7.8816,-7.8057,-7.7362,-7.6698,-7.6035,-7.5837,-7.6281,-7.7479,-7.7479,-7.8611,-8.0951,-8.0374,-8.0706,-8.181,-8.181,-8.181,-6.4036,-6.4961,-6.5918,-6.6761,-6.7723,-6.8446,-6.8654,-6.883,-6.8889,-6.8889,-6.9413,-7.009,-7.0767,-7.1475,-7.2214,-7.286,-7.2983,-7.2983,-7.2983,-7.4153,-7.5015,-7.5015,-7.6184,-7.7016,-7.7016,-7.7016,-7.7016,-7.7016,-7.7016,-7.7016,-7.7016,-7.7016,-7.7016,-7.7016,-7.7016,-7.7016,-7.7016,-7.7016,-7.7016,-7.7016,-7.7016,-7.7016,-7.7016,-7.7016,-7.7016,-7.7016,-7.7016,-7.7016,-7.7016,-7.7016,-7.7016,-7.7016,-7.7016,-7.7016,-7.7016,-7.7016,-7.7016,-7.7016,-7.7016,-7.7016,-7.7016,-7.7016,-7.7016,-7.7016,-7.7016,-7.7016,-7.7016,-7.7016,-7.7016,-7.7016,-7.7016,-7.7016,-7.7016,-7.7016,-7.7016,-7.7016,-7.7016,-7.7016,-7.7016,-7.7016,-7.7016,-7.7016,-7.7016,-7.7603,-7.8085,-7.8085,-7.8659,-7.91,-7.91,-7.91,-7.91,-7.91,-7.91,-7.91,-7.91,-7.91,-7.8816,-7.8057,-7.7362,-7.6698,-7.6035,-7.5276,-7.5739,-7.7533,-7.7588,-7.8716,-8.1034,-8.1034,-8.1311,-8.181,-8.181,-8.181,-6.4755,-6.5652,-6.6493,-6.6912,-6.7698,-6.8358,-6.8119,-6.8476,-6.8889,-6.8889,-6.9413,-7.009,-7.0767,-7.1475,-7.2214,-7.286,-7.2983,-7.2983,-7.2983,-7.4153,-7.5015,-7.5015,-7.6184,-7.7016,-7.7016,-7.7016,-7.7016,-7.7016,-7.7016,-7.7016,-7.7016,-7.7016,-7.7016,-7.7016,-7.7016,-7.7016,-7.7016,-7.7016,-7.7016,-7.7016,-7.7016,-7.7016,-7.7016,-7.7016,-7.7016,-7.7016,-7.7016,-7.7016,0.0,-7.7016,-7.7016,-7.7016,-7.7016,-7.7016,-7.7016,-7.7016,-7.7016,-7.7016,-7.7016,-7.7016,-7.7016,-7.7016,-7.7016,-7.7016,-7.7016,-7.7016,-7.7016,-7.7016,-7.7016,-7.7016,-7.7016,-7.7016,-7.7016,-7.7016,-7.7016,-7.7016,-7.7016,-7.7016,-7.7016,-7.7016,-7.7016,-7.7016,-7.7016,-7.7603,-7.8085,-7.8085,-7.8659,-7.91,-7.91,-7.91,-7.91,-7.91,-7.91,-7.91,-7.91,-7.91,-7.8816,-7.8057,-7.7362,-7.6698,-7.6035,-7.5276,-7.4984,-7.522,-7.522,-7.6338,-7.8611,-7.8611,-7.9735,-8.181,-8.181,-8.181,-6.4844,-6.5563,-6.6342,-6.7124,-6.7699,-6.8179,-6.8238,-6.8595,-6.8889,-6.8889,-6.9413,-7.009,-7.0767,-7.1475,-7.2214,-7.286,-7.2983,-7.2983,-7.2983,-7.4153,-7.5015,-7.5015,-7.6184,-7.7016,-7.7016,-7.7016,-7.7016,-7.7016,-7.7016,-7.7016,-7.7016,-7.7016,-7.7016,-7.7016,-7.7016,-7.7016,-7.7016,-7.7016,-7.7016,-7.7016,-7.7016,-7.7016,-7.7016,-7.7016,-7.7016,-7.7016,-7.7016,-7.7016,0.0,-7.7016,-7.7016,-7.7016,-7.7016,-7.7016,-7.7016,-7.7016,-7.7016,-7.7016,-7.7016,-7.7016,-7.7016,-7.7016,-7.7016,-7.7016,-7.7016,-7.7016,-7.7016,-7.7016,-7.7016,-7.7016,-7.7016,-7.7016,-7.7016,-7.7016,-7.7016,-7.7016,-7.7016,-7.7016,-7.7016,-7.7016,-7.7016,-7.7016,-7.7016,-7.7603,-7.8054,-7.8054,-7.8628,-7.91,-7.91,-7.91,-7.91,-7.91,-7.91,-7.91,-7.91,-7.8689,-7.8152,-7.7425,-7.6762,-7.6066,-7.5371,-7.5055,-7.522,-7.5913,-7.6621,-7.7719,-7.9309,-8.004,-8.0887,-8.181,-8.181,-8.181,-6.5144,-6.5802,-6.6461,-6.7184,-6.7669,-6.803,-6.8238,-6.8595,-6.8889,-6.8889,-6.9413,-7.0028,-7.0521,-7.1352,-7.2121,-7.2614,-7.286,-7.2983,-7.2983,-7.3968,-7.4769,-7.4984,-7.6031,-7.68,-7.6985,-7.7016,-7.7016,-7.7016,-7.7016,-7.7016,-7.7016,-7.7016,-7.7016,-7.7016,-7.7016,-7.7016,-7.7016,-7.7016,-7.7016,-7.7016,-7.7016,-7.7016,-7.7016,-7.7016,-7.7016,-7.7016,-7.7016,-7.7016,0.0,-7.7016,-7.7016,-7.7016,-7.7016,-7.7016,-7.7016,-7.7016,-7.7016,-7.7016,-7.7016,-7.7016,-7.7016,-7.7016,-7.7016,-7.7016,-7.7016,-7.7016,-7.7016,-7.7016,-7.7016,-7.7016,-7.7016,-7.7016,-7.7016,-7.7016,-7.7016,-7.7016,-7.7016,-7.7016,-7.7016,-7.7016,-7.7016,-7.7016,-7.7016,-7.7603,-7.8054,-7.8023,-7.8628,-7.91,-7.91,-7.91,-7.91,-7.91,-7.8911,-7.8784,-7.8784,-7.831,-7.7646,-7.6762,-7.6256,-7.5656,-7.4929,-7.4897,-7.5279,-7.6085,-7.7203,-7.8365,-7.9497,-8.0706,-8.1455,-8.181,-8.181,-8.181,-6.5832,-6.649,-6.6969,-6.6999,-6.7487,-6.803,-6.803,-6.8476,-6.8889,-6.8889,-6.9413,-6.9905,-6.9905,-7.1044,-7.1967,-7.1998,-7.2552,-7.2983,-7.2983,-7.3568,-7.4245,-7.4922,-7.56,-7.6277,-7.6954,-7.7016,-7.7016,-7.7016,-7.7016,-7.7016,-7.7016,-7.7016,-7.7016,-7.7016,-7.7016,-7.7016,-7.7016,-7.7016,-7.7016,-7.7016,-7.7016,-7.7016,-7.7016,-7.7016,-7.7016,-7.7016,-7.7016,-7.7016,0.0,-7.7016,-7.7016,-7.7016,-7.7016,-7.7016,-7.7016,-7.7016,-7.7016,-7.7016,-7.7016,-7.7016,-7.7016,-7.7016,-7.7016,-7.7016,-7.7016,-7.7016,-7.7016,-7.7016,-7.7016,-7.7016,-7.7016,-7.7016,-7.7016,-7.7016,-7.7016,-7.7016,-7.7016,-7.7016,-7.7016,-7.7016,-7.7016,-7.7016,-7.7016,-7.7603,-7.8085,-7.8085,-7.8659,-7.91,-7.91,-7.91,-7.91,-7.91,-7.8468,-7.8026,-7.8026,-7.8026,-7.7425,-7.6098,-7.6003,-7.5656,-7.4929,-7.4897,-7.4897,-7.4956,-7.6028,-7.7203,-7.8345,-7.9497,-8.0622,-8.181,-8.181,-8.181,-6.5951,-6.649,-6.6999,-6.6999,-6.7487,-6.803,-6.803,-6.8476,-6.8889,-6.8889,-6.9043,-6.9351,-6.9813,-7.0644,-7.1413,-7.1906,-7.2552,-7.2983,-7.2983,-7.3568,-7.4245,-7.4922,-7.6,-7.68,-7.6985,-7.7016,-7.7016,-7.7016,-7.7016,-7.7016,-7.7016,-7.7016,-7.7016,-7.7016,-7.7016,-7.7016,-7.7016,-7.7016,-7.7016,-7.7016,-7.7016,-7.7016,-7.7016,-7.7016,-7.7016,-7.7016,-7.7016,-7.7016,-7.7016,-7.7016,-7.7016,-7.7016,-7.7016,-7.7016,-7.7016,-7.7016,-7.7016,-7.7016,-7.7016,-7.7016,-7.7016,-7.7016,-7.7016,-7.7016,-7.7016,-7.7016,-7.7016,-7.7016,-7.7016,-7.7016,-7.7016,-7.7016,-7.7016,-7.7016,-7.7016,-7.7016,-7.7016,-7.7016,-7.7016,-7.7016,-7.7016,-7.7016,-7.7016,-7.7603,-7.8054,-7.8023,-7.8628,-7.91,-7.91,-7.8689,-7.8373,-7.8373,-7.7741,-7.7488,-7.7963,-7.7172,-7.6446,-7.6035,-7.5529,-7.5118,-7.4897,-7.4897,-7.4897,-7.4897,-7.6028,-7.7148,-7.8312,-7.9412,-8.0622,-8.181,-8.181,-8.181,-6.637,-6.667,-6.6999,-6.6999,-6.7426,-6.785,-6.797,-6.8358,-6.8772,-6.8889,-6.8889,-6.9012,-6.9443,-7.0274,-7.1044,-7.1506,-7.2368,-7.2983,-7.2983,-7.3353,-7.3968,-7.4892,-7.5969,-7.6739,-7.6985,-7.7016,-7.7016,-7.7016,-7.7016,-7.7016,-7.7016,-7.7016,-7.7016,-7.7016,-7.7016,-7.7016,-7.7016,-7.7016,-7.7016,-7.7016,-7.7016,-7.7016,-7.7016,-7.7016,-7.7016,-7.7016,-7.7016,-7.7016,0.0,-7.7016,-7.7016,-7.7016,-7.7016,-7.7016,-7.7016,-7.7016,-7.7016,-7.7016,-7.7016,-7.7016,-7.7016,-7.7016,-7.7016,-7.7016,-7.7016,-7.7016,-7.7016,-7.7016,-7.7016,-7.7016,-7.7016,-7.7016,-7.7016,-7.7016,-7.7016,-7.7016,-7.7016,-7.7016,-7.7016,-7.7016,-7.7016,-7.7016,-7.7016,-7.7603,-7.8054,-7.8023,-7.8628,-7.9005,-7.8721,-7.831,-7.7899,-7.7646,-7.7014,-7.6793,-7.7204,-7.6477,-7.5877,-7.5592,-7.515,-7.4897,-7.4897,-7.4897,-7.4897,-7.4897,-7.6028,-7.7148,-7.8312,-7.9905,-8.1083,-8.181,-8.181,-8.181,0.0,-6.6999,-6.6999,-6.6999,-6.7243,-6.7608,-6.791,-6.8179,0.0,-6.883,-6.8889,-6.8889,-6.8889,-6.9997,-7.089,-7.089,-7.206,-7.2983,-7.2983,-7.3014,-7.3537,-7.4861,-7.56,-7.6277,-7.6954,-7.7016,-7.7016,-7.7016,-7.7016,-7.7016,-7.7016,-7.7016,-7.7016,-7.7016,-7.7016,-7.7016,-7.7016,-7.7016,-7.7016,-7.7016,-7.7016,-7.7016,-7.7016,-7.7016,-7.7016,-7.7016,-7.7016,-7.7016,-7.7016,-7.7016,-7.7016,-7.7016,-7.7016,-7.7016,-7.7016,-7.7016,-7.7016,-7.7016,-7.7016,-7.7016,-7.7016,-7.7016,-7.7016,-7.7016,-7.7016,-7.7016,-7.7016,-7.7016,-7.7016,-7.7016,-7.7016,-7.7016,-7.7016,-7.7016,-7.7016,-7.7016,-7.7016,-7.7016,-7.7016,-7.7016,-7.7016,-7.7016,-7.7016,-7.7603,-7.8054,-7.7992,-7.8596,-7.8722,-7.7964,-7.7899,-7.7615,-7.6983,-7.6319,-7.5908,-7.5908,-7.5908,-7.5624,-7.4929,-7.4897,-7.4897,-7.4897,-7.4897,-7.4897,-7.4897,-7.6085,-7.7258,-7.8345,-8.0656,-8.181,-8.181,-8.181,-8.181,-6.6999,0.0,-6.6999,-6.6999,-6.7243,-6.7608,0.0,-6.8179,-6.8535,-6.883,-6.8889,-6.8889,-6.8889,-6.9997,-7.089,-7.089,-7.206,-7.2983,-7.2983,-7.3414,-7.4061,-7.4892,-7.56,-7.6277,-7.6954,-7.7016,-7.7016,-7.7016,-7.7016,-7.7016,-7.7016,-7.7016,-7.7016,-7.7016,-7.7016,-7.7016,-7.7016,-7.7016,-7.7016,-7.7016,-7.7016,-7.7016,-7.7016,-7.7016,-7.7016,-7.7016,-7.7016,-7.7016,-7.7016,-7.7016,-7.7016,-7.7016,-7.7016,-7.7016,-7.7016,-7.7016,-7.7016,-7.7016,-7.7016,-7.7016,-7.7016,-7.7016,-7.7016,-7.7016,-7.7016,-7.7016,-7.7016,-7.7016,-7.7016,-7.7016,-7.7016,-7.7016,-7.7016,-7.7016,-7.7016,-7.7016,-7.7016,-7.7016,-7.7016,-7.7016,-7.7016,-7.7016,-7.7016,-7.7343,-7.7481,-7.6953,-7.7464,-7.7653,-7.6961,-7.661,-7.6414,-7.6256,-7.5592,-7.515,-7.515,-7.515,-7.5055,-7.4897,-7.4897,-7.4897,-7.4897,-7.4897,-7.4897,-7.4897,-7.6869,-7.8023,-7.8345,-8.0656,-8.181,-8.181,-8.181,-8.181,-6.6999,-6.6999,-6.6999,-6.6999,-6.7121,-6.7426,-6.791,-6.8119,-6.8358,-6.883,-6.8889,-6.8889,-6.8889,-6.9997,-7.089,-7.089,-7.206,-7.2983,-7.2983,-7.3291,-7.3783,-7.4461,-7.5138,-7.5815,-7.6492,-7.6831,-7.7016,-7.7016,-7.7016,-7.7016,-7.7016,-7.7016,-7.7016,-7.7016,-7.7016,-7.7016,-7.7016,-7.7016,-7.7016,-7.7016,-7.7016,-7.7016,-7.7016,-7.7016,-7.7016,-7.7016,-7.7016,-7.7016,-7.7016,-7.7016,-7.7016,-7.7016,-7.7016,-7.7016,-7.7016,-7.7016,-7.7016,-7.7016,-7.7016,-7.7016,-7.7016,-7.7016,-7.7016,-7.7016,-7.7016,-7.7016,-7.7016,-7.7016,-7.7016,-7.7016,-7.7016,-7.7016,-7.7016,-7.7016,-7.7016,-7.7016,-7.7016,-7.7016,-7.7016,-7.7016,-7.7016,-7.7016,-7.7016,-7.6999,-7.6918,-7.6546,-7.6807,-7.6806,-7.6115,-7.6043,-7.5877,-7.5529,-7.5118,-7.4897,-7.4897,-7.4897,-7.4897,-7.4897,-7.4897,-7.4897,-7.4897,-7.4897,-7.5161,-7.5655,-7.7424,-7.8558,-7.905,-8.0936,-8.181,-8.181,-8.181,-8.181,-6.6999,-6.6999,-6.6999,-6.6999,-6.6999,-6.7182,-6.7789,-6.797,-6.815,-6.8713,-6.8889,-6.8889,-6.8889,-6.9997,-7.089,-7.089,-7.206,-7.2983,-7.2983,-7.2983,-7.3229,-7.3907,-7.4491,-7.5107,-7.5784,-7.6369,-7.6769,-7.6862,-7.6862,-7.6892,-7.7016,-7.7016,-7.7016,-7.7016,-7.7016,-7.7016,-7.7016,-7.7016,-7.7016,-7.7016,-7.7016,-7.7016,-7.7016,-7.7016,-7.7016,-7.7016,-7.7016,0.0,-7.7016,-7.7016,-7.7016,-7.7016,-7.7016,-7.7016,-7.7016,-7.7016,-7.7016,-7.7016,-7.7016,-7.7016,-7.7016,-7.7016,-7.7016,-7.7016,-7.7016,-7.7016,-7.7016,-7.7016,-7.7016,-7.7016,-7.7016,-7.7016,-7.7016,-7.7016,-7.7016,-7.7016,-7.7016,-7.7016,-7.7016,-7.7016,-7.6923,-7.6862,-7.6862,-7.6536,-7.6265,-7.6141,-7.6213,-7.6022,-7.5332,-7.5572,-7.5592,-7.496,-7.4897,-7.4897,-7.4897,-7.4897,-7.4897,-7.4897,-7.4897,-7.4897,-7.4897,-7.5043,-7.5597,-7.6565,-7.7915,-7.8998,-8.0006,-8.1228,-8.181,-8.181,-8.181,-8.181,-6.6999,-6.6999,-6.6999,-6.6999,-6.6999,-6.7121,-6.7487,-6.7789,-6.809,-6.8417,-6.8713,-6.8889,-6.8889,-6.9997,-7.089,-7.089,-7.206,-7.2983,-7.2983,-7.2983,-7.3229,-7.3907,-7.4091,-7.4399,-7.5076,-7.5261,-7.5538,-7.6123,-7.6154,-7.64,-7.6985,-7.7016,-7.7016,-7.7016,-7.7016,-7.7016,-7.7016,-7.7016,-7.7016,-7.7016,-7.7016,-7.7016,-7.7016,-7.7016,-7.7016,-7.7016,0.0,-7.7016,-7.7016,-7.7016,-7.7016,-7.7016,-7.7016,-7.7016,-7.7016,-7.7016,-7.7016,-7.7016,-7.7016,-7.7016,-7.7016,-7.7016,-7.7016,-7.7016,-7.7016,-7.7016,-7.7016,-7.7016,-7.7016,-7.7016,-7.7016,-7.7016,-7.7016,-7.7016,-7.7016,-7.7016,-7.7016,-7.7016,-7.7016,-7.7016,-7.6554,-7.6154,-7.6154,-7.5664,-7.5017,-7.4462,-7.4842,-7.4933,-7.4215,-7.4697,-7.5024,-7.4897,-7.4897,-7.4897,-7.4897,-7.4897,-7.4897,-7.4897,-7.4897,-7.4897,-7.4897,-7.5797,-7.6395,-7.6621,-7.8683,-7.9854,-8.0006,-8.1228,-8.181,-8.181,-8.181,-8.181,-6.6999,-6.6999,-6.6999,-6.6999,-6.6999,-6.7121,-6.7426,-6.7608,-6.785,-6.8298,-6.8505,-6.8713,-6.8889,-6.9997,-7.1136,-7.1906,-7.2552,-7.2983,-7.2983,-7.2983,-7.3106,-7.3414,-7.3783,-7.4122,-7.443,-7.4799,-7.5138,-7.5446,-7.5476,-7.56,-7.5907,-7.6277,-7.6461,-7.6461,-7.6831,-7.7016,-7.7016,-7.7016,-7.7016,-7.7016,-7.7016,-7.7016,-7.7016,-7.7016,-7.7016,-7.7016,0.0,-7.7016,-7.7016,-7.7016,-7.7016,-7.7016,-7.7016,-7.7016,-7.7016,-7.7016,-7.7016,-7.7016,-7.7016,-7.7016,-7.7016,-7.7016,-7.7016,-7.7016,-7.7016,-7.7016,-7.7016,-7.7016,-7.7016,-7.7016,-7.7016,-7.7016,-7.7016,-7.7016,-7.7016,-7.7016,-7.7016,-7.6739,-7.6461,-7.6461,-7.5938,-7.5476,-7.5476,-7.4892,-7.4338,-7.403,-7.4222,-7.4279,-7.3936,-7.4479,-7.4897,-7.4897,-7.5245,-7.5498,-7.5498,-7.5814,-7.5687,-7.4929,-7.4897,-7.5161,-7.5797,-7.6338,-7.7203,-7.8418,-7.9463,-8.034,-8.0951,-8.1538,-8.181,-8.1776,-8.1362,-8.1155,-6.6999,-6.6999,-6.6999,-6.6999,-6.6999,-6.706,-6.7304,-6.7426,-6.7669,-6.8119,-6.8268,-6.8446,-6.8772,-6.9938,-7.1352,-7.2768,-7.2983,-7.2983,-7.2983,-7.2983,-7.2983,-7.2983,-7.3445,-7.3753,-7.3753,-7.4214,-7.4584,-7.4738,-7.4769,-7.483,-7.4984,-7.5507,-7.5784,-7.5784,-7.6277,-7.6615,-7.6769,-7.68,-7.6862,-7.7016,-7.7016,-7.7016,-7.7016,-7.7016,-7.7016,-7.7016,-7.7016,-7.7016,-7.7016,-7.7016,-7.7016,-7.7016,-7.7016,-7.7016,-7.7016,-7.7016,-7.7016,-7.7016,-7.7016,-7.7016,-7.7016,-7.7016,-7.7016,-7.7016,-7.7016,-7.7016,-7.7016,-7.7016,-7.7016,-7.7016,-7.7016,-7.7016,-7.7016,-7.7016,-7.7016,-7.7016,-7.7016,-7.6615,-7.6246,-7.6246,-7.5692,-7.523,-7.523,-7.4676,-7.4214,-7.4214,-7.4315,-7.4404,-7.4404,-7.4951,-7.5371,-7.5371,-7.5877,-7.6161,-7.6003,-7.6288,-7.6035,-7.496,-7.4897,-7.5423,-7.6565,-7.6869,-7.7936,-7.9955,-8.029,-8.0902,-8.181,-8.181,-8.1707,-8.15,-8.0914,-8.0534,-6.6999,-6.6999,-6.6999,-6.6999,-6.6999,-6.6999,-6.706,-6.7304,-6.7548,-6.7548,-6.7999,-6.8386,-6.8446,-6.9818,-7.1352,-7.2768,-7.2983,-7.2983,-7.2983,-7.2983,-7.2983,-7.2983,-7.3014,-7.3045,-7.3045,-7.3106,-7.3383,-7.403,-7.4061,-7.4338,-7.4953,-7.5046,-7.5076,-7.5076,-7.5138,-7.5446,-7.6092,-7.6092,-7.64,-7.7016,-7.7016,-7.7016,-7.7016,-7.7016,-7.7016,-7.7016,-7.7016,-7.7016,-7.7016,-7.7016,-7.7016,-7.7016,-7.7016,-7.7016,-7.7016,-7.7016,-7.7016,-7.7016,-7.7016,-7.7016,-7.7016,-7.7016,-7.7016,-7.7016,-7.7016,-7.7016,-7.7016,-7.7016,-7.7016,-7.7016,-7.7016,-7.7016,-7.7016,-7.7016,-7.7016,-7.7016,-7.7016,-7.6985,-7.6954,-7.6954,-7.64,-7.5938,-7.5938,-7.5384,-7.4922,-7.4922,-7.5462,-7.587,-7.587,-7.6396,-7.6825,-7.6825,-7.6888,-7.6667,-7.6035,-7.5403,-7.4992,-7.4897,-7.4897,-7.5423,-7.6565,-7.7643,-7.8736,-7.9955,-8.1131,-8.1681,-8.181,-8.181,-8.1431,-8.0707,-8.0638,-8.0258,-6.6999,-6.6999,-6.6999,-6.6999,-6.6999,-6.6999,-6.6999,-6.7121,-6.7304,-6.7729,-6.7999,-6.8482,-6.9727,-7.0491,-7.1352,-7.2768,-7.2983,-7.2983,-7.2983,-7.2983,-7.2983,-7.2983,-7.2983,-7.2983,-7.2983,-7.2983,-7.3076,-7.3353,-7.3353,-7.3476,-7.3722,-7.4153,-7.4368,-7.4368,-7.4769,-7.5138,-7.5384,-7.5384,-7.5507,-7.5784,-7.6615,-7.7016,-7.7016,-7.7016,-7.7016,-7.7016,-7.7016,-7.7016,-7.7016,-7.7016,-7.7016,-7.7016,-7.7016,-7.7016,-7.7016,-7.7016,-7.7016,-7.7016,-7.7016,-7.7016,-7.7016,-7.7016,-7.7016,-7.7016,-7.7016,-7.7016,-7.7016,-7.7016,-7.7016,-7.7016,-7.7016,-7.7016,-7.7016,-7.7016,-7.7016,-7.7016,-7.7016,-7.6677,-7.64,-7.64,-7.5846,-7.5384,-7.5384,-7.5169,-7.5015,-7.5015,-7.5587,-7.6026,-7.6026,-7.6208,-7.6351,-7.6351,-7.6351,-7.6414,-7.6604,-7.5972,-7.5561,-7.5561,-7.515,-7.5423,-7.6565,-7.6981,-7.8097,-7.9955,-8.044,-8.0809,-8.1052,-8.1052,-8.0672,-7.9913,-7.9465,-7.9086,-6.6999,-6.6999,-6.6999,-6.6999,-6.6999,-6.6999,-6.6999,-6.6999,-6.7121,-6.7608,-6.8001,-6.8849,-7.0585,-7.1075,-7.1629,-7.2798,-7.2983,-7.2983,-7.2983,-7.2983,-7.2983,-7.2983,-7.2983,-7.2983,-7.2983,-7.2983,-7.2983,-7.2983,-7.2983,-7.2983,-7.2983,-7.3414,-7.366,-7.366,-7.4122,-7.4461,-7.4676,-7.4676,-7.4799,-7.5015,-7.5938,-7.6369,-7.64,-7.6615,-7.6708,-7.6708,-7.6923,-7.7016,-7.7016,-7.7016,-7.7016,-7.7016,-7.7016,-7.7016,-7.7016,-7.7016,-7.7016,-7.7016,-7.7016,-7.7016,-7.7016,-7.7016,-7.7016,-7.7016,-7.7016,-7.7016,-7.7016,-7.7016,-7.7016,-7.7016,-7.7016,-7.7016,-7.7016,-7.7016,-7.7016,-7.7016,-7.7016,-7.6646,-7.6338,-7.6338,-7.5969,-7.563,-7.563,-7.563,-7.5569,-7.5353,-7.5897,-7.6245,-7.6057,-7.6145,-7.6319,-7.6319,-7.613,-7.6193,-7.6635,-7.6035,-7.5656,-7.5656,-7.5182,-7.5423,-7.6565,-7.6925,-7.8044,-7.9955,-8.0103,-8.0336,-8.0603,-8.0396,-7.9879,-7.9155,-7.8637,-7.8258,-6.6999,-6.6999,-6.6999,-6.6999,-6.6999,-6.6999,-6.6999,-6.6999,-6.6999,-6.6999,-6.806,-6.9397,-7.0646,-7.1475,-7.2183,-7.286,-7.2983,-7.2983,-7.2983,-7.2983,-7.2983,-7.2983,-7.2983,-7.2983,-7.2983,-7.2983,-7.2983,-7.2983,-7.2983,-7.2983,-7.2983,-7.2983,-7.2983,-7.2983,-7.2983,-7.3322,-7.3968,-7.3968,-7.4307,-7.4984,-7.4984,-7.4984,-7.5015,-7.5692,-7.6,-7.6031,-7.6708,-7.6985,-7.7016,-7.7016,-7.7016,-7.7016,-7.7016,-7.7016,-7.7016,-7.7016,-7.7016,-7.7016,-7.7016,-7.7016,-7.7016,-7.7016,-7.7016,-7.7016,-7.7016,-7.7016,-7.7016,-7.7016,-7.7016,-7.7016,-7.7016,-7.7016,-7.7016,-7.7016,-7.7016,-7.7016,-7.7016,-7.7016,-7.7016,-7.7016,-7.7016,-7.7016,-7.7016,-7.7016,-7.6769,-7.6092,-7.6579,-7.6775,-7.6089,-7.6615,-7.6983,-7.6951,-7.6382,-7.5972,-7.5972,-7.5308,-7.4897,-7.4897,-7.4897,-7.5423,-7.6565,-7.7697,-7.8788,-7.9955,-8.0392,-8.0556,-8.0603,-7.9879,-7.912,-7.8396,-7.8396,-7.7982,-6.6999,-6.6999,-6.6999,-6.6999,-6.6999,-6.6999,-6.6999,-6.6999,-6.7121,-6.7608,-6.8151,-6.9059,-7.0614,-7.1075,-7.1598,-7.2798,-7.2983,-7.2983,-7.2983,-7.2983,-7.2983,-7.2983,-7.2983,-7.2983,-7.2983,-7.2983,-7.2983,-7.2983,-7.2983,-7.2983,-7.2983,-7.2983,-7.2983,-7.2983,-7.2983,-7.3076,-7.3291,-7.3291,-7.3383,-7.3568,-7.3568,-7.4091,-7.5015,-7.5199,-7.5292,-7.5323,-7.5507,-7.56,-7.563,-7.6123,-7.6585,-7.7016,-7.7016,-7.7016,-7.7016,-7.7016,-7.7016,-7.7016,-7.7016,-7.7016,-7.7016,-7.7016,-7.7016,-7.7016,-7.7016,-7.7016,-7.7016,-7.7016,-7.7016,-7.7016,-7.7016,-7.7016,-7.7016,-7.7016,-7.7016,-7.7016,-7.7016,-7.7016,-7.7016,-7.7016,-7.6646,-7.6308,-7.6308,-7.5907,-7.5538,-7.5323,-7.5866,-7.6182,-7.6018,-7.6166,-7.6098,-7.5561,-7.534,-7.5213,-7.5213,-7.5024,-7.4897,-7.4897,-7.4897,-7.5423,-7.6565,-7.6925,-7.7759,-7.9211,-7.9356,-7.931,-7.9051,-7.8844,-7.8327,-7.7568,-7.7568,-7.743,-6.6999,-6.6999,-6.6999,-6.6999,-6.6999,-6.6999,-6.6999,-6.7121,-6.7365,-6.791,-6.8452,-6.924,-7.0645,-7.1136,-7.169,-7.2798,-7.2983,-7.2983,-7.2983,-7.2983,-7.2983,-7.2983,-7.2983,-7.2983,-7.2983,-7.2983,-7.2983,-7.2983,-7.2983,-7.2983,-7.2983,-7.2983,-7.2983,-7.2983,-7.2983,-7.2983,-7.2983,-7.2983,-7.2983,-7.2983,-7.2983,-7.3414,-7.4214,-7.4491,-7.4584,-7.4615,-7.4892,-7.5015,-7.5046,-7.5446,-7.5846,-7.6246,-7.6523,-7.6615,-7.6646,-7.6923,-7.7016,-7.7016,-7.7016,-7.7016,-7.7016,-7.7016,-7.7016,-7.7016,-7.7016,-7.7016,-7.7016,-7.7016,-7.7016,-7.7016,-7.7016,-7.6831,-7.6677,-7.6954,-7.7016,-7.6954,-7.6677,-7.6615,-7.6523,-7.6277,-7.5877,-7.56,-7.56,-7.5261,-7.4922,-7.4645,-7.4935,-7.5274,-7.5532,-7.5561,-7.5371,-7.4929,-7.4897,-7.4897,-7.4897,-7.4897,-7.4897,-7.4897,-7.4897,-7.5295,-7.6144,-7.62,-7.6823,-7.8185,-7.8066,-7.8122,-7.8396,-7.8085,-7.7672,-7.7223,-7.7223,-7.7223,-6.6999,-6.6999,-6.6999,-6.6999,-6.6999,-6.6999,-6.6999,-6.7304,-6.7669,-6.791,-6.8726,-6.9638,-7.0614,-7.1352,-7.2029,-7.2768,-7.2891,-7.2922,-7.2983,-7.2983,-7.2983,-7.2983,-7.2983,-7.2983,-7.2983,-7.2983,-7.2983,-7.2983,-7.2983,-7.2983,-7.2983,-7.2983,-7.2983,-7.2983,-7.2983,-7.2983,-7.2983,-7.2983,-7.2983,-7.2983,-7.2983,-7.2983,-7.3014,-7.363,-7.3907,-7.3937,-7.4553,-7.4861,-7.4922,-7.4922,-7.4953,-7.5076,-7.5692,-7.5907,-7.6,-7.6615,-7.6831,-7.6831,-7.6831,-7.6831,-7.6831,-7.6831,-7.6831,-7.6831,-7.6831,-7.6831,-7.6831,-7.6831,-7.6831,-7.6831,-7.6831,-7.6369,-7.6061,-7.6677,-7.6831,-7.6677,-7.6061,-7.5907,-7.5723,-7.5107,-7.4953,-7.4922,-7.4922,-7.4861,-7.4615,-7.4062,-7.3912,-7.4147,-7.4778,-7.4897,-7.4897,-7.4897,-7.4897,-7.4897,-7.4897,-7.4897,-7.4897,-7.4897,-7.4834,-7.5014,-7.5417,-7.5552,-7.6006,-7.6967,-7.6792,-7.7169,-7.8121,-7.7523,-7.7223,-7.7223,-7.7223,-7.7223,-6.6999,-6.6999,-6.6999,-6.6999,-6.6999,-6.6999,-6.6999,-6.7487,-6.791,-6.797,-6.836,-6.8934,-6.9938,-7.0244,-7.0736,-7.1998,-7.2183,-7.2368,-7.2922,-7.2983,-7.2983,-7.2983,-7.2983,-7.2983,-7.2983,-7.2983,-7.2983,-7.2983,-7.2983,-7.2983,-7.2983,-7.2983,-7.2983,-7.2983,-7.2983,-7.2983,-7.2983,-7.2983,-7.2983,-7.2983,-7.2983,-7.2983,-7.2983,-7.3137,-7.3199,-7.3199,-7.3353,-7.3722,-7.4214,-7.4214,-7.4522,-7.5015,-7.5169,-7.523,-7.523,-7.5384,-7.5446,-7.5446,-7.5446,-7.5446,-7.5446,-7.5446,-7.5446,-7.5446,-7.5446,-7.5446,-7.5446,-7.5446,-7.5446,-7.5446,-7.5446,-7.5323,-7.5261,-7.5415,-7.5446,-7.5384,-7.5261,-7.523,-7.5169,-7.5015,-7.4584,-7.4214,-7.4214,-7.3783,-7.3508,-7.3602,-7.3785,-7.4026,-7.4479,-7.4719,-7.4897,-7.4897,-7.4897,-7.4897,-7.4897,-7.4897,-7.4897,-7.4897,-7.4391,-7.4161,-7.4262,-7.5137,-7.5603,-7.5529,-7.6337,-7.653,-7.6177,-7.6896,-7.7223,-7.7223,-7.7223,-7.7223,-6.6999,-6.6999,-6.6999,-6.6999,-6.6999,-6.706,-6.7182,-6.7669,-6.803,-6.8179,-6.8417,-6.8897,-6.9751,-6.9905,-7.0244,-7.129,-7.1475,-7.1598,-7.1937,-7.2275,-7.2491,-7.2491,-7.2768,-7.2983,-7.2983,-7.2983,-7.2983,-7.2983,-7.2983,-7.2983,-7.2983,-7.2983,-7.2983,-7.2983,-7.2983,-7.2983,-7.2983,-7.2983,-7.2983,-7.2983,-7.2983,-7.2983,-7.2983,-7.2983,-7.2983,-7.2983,-7.2983,-7.3199,-7.3506,-7.3506,-7.3722,-7.4061,-7.4399,-7.4522,-7.4553,-7.4892,-7.5015,-7.5015,-7.5015,-7.5015,-7.5015,-7.5015,-7.5015,-7.5015,-7.5015,-7.5015,-7.5015,-7.5015,-7.5015,-7.5015,-7.5015,-7.4769,-7.4522,-7.4522,-7.4769,-7.4922,-7.4584,-7.4522,-7.443,-7.4091,-7.3753,-7.3506,-7.3506,-7.3229,-7.3107,-7.3447,-7.3753,-7.4026,-7.4359,-7.4719,-7.4897,-7.4897,-7.4897,-7.4897,-7.4897,-7.4897,-7.4739,-7.4423,-7.4107,-7.3601,-7.2938,-7.3972,-7.4701,-7.5065,-7.5256,-7.5706,-7.6346,-7.6918,-7.7223,-7.7223,-7.7223,-7.7223,-6.6999,-6.6999,-6.6999,-6.6999,-6.6999,-6.7121,-6.7426,-6.7789,-6.809,-6.8327,-6.8654,-6.9043,-6.9628,-6.972,-6.9936,-7.0613,-7.0736,-7.0767,-7.089,-7.1413,-7.1783,-7.1783,-7.2275,-7.2675,-7.2798,-7.2798,-7.286,-7.2983,-7.2983,-7.2983,-7.2983,-7.2983,-7.2983,-7.2983,-7.2983,-7.2983,-7.2983,-7.2983,-7.2983,-7.2983,-7.2983,-7.2983,-7.2983,-7.2983,-7.2983,-7.2983,-7.2983,-7.2983,-7.2983,-7.2983,-7.2983,-7.3045,-7.3599,-7.3814,-7.3876,-7.4461,-7.4645,-7.4645,-7.4645,-7.4645,-7.4645,-7.4645,-7.4645,-7.4645,-7.4645,-7.4645,-7.4645,-7.4645,-7.4645,-7.4645,-7.4645,-7.4245,-7.3814,-7.3814,-7.4245,-7.4491,-7.3937,-7.3814,-7.366,-7.3106,-7.2983,-7.2983,-7.2983,-7.2983,-7.3107,-7.3355,-7.3692,-7.3966,-7.4299,-7.4659,-7.4897,-7.4897,-7.4897,-7.4897,-7.4897,-7.4897,-7.4613,-7.3949,-7.3791,-7.3185,-7.2115,-7.2806,-7.3808,-7.507,-7.4556,-7.5142,-7.6918,-7.7133,-7.7223,-7.7223,-7.7223,-7.7223,-6.6999,-6.6999,-6.6999,-6.6999,-6.6999,-6.7121,-6.7426,-6.7789,-6.809,-6.8327,-6.8654,-6.892,-6.9012,-6.9012,-6.9228,-6.9905,-7.0028,-7.0244,-7.0828,-7.0982,-7.1044,-7.1044,-7.1136,-7.1413,-7.206,-7.2121,-7.2337,-7.2952,-7.2983,-7.2983,-7.2983,-7.2983,-7.2983,-7.2983,-7.2983,-7.2983,-7.2983,-7.2983,-7.2983,-7.2983,-7.2983,-7.2983,-7.2983,-7.2983,-7.2983,-7.2983,-7.2983,-7.2983,-7.2983,-7.2983,-7.2983,-7.2983,-7.3076,-7.3106,-7.3137,-7.3229,-7.326,-7.326,-7.326,-7.326,-7.326,-7.326,-7.326,-7.326,-7.326,-7.326,-7.326,-7.326,-7.326,-7.326,-7.326,-7.3199,-7.3106,-7.3106,-7.3199,-7.3229,-7.3137,-7.3106,-7.3106,-7.3014,-7.2983,-7.2983,-7.2983,-7.2983,-7.3045,-7.3045,-7.357,-7.3905,-7.3966,-7.4508,-7.4897,-7.4897,-7.4897,-7.4897,-7.4897,-7.4897,-7.4613,-7.3949,-7.3317,-7.3016,-7.3154,-7.2757,-7.3473,-7.547,-7.5417,-7.5526,-7.5845,-7.6748,-7.7223,-7.7223,-7.7223,-7.7223,-6.6999,-6.6999,-6.6999,-6.6999,-6.7121,-6.7365,-6.7729,-6.7999,-6.8298,-6.8654,-6.883,-6.8889,-6.8889,-6.8889,-6.8982,-6.9289,-6.932,-6.9443,-6.972,-7.009,-7.0336,-7.0336,-7.0675,-7.1198,-7.1906,-7.1967,-7.2244,-7.2922,-7.2983,-7.2983,-7.2983,-7.2983,-7.2983,-7.2983,-7.2983,-7.2983,-7.2983,-7.2983,-7.2983,-7.2983,-7.2983,-7.2983,-7.2983,-7.2983,-7.2983,-7.2983,-7.2983,-7.2983,-7.2983,-7.2983,-7.2983,-7.2983,-7.2983,-7.2983,-7.2983,-7.2983,-7.2983,-7.2983,-7.2983,-7.2983,-7.2983,-7.2983,-7.2983,-7.2983,-7.2983,-7.2983,-7.2983,-7.2983,-7.2983,-7.2983,-7.2983,-7.2983,-7.2983,-7.2983,-7.2983,-7.2983,-7.2983,-7.2983,-7.2983,-7.2983,-7.2983,-7.2983,-7.2983,-7.2983,-7.2983,-7.2983,-7.3508,-7.3905,-7.3905,-7.4479,-7.4897,-7.4897,-7.4897,-7.4897,-7.4897,-7.4549,-7.4044,-7.3317,-7.2622,-7.2404,-7.2811,-7.3142,-7.4023,-7.5574,-7.5574,-7.5892,-7.6519,-7.6964,-7.7223,-7.7223,-7.7223,-7.7223,-6.6999,-6.6999,-6.6999,-6.7121,-6.7304,-6.7608,-6.7999,-6.8238,-6.8535,-6.883,-6.8889,-6.8889,-6.8889,-6.8889,-6.8889,-6.8889,-6.8889,-6.8889,-6.8889,-6.932,-6.9628,-6.9628,-7.009,-7.0736,-7.1629,-7.169,-7.206,-7.2922,-7.2983,-7.2922,-7.2737,-7.2737,-7.2737,-7.2737,-7.2737,-7.2798,-7.2983,-7.2983,-7.2983,-7.2983,-7.2983,-7.2983,-7.2983,-7.2983,-7.2983,-7.2983,-7.2983,-7.2983,-7.2983,-7.2983,-7.2983,-7.2983,-7.2983,-7.2983,-7.2983,-7.2983,-7.2983,-7.2983,-7.2983,-7.2983,-7.2983,-7.2983,-7.2983,-7.2983,-7.2983,-7.2983,-7.2983,-7.2983,-7.2983,-7.2983,-7.2983,-7.2983,-7.2983,-7.2983,-7.2983,-7.2983,-7.2983,-7.2983,-7.2983,-7.2983,-7.2983,-7.2983,-7.2983,-7.2983,-7.2983,-7.2983,-7.3508,-7.3905,-7.3905,-7.4479,-7.4897,-7.4897,-7.4897,-7.4834,-7.4644,-7.4202,-7.3507,-7.2622,-7.2337,-7.2371,-7.2802,-7.382,-7.4948,-7.5986,-7.5986,-7.6392,-7.7223,-7.7223,-7.7223,-7.7223,-7.7223,-7.7223,-6.6999,-6.6999,-6.706,-6.7426,-6.7487,-6.7638,-6.8208,-6.8386,-6.8535,-6.883,-6.8889,-6.8889,-6.8889,-6.8889,-6.8889,-6.8889,-6.8889,-6.8889,-6.8889,-6.892,-6.8951,-6.8951,-6.8982,-6.9505,-7.0828,-7.0952,-7.1536,-7.2891,-7.2983,-7.2706,-7.206,-7.2029,-7.2029,-7.2029,-7.2029,-7.2337,-7.2983,-7.2983,-7.2983,-7.2983,-7.2983,-7.2983,-7.2983,-7.2983,-7.2983,-7.2983,-7.2983,-7.2983,-7.2983,-7.2983,-7.2983,-7.2983,-7.2983,-7.2983,-7.2983,-7.2983,-7.2983,-7.2983,-7.2983,-7.2983,-7.2983,-7.2983,-7.2983,-7.2983,-7.2983,-7.2983,-7.2983,-7.2983,-7.2983,-7.2983,-7.2983,-7.2983,-7.2983,-7.2983,-7.2983,-7.2983,-7.2983,-7.2983,-7.2983,-7.2983,-7.2983,-7.2983,-7.2983,-7.2983,-7.2983,-7.2983,-7.3508,-7.3905,-7.3905,-7.4479,-7.4897,-7.4897,-7.4897,-7.4644,-7.4012,-7.3917,-7.3317,-7.1958,-7.2746,-7.3465,-7.3904,-7.4948,-7.6033,-7.7133,-7.7133,-7.7133,-7.7223,-7.7223,-7.7223,-7.7223,-7.7223,-7.7223,-6.6999,-6.7182,-6.7365,-6.7487,-6.7759,-6.8119,-6.8327,-6.8595,-6.8772,-6.8889,-6.8889,-6.8889,-6.8889,-6.8889,-6.8889,-6.8889,-6.8889,-6.8889,-6.8889,-6.8889,-6.8889,-6.8889,-6.8889,-6.9259,-7.0182,-7.0644,-7.129,-7.2244,-7.2337,-7.2214,-7.1998,-7.1536,-7.129,-7.129,-7.129,-7.1629,-7.2337,-7.2768,-7.2983,-7.2983,-7.2983,-7.2983,-7.2983,-7.2983,-7.2983,-7.2983,-7.2983,-7.2983,-7.2983,-7.2983,-7.2983,-7.2983,-7.2983,-7.2983,-7.2983,-7.2983,-7.2983,-7.2983,-7.2983,-7.2983,-7.2983,-7.2983,-7.2983,-7.2983,-7.2983,-7.2983,-7.2983,-7.2983,-7.2983,-7.2983,-7.2983,-7.2983,-7.2983,-7.2983,-7.2983,-7.2983,-7.2983,-7.2983,-7.2983,-7.2983,-7.2983,-7.2983,-7.2983,-7.2983,-7.2983,-7.2983,-7.3508,-7.3905,-7.3905,-7.4479,-7.4897,-7.4897,-7.4897,-7.4613,-7.3949,-7.3475,-7.3124,-7.2834,-7.2757,-7.3449,-7.4948,-7.5383,-7.608,-7.7178,-7.7223,-7.7223,-7.7223,-7.7223,-7.7223,-7.7223,-7.7223,-7.7223,-6.7304,-6.7365,-6.7426,-6.7699,-6.8059,-6.8298,-6.8505,-6.8772,-6.8889,-6.8889,-6.8889,-6.8889,-6.8889,-6.8889,-6.8889,-6.8889,-6.8889,-6.8889,-6.8889,-6.8889,-6.8889,-6.8889,-6.8889,-6.9135,-6.9813,-7.0305,-7.0859,-7.1567,-7.1629,0.0,-7.129,-7.0828,-7.0551,-7.0551,-7.0798,-7.1136,-7.1629,-7.2306,-7.2645,-7.2645,-7.286,-7.2983,-7.2983,-7.2983,-7.2983,-7.2983,-7.2983,-7.2983,-7.2983,-7.2983,-7.2983,-7.2983,-7.2983,-7.2983,-7.2983,-7.2983,-7.2983,-7.2983,-7.2983,-7.2983,-7.2983,-7.2983,-7.2983,-7.2983,-7.2983,-7.2983,-7.2983,-7.2983,-7.2983,-7.2983,-7.2983,-7.2983,-7.2983,-7.2983,-7.2983,-7.2983,-7.2983,-7.2983,-7.2983,-7.2983,-7.2983,-7.2983,-7.2983,-7.2983,-7.3045,-7.3169,-7.357,-7.3966,-7.4026,-7.4539,-7.4897,-7.4897,-7.4707,-7.4297,-7.3601,-7.2875,-7.2659,-7.3016,-7.301,-7.3752,-7.5526,-7.5939,-7.6439,-7.7178,-7.7223,-7.7223,-7.7223,-7.7223,-7.7223,-7.7223,-7.7223,-7.7223,0.0,0.0,0.0,-6.8148,-6.8238,-6.8209,-6.8772,0.0,-6.8889,-6.8889,-6.8889,-6.8889,-6.8889,-6.8889,-6.8889,-6.8889,-6.8889,-6.8889,-6.8889,-6.8889,-6.8889,-6.8889,-6.8889,-6.9135,-6.9813,-6.9874,-7.0182,-7.0828,-7.089,-7.0582,-6.9936,-6.9874,-6.9874,-6.9874,-7.0521,-7.089,-7.089,-7.1598,-7.1937,-7.1967,-7.2614,-7.2922,-7.2952,-7.2952,-7.2952,-7.2983,-7.2983,-7.2983,-7.2983,-7.2983,-7.2983,-7.2983,-7.2983,-7.2983,-7.2983,-7.2983,-7.2983,-7.2983,-7.2983,-7.2983,-7.2983,-7.2983,-7.2983,-7.2983,-7.2983,-7.2983,-7.2983,-7.2983,-7.2983,-7.2983,-7.2983,-7.2983,-7.2983,-7.2983,-7.2983,-7.2983,-7.2983,-7.2983,-7.2983,-7.2983,-7.2983,-7.2983,-7.2983,-7.2983,-7.3107,-7.3447,-7.3692,-7.4026,-7.4359,-7.4719,-7.4897,-7.4897,-7.4297,-7.3601,-7.2875,-7.2179,-7.2014,-7.2443,-7.3445,-7.4521,-7.5574,-7.6656,-7.7223,-7.7223,-7.7223,-7.7223,-7.7223,-7.7223,-7.7223,-7.7223,-7.7223,-7.7223,-6.791,0.0,0.0,0.0,0.0,0.0,-6.8889,0.0,-6.8889,-6.8889,-6.8889,-6.8889,-6.8889,-6.8889,-6.8889,-6.8889,-6.8889,-6.8889,-6.8889,-6.8889,-6.8889,-6.8889,-6.8889,-6.8951,-6.9135,-6.9597,-6.9967,0.0,-7.0182,-7.009,-6.9905,-6.9443,-6.9166,-6.9166,-6.9813,-7.0182,-7.0182,-7.0859,-7.1198,-7.1198,-7.1383,-7.1752,-7.2244,-7.2244,-7.2521,-7.2983,-7.2983,-7.2983,-7.2983,-7.2983,-7.2983,-7.2983,-7.2983,-7.2983,-7.2983,-7.2983,-7.2983,-7.2983,-7.2983,-7.2983,-7.2983,-7.2983,-7.2983,-7.2983,-7.2983,-7.2983,-7.2983,-7.2983,-7.2983,-7.2983,-7.2983,-7.2983,-7.2983,-7.2983,-7.2983,-7.2983,-7.2983,-7.2983,-7.2983,-7.2983,-7.2983,-7.2983,-7.2983,-7.2983,-7.3045,-7.3107,-7.357,-7.3905,-7.4026,-7.4508,-7.4897,-7.4897,-7.4297,-7.3601,-7.2875,-7.2908,-7.3156,-7.3529,-7.4571,-7.5655,-7.6702,-7.7009,-7.7223,-7.7223,-7.7223,-7.7223,-7.7223,-7.7223,-7.7223,-7.7223,-7.7223,-7.7223,-6.8238,-6.8298,-6.8298,-6.8535,0.0,0.0,-6.8889,-6.8889,-6.8889,0.0,-6.8889,-6.8889,-6.8889,-6.8674,-6.8489,-6.8489,-6.8243,-6.8243,-6.8797,-6.8643,-6.8581,-6.8858,-6.8643,-6.8581,-6.8858,-6.9228,-6.9474,-6.9474,-6.9474,-6.9474,-6.9474,-6.9105,-6.8889,-6.8889,-6.9259,-6.9474,-6.9474,-7.0151,-7.049,-7.049,-7.0767,-7.1136,-7.1536,-7.1536,-7.1752,-7.2121,-7.2429,-7.2552,-7.2583,-7.286,-7.2983,-7.2983,-7.2983,-7.2983,-7.2983,-7.2983,-7.2983,-7.2983,-7.2983,-7.2983,-7.2983,-7.2983,-7.2983,-7.2983,-7.2983,-7.2983,-7.2983,-7.2983,-7.2983,-7.2983,-7.2983,-7.2983,-7.2983,-7.2983,-7.2983,-7.2983,-7.2983,-7.2983,-7.2983,-7.2983,-7.2983,-7.2983,-7.2983,-7.2983,-7.3107,-7.3324,-7.3661,-7.4026,-7.4268,-7.4659,-7.4771,-7.4518,-7.3854,-7.3159,-7.2464,-7.2737,-7.3066,-7.3323,-7.4768,-7.5892,-7.6519,-7.6964,-7.7223,-7.7223,-7.7223,-7.7223,-7.7223,-7.7223,-7.7223,-7.7223,-7.7223,-7.7223,-6.8505,-6.8356,-6.8087,-6.8649,-6.847,0.0,-6.8615,-6.8674,-6.8674,0.0,-6.8674,-6.8674,-6.8674,-6.8212,-6.7812,-6.7812,-6.7319,-6.7319,-6.8489,-6.8181,-6.8027,-6.8612,-6.815,-6.8027,-6.8612,-6.8674,-6.8674,-6.8674,-6.8735,-6.8797,-6.8889,-6.8889,-6.8889,-6.8889,-6.8889,-6.8889,-6.8889,-6.9474,-6.9782,-6.9782,-7.0398,-7.0705,-7.0798,-7.0798,-7.0828,-7.0952,-7.1567,-7.1844,-7.1906,-7.2491,-7.2829,-7.2983,-7.2983,-7.2983,-7.2983,-7.2983,-7.2983,-7.2983,-7.2983,-7.2983,-7.2983,-7.2983,-7.2983,-7.2983,-7.2983,-7.2983,-7.2983,-7.2983,-7.2983,-7.2983,-7.2983,-7.2983,-7.2983,-7.2983,-7.2983,-7.2983,-7.2983,-7.2983,-7.2983,-7.2983,-7.2983,-7.2983,-7.2983,-7.2983,-7.32,-7.3783,-7.3905,-7.4147,-7.4778,-7.4834,-7.4549,-7.3949,-7.3159,-7.2464,-7.1863,-7.2183,-7.2379,-7.2379,-7.4422,-7.5574,-7.5574,-7.6611,-7.7223,-7.7223,-7.7223,-7.7223,-7.7223,-7.7223,-7.7223,-7.7223,-7.7223,-7.7223,-6.7123,-6.7574,-6.7945,-6.8062,-6.7631,0.0,-6.7289,-6.7289,-6.7289,0.0,-6.7289,-6.7289,-6.7289,-6.7196,-6.7104,-6.7104,-6.7012,-6.7012,-6.7258,-6.7196,-6.7165,-6.7289,-6.7196,-6.7165,-6.7289,-6.7289,-6.7289,-6.7289,-6.7812,-6.8335,-6.8858,-6.8889,-6.8889,-6.8889,-6.8889,-6.8889,-6.8889,-6.9012,-6.9074,-6.9074,-6.9228,-6.9566,-7.009,-7.009,-7.0398,-7.0921,-7.1044,-7.1105,-7.1105,-7.1259,-7.1967,-7.2983,-7.2983,-7.2983,-7.2983,-7.2983,-7.2983,-7.2983,-7.2983,-7.2983,-7.2983,-7.2983,-7.2983,-7.2983,-7.2983,-7.2983,-7.2983,-7.2983,-7.2983,-7.2983,-7.2983,-7.2983,-7.2983,-7.2983,-7.2983,-7.2983,-7.2983,-7.2983,-7.2983,-7.2983,-7.2983,-7.2983,-7.2983,-7.2983,-7.3107,-7.3539,-7.3753,-7.4026,-7.4419,-7.4246,-7.4044,-7.3917,-7.278,-7.1958,-7.1832,-7.2183,-7.2379,-7.2379,-7.4422,-7.5574,-7.5574,-7.6611,-7.7223,-7.7223,-7.7223,-7.7223,-7.7223,-7.7223,-7.7223,-7.7223,-7.7223,-7.7223,-6.6611,-6.7164,-6.7412,-6.7412,-6.7165,0.0,0.0,-6.6919,-6.6919,-6.6919,-6.6919,-6.6919,-6.6919,-6.6642,-6.6396,-6.6396,-6.6119,-6.5903,-6.5903,-6.6211,-6.655,-6.6888,-6.6611,-6.655,-6.6888,-6.6919,-6.6919,-6.6919,-6.7227,-6.772,-6.8366,-6.8397,-6.8551,-6.8889,-6.8889,-6.8889,-6.8889,-6.8889,-6.8889,-6.8889,-6.8889,-6.9074,-6.9382,-6.9382,-6.9566,-6.9905,-7.0244,-7.0398,-7.0428,-7.0767,-7.1321,-7.1937,-7.1937,-7.1937,-7.1998,-7.2337,-7.2491,-7.2521,-7.286,-7.2983,-7.2983,-7.2983,-7.2983,-7.2983,-7.2983,-7.2737,-7.2491,-7.2491,-7.2214,-7.1937,-7.1937,-7.1937,-7.1937,-7.1937,-7.1937,-7.1937,-7.1937,-7.1937,-7.1937,-7.1937,-7.1937,-7.2183,-7.286,-7.2706,-7.2676,-7.3165,-7.3036,-7.3086,-7.356,-7.3453,-7.3222,-7.2906,-7.2243,-7.1674,-7.1326,-7.199,-7.2197,-7.1634,-7.4123,-7.5383,-7.4817,-7.6346,-7.7223,-7.7223,-7.7223,-7.7223,-7.7223,-7.7223,-7.7223,-7.7223,-7.7223,-7.7223,-6.6168,-6.6625,-6.6735,-6.6735,-6.6611,-6.6519,0.0,0.0,0.0,-6.6519,-6.6519,-6.6519,-6.6519,0.0,0.0,-6.5873,0.0,0.0,0.0,-6.5442,0.0,-6.6457,-6.6057,-6.5934,-6.6457,-6.6519,-6.6581,-6.6704,-6.6735,-6.7012,-6.7689,-6.7843,-6.815,-6.8674,-6.8828,-6.8889,-6.8889,-6.8889,-6.8889,-6.8889,-6.8889,-6.8889,-6.8889,-6.8889,-6.8889,-6.892,-6.9474,-6.969,-6.9751,-7.0274,-7.0521,-7.0551,-7.0798,-7.089,-7.0982,-7.1567,-7.1783,-7.1844,-7.2398,-7.2583,-7.2583,-7.2583,-7.2583,-7.2583,-7.2583,-7.2214,-7.1783,-7.1783,-7.1352,-7.089,-7.089,-7.089,-7.089,-7.089,-7.089,-7.089,-7.089,-7.089,-7.089,-7.089,-7.089,-7.1259,-7.2398,-7.2121,-7.1996,-7.26,-7.2283,-7.2144,-7.2754,-7.2685,-7.2401,-7.1863,-7.1705,-7.1389,-7.082,-7.158,-7.1798,-7.1148,-7.3719,-7.4996,-7.4323,-7.616,-7.7223,-7.7223,-7.7223,-7.7223,-7.7223,-7.7223,-7.7223,-7.7223,-7.7223,-7.7223,-6.4636,-6.5538,-6.6027,-6.6027,-6.5565,-6.5134,-6.5134,0.0,-6.5134,-6.5134,0.0,-6.5134,-6.5134,0.0,0.0,-6.5811,-6.5349,-6.5103,-6.5719,-6.5349,-6.5042,-6.5103,-6.5072,-6.5042,-6.5134,-6.5134,-6.538,-6.5965,-6.6027,-6.6304,-6.6981,-6.7596,-6.7966,-6.8027,-6.8581,-6.8889,-6.8889,-6.8889,-6.8889,-6.8889,-6.8889,-6.8889,-6.8889,-6.8889,-6.8889,-6.8889,-6.8951,-6.9012,-6.9012,-6.9074,-6.9105,-6.9228,-7.0428,-7.089,-7.0921,-7.0982,-7.1013,-7.1044,-7.1105,-7.1136,-7.1136,-7.1136,-7.1136,-7.1136,-7.1136,-7.1075,-7.1013,-7.1013,-7.0952,-7.089,-7.089,-7.089,-7.089,-7.089,-7.089,-7.089,-7.089,-7.089,-7.089,-7.089,-7.089,-7.0952,-7.1105,-7.1075,-7.1285,-7.1883,-7.1971,-7.2144,-7.2754,-7.2306,-7.1895,-7.1832,-7.1263,-7.0852,-7.0789,-7.0925,-7.1337,-7.2197,-7.3445,-7.4521,-7.5383,-7.6565,-7.7223,-7.7223,-7.7223,-7.7223,-7.7223,-7.7223,-7.7223,-7.7223,-7.7223,-7.7223,-6.4262,-6.508,-6.5319,-6.5319,-6.5103,-6.4888,-6.4888,-6.4888,-6.4888,-6.4888,0.0,0.0,0.0,0.0,0.0,0.0,-6.5072,-6.5011,0.0,0.0,-6.4888,-6.4888,0.0,0.0,-6.4888,-6.4888,-6.5011,-6.5288,-6.5319,-6.5626,-6.6304,-6.6611,-6.6919,-6.7319,-6.7997,-6.8335,-6.8335,-6.8705,-6.8889,-6.8889,-6.8889,-6.8889,-6.8889,-6.8889,-6.8889,-6.8889,-6.8889,-6.8889,-6.8889,-6.8889,-6.8889,-6.8951,-6.9505,-6.972,-6.9782,-7.0182,-7.0305,-7.0367,-7.0767,-7.089,-7.089,-7.089,-7.089,-7.089,-7.089,-7.0644,-7.0305,-7.0305,-7.0028,-6.972,-6.972,-6.972,-6.972,-6.972,-6.972,-6.972,-6.972,-6.972,-6.972,-6.972,-6.972,-6.972,-6.972,-7.0238,-7.0754,-7.1226,-7.1116,-7.1096,-7.1585,-7.1389,-7.1231,-7.1231,-7.0947,-7.0789,-7.0789,-7.1392,-7.1928,-7.2379,-7.3972,-7.5383,-7.6485,-7.6964,-7.7223,-7.7223,-7.7223,-7.7223,-7.7223,-7.7223,-7.7223,-7.7223,-7.7223,-7.7223,-6.3732,-6.4635,-6.4888,-6.4888,-6.4888,-6.4888,-6.4888,-6.4888,-6.4888,-6.4888,-6.4888,0.0,0.0,0.0,-6.4949,-6.5134,0.0,-6.4949,-6.5165,-6.5011,-6.4888,-6.4888,-6.4888,0.0,0.0,-6.4888,-6.4888,-6.4888,-6.4888,-6.5103,-6.5596,-6.5811,-6.6119,-6.6611,-6.7289,-6.772,-6.7935,-6.8397,-6.8705,-6.8889,-6.8889,-6.8889,-6.8889,-6.8889,-6.8889,-6.8889,-6.8889,-6.8889,-6.8889,-6.8889,-6.8889,-6.8889,-6.8889,-6.8889,-6.8951,-6.9443,-6.9628,-6.969,-7.0182,-7.0336,-7.0336,-7.0336,-7.0336,-7.0336,-7.0336,-6.9997,-6.9628,-6.9628,-6.9259,-6.8889,-6.8889,-6.8889,-6.8889,-6.8889,-6.8889,-6.8889,-6.8889,-6.8889,-6.8889,-6.8889,-6.8889,-6.8889,-6.8889,-6.9525,-7.01,-7.0478,-7.0303,-7.0306,-7.0733,-7.0789,-7.0789,-7.0789,-7.0789,-7.0789,-7.0789,-7.1798,-7.2644,-7.3239,-7.5045,-7.6392,-7.7178,-7.7223,-7.7223,-7.7223,-7.7223,-7.7223,-7.7223,-7.7223,-7.7223,-7.7223,-7.7223,-7.7223,-6.261,-6.3902,-6.4888,-6.4888,-6.4888,-6.4888,-6.4888,-6.4888,-6.4888,-6.4888,-6.4888,-6.4888,-6.4888,-6.4888,-6.5103,-6.578,-6.5319,0.0,0.0,-6.5319,-6.4888,-6.4888,-6.4888,-6.4888,0.0,-6.4888,-6.4888,-6.4888,-6.4888,-6.4918,-6.4918,-6.5565,-6.5903,-6.5934,-6.6581,-6.7258,-6.7904,-6.7935,-6.8274,-6.8889,-6.8889,-6.8889,-6.8889,-6.8889,-6.8889,-6.8889,-6.8889,-6.8889,-6.8889,-6.8889,-6.8889,-6.8889,-6.8889,-6.8889,-6.8889,-6.892,-6.892,-6.892,-6.8951,-6.8951,-6.8951,-6.8951,-6.8951,-6.8951,-6.8951,-6.8951,-6.892,-6.892,-6.8889,-6.8889,-6.8889,-6.8889,-6.8889,-6.8889,-6.8889,-6.8889,-6.8889,-6.8889,-6.8889,-6.8889,-6.8889,-6.8889,-6.8889,-6.8889,-6.9154,-6.9703,-6.9818,-7.0047,-7.0733,-7.0789,-7.0789,-7.0789,-7.0789,-7.0789,-7.0789,-7.1798,-7.329,-7.5383,-7.6565,-7.7178,-7.7223,-7.7223,-7.7223,-7.7223,-7.7223,-7.7223,-7.7223,-7.7223,-7.7223,-7.7223,-7.7223,-7.7223,-6.3676,-6.4524,-6.4888,-6.4888,-6.4888,-6.4888,-6.4888,-6.4888,-6.4888,-6.4888,-6.4888,-6.4888,-6.4888,-6.4888,-6.498,-6.5195,-6.5042,-6.498,0.0,-6.5042,-6.4888,-6.4888,-6.4888,-6.4888,-6.4888,0.0,0.0,-6.4888,-6.4888,-6.4888,-6.4888,-6.5103,-6.5226,-6.5226,-6.5903,-6.6365,-6.6581,-6.7042,-6.7596,-6.8243,-6.8243,-6.8458,-6.8889,-6.8889,-6.8889,-6.8889,-6.8889,-6.8889,-6.8889,-6.8889,-6.8889,-6.8889,-6.8889,-6.8889,-6.8889,-6.8889,-6.8889,-6.8889,-6.8889,-6.8889,-6.8889,-6.8889,-6.8889,-6.8889,-6.8889,-6.8889,-6.8889,-6.8889,-6.8889,-6.8889,-6.8889,-6.8889,-6.8889,-6.8889,-6.8889,-6.8889,-6.8889,-6.8889,-6.8889,-6.8889,-6.8889,-6.8889,-6.8889,-6.8889,-6.9065,-6.9472,-6.9875,-7.0218,-7.0419,-7.0645,-7.0789,-7.0789,-7.0789,-7.1092,-7.1798,-7.3464,-7.5142,-7.6565,-7.7009,-7.7223,-7.7223,-7.7223,-7.7223,-7.7223,-7.7223,-7.7223,-7.7223,-7.7223,-7.7223,-7.7223,-7.7223,-7.7223,-6.3732,-6.4524,0.0,-6.4888,-6.4888,-6.4888,-6.4888,-6.4888,-6.4888,-6.4888,-6.4888,-6.4888,-6.4888,-6.4888,-6.4888,-6.4888,-6.4888,-6.4888,0.0,-6.4888,-6.4888,-6.4888,-6.4888,-6.4888,-6.4888,-6.4888,-6.4888,-6.4888,-6.4888,-6.4888,-6.4888,-6.4888,-6.4888,-6.4888,-6.5319,-6.5657,-6.5903,-6.6334,-6.6888,-6.7566,-6.7566,-6.7904,-6.8551,-6.8551,-6.8674,-6.8889,-6.8889,-6.8889,-6.8889,-6.8889,-6.8889,-6.8889,-6.8889,-6.8889,-6.8889,-6.8889,-6.8889,-6.8889,-6.8889,-6.8889,-6.8889,-6.8889,-6.8889,-6.8889,-6.8889,-6.8889,-6.8828,-6.8612,-6.8705,-6.8828,-6.8612,-6.8705,-6.8889,-6.8889,-6.8889,-6.8889,-6.8889,-6.8889,-6.8889,-6.8889,-6.8889,-6.8889,-6.8889,-6.8889,-6.9006,-6.9387,-6.9818,-7.0161,-7.0275,-7.0589,-7.0789,-7.0789,-7.0789,-7.1392,-7.2854,-7.4223,-7.5622,-7.7133,-7.7223,-7.7223,-7.7223,-7.7223,-7.7361,-7.7637,-7.7361,-7.7361,-7.7637,-7.7361,-7.7223,-7.7223,-7.7223,-7.7223]},{"header":{"parameterUnit":"m.s-1","parameterCategory":1,"la1":30.6,"la2":29.2853,"lo1":-89.7004,"lo2":-87.6739,"dy":0.0162,"dx":0.0183,"nx":112,"ny":82,"refTime":"2023-03-08T18:00:00:Z","depth":0,"parameterNumber":3,"parameterNumberName":"V-component_of_WINDS"},"data":[0.0,0.0,0.0,0.0,0.0,0.0,0.0,0.0,0.0,0.0,0.0,0.0,0.0,0.0,0.0,0.0,0.0,0.0,0.0,0.0,0.0,0.0,0.0,0.0,0.0,0.0,0.0,0.0,0.0,0.0,0.0,0.0,0.0,0.0,0.0,0.0,0.0,0.0,0.0,0.0,0.0,0.0,0.0,0.0,0.0,0.0,0.0,0.0,0.0,0.0,0.0,0.0,0.0,0.0,0.0,0.0,0.0,0.0,0.0,0.0,0.0,0.0,0.0,0.0,0.0,0.0,0.0,0.0,0.0,0.0,0.0,0.0,0.0,0.0,0.0,0.0,0.0,0.0,0.0,0.0,0.0,0.0,0.0,0.0,0.0,0.0,0.0,0.0,0.0,0.0,-4.2307,-4.2362,-4.2362,-4.2399,-4.2454,-4.2399,-4.2546,-4.2931,0.0,0.0,0.0,0.0,0.0,0.0,0.0,0.0,0.0,0.0,0.0,0.0,0.0,0.0,0.0,0.0,0.0,0.0,0.0,0.0,0.0,0.0,0.0,0.0,0.0,0.0,0.0,0.0,0.0,0.0,0.0,0.0,0.0,0.0,0.0,0.0,0.0,0.0,0.0,0.0,0.0,0.0,0.0,0.0,0.0,0.0,0.0,0.0,0.0,0.0,0.0,0.0,0.0,0.0,0.0,0.0,0.0,0.0,0.0,0.0,0.0,0.0,0.0,0.0,0.0,0.0,0.0,0.0,0.0,0.0,0.0,0.0,0.0,0.0,0.0,0.0,0.0,0.0,0.0,0.0,0.0,0.0,0.0,0.0,0.0,0.0,0.0,0.0,0.0,0.0,0.0,0.0,0.0,0.0,0.0,0.0,0.0,0.0,0.0,0.0,0.0,0.0,0.0,0.0,-4.2399,-4.2747,-4.2784,-4.2931,-4.3279,-4.2986,-4.2949,-4.3371,0.0,0.0,0.0,0.0,0.0,0.0,0.0,0.0,0.0,0.0,0.0,0.0,0.0,0.0,0.0,0.0,0.0,0.0,0.0,0.0,0.0,0.0,0.0,0.0,0.0,0.0,0.0,0.0,0.0,0.0,0.0,0.0,0.0,0.0,0.0,0.0,0.0,0.0,0.0,0.0,0.0,0.0,0.0,0.0,0.0,0.0,0.0,0.0,0.0,0.0,0.0,0.0,0.0,0.0,0.0,0.0,0.0,0.0,0.0,0.0,0.0,0.0,0.0,0.0,0.0,0.0,0.0,0.0,0.0,0.0,0.0,0.0,0.0,0.0,0.0,0.0,0.0,0.0,0.0,0.0,0.0,0.0,0.0,0.0,0.0,0.0,0.0,0.0,0.0,0.0,0.0,0.0,0.0,0.0,0.0,0.0,0.0,0.0,0.0,0.0,0.0,0.0,0.0,-4.3019,-4.3004,-4.3188,-4.3206,-4.3279,-4.3481,-4.3316,-4.3298,-4.3481,-4.3151,0.0,0.0,0.0,0.0,0.0,0.0,0.0,0.0,0.0,0.0,0.0,0.0,0.0,0.0,0.0,0.0,0.0,0.0,0.0,0.0,0.0,0.0,0.0,0.0,0.0,0.0,0.0,0.0,0.0,0.0,0.0,0.0,0.0,0.0,0.0,0.0,0.0,0.0,0.0,0.0,0.0,0.0,0.0,0.0,0.0,0.0,0.0,0.0,0.0,0.0,0.0,0.0,0.0,0.0,0.0,0.0,0.0,0.0,0.0,0.0,0.0,0.0,0.0,0.0,0.0,0.0,0.0,0.0,0.0,0.0,0.0,0.0,0.0,0.0,0.0,0.0,0.0,0.0,0.0,0.0,0.0,0.0,0.0,0.0,0.0,0.0,0.0,0.0,0.0,0.0,0.0,0.0,0.0,0.0,0.0,0.0,0.0,0.0,0.0,0.0,0.0,0.0,-4.3499,-4.3499,-4.3499,-4.3499,-4.3499,-4.3499,-4.3499,-4.3499,-4.3499,-4.3499,0.0,0.0,0.0,0.0,0.0,0.0,0.0,0.0,0.0,0.0,0.0,0.0,0.0,0.0,0.0,0.0,0.0,0.0,0.0,0.0,0.0,0.0,0.0,0.0,0.0,0.0,0.0,0.0,0.0,0.0,0.0,0.0,0.0,0.0,0.0,0.0,0.0,0.0,0.0,0.0,0.0,0.0,0.0,0.0,0.0,0.0,0.0,0.0,0.0,0.0,0.0,0.0,0.0,0.0,0.0,0.0,0.0,0.0,0.0,0.0,0.0,0.0,0.0,0.0,0.0,0.0,0.0,0.0,0.0,0.0,0.0,0.0,0.0,0.0,0.0,0.0,0.0,0.0,0.0,0.0,0.0,0.0,0.0,0.0,0.0,0.0,0.0,0.0,0.0,0.0,0.0,0.0,0.0,0.0,0.0,0.0,0.0,0.0,0.0,0.0,0.0,0.0,-4.3499,-4.3499,-4.3499,-4.3499,-4.3499,-4.3499,-4.3499,-4.3499,-4.3499,-4.3499,0.0,0.0,0.0,0.0,0.0,0.0,0.0,0.0,0.0,0.0,0.0,0.0,0.0,0.0,0.0,0.0,0.0,0.0,0.0,0.0,0.0,0.0,0.0,0.0,0.0,0.0,0.0,0.0,0.0,0.0,0.0,0.0,0.0,0.0,0.0,0.0,0.0,0.0,0.0,0.0,0.0,0.0,0.0,0.0,0.0,0.0,0.0,0.0,0.0,0.0,0.0,0.0,0.0,0.0,0.0,0.0,0.0,0.0,0.0,0.0,0.0,0.0,0.0,0.0,0.0,0.0,0.0,0.0,0.0,0.0,0.0,0.0,0.0,0.0,0.0,0.0,0.0,0.0,0.0,0.0,0.0,0.0,0.0,0.0,0.0,0.0,0.0,0.0,0.0,0.0,0.0,0.0,0.0,0.0,0.0,0.0,0.0,0.0,0.0,0.0,0.0,0.0,-4.3499,-4.3499,-4.3499,-4.3499,-4.3499,-4.3499,-4.3499,-4.3499,-4.3499,0.0,0.0,0.0,0.0,0.0,0.0,0.0,0.0,0.0,0.0,0.0,0.0,0.0,0.0,0.0,0.0,0.0,0.0,0.0,0.0,0.0,0.0,0.0,0.0,0.0,0.0,0.0,0.0,0.0,0.0,0.0,0.0,0.0,0.0,0.0,0.0,0.0,0.0,0.0,0.0,0.0,0.0,0.0,0.0,0.0,0.0,0.0,0.0,0.0,0.0,0.0,0.0,0.0,0.0,0.0,0.0,0.0,0.0,0.0,0.0,0.0,0.0,0.0,0.0,0.0,0.0,0.0,0.0,0.0,0.0,0.0,0.0,0.0,0.0,0.0,0.0,0.0,0.0,0.0,0.0,0.0,0.0,0.0,0.0,0.0,0.0,0.0,0.0,0.0,0.0,0.0,0.0,0.0,0.0,0.0,0.0,0.0,0.0,0.0,0.0,0.0,0.0,-4.3499,-4.3499,-4.3499,-4.3499,-4.3499,-4.3499,-4.3499,-4.3499,-4.3499,-4.3499,0.0,0.0,0.0,0.0,0.0,0.0,0.0,0.0,0.0,0.0,0.0,0.0,0.0,0.0,0.0,0.0,0.0,0.0,0.0,0.0,0.0,0.0,0.0,0.0,0.0,0.0,0.0,0.0,0.0,0.0,0.0,0.0,0.0,0.0,0.0,0.0,0.0,0.0,0.0,0.0,0.0,0.0,0.0,0.0,0.0,0.0,0.0,0.0,0.0,0.0,0.0,0.0,0.0,0.0,0.0,0.0,0.0,0.0,0.0,0.0,0.0,0.0,0.0,0.0,0.0,0.0,0.0,0.0,0.0,0.0,0.0,0.0,0.0,0.0,0.0,0.0,0.0,0.0,0.0,0.0,0.0,0.0,0.0,0.0,0.0,0.0,0.0,0.0,0.0,0.0,0.0,0.0,0.0,0.0,0.0,0.0,0.0,0.0,0.0,0.0,0.0,0.0,-4.3589,-4.3499,-4.3499,-4.3499,-4.3499,-4.3499,-4.3499,-4.3499,-4.3499,0.0,0.0,0.0,0.0,0.0,0.0,0.0,0.0,0.0,0.0,0.0,0.0,0.0,0.0,0.0,0.0,0.0,0.0,0.0,0.0,0.0,0.0,0.0,0.0,0.0,0.0,0.0,0.0,0.0,0.0,0.0,0.0,0.0,0.0,0.0,0.0,0.0,0.0,0.0,0.0,0.0,0.0,0.0,0.0,0.0,0.0,0.0,0.0,0.0,0.0,0.0,0.0,0.0,0.0,0.0,0.0,0.0,0.0,0.0,0.0,0.0,0.0,0.0,0.0,0.0,0.0,0.0,0.0,0.0,0.0,0.0,0.0,0.0,0.0,0.0,0.0,0.0,0.0,0.0,0.0,0.0,0.0,0.0,0.0,0.0,0.0,0.0,0.0,0.0,0.0,0.0,0.0,0.0,0.0,0.0,0.0,0.0,0.0,0.0,0.0,0.0,0.0,0.0,-4.3589,-4.3499,-4.3499,-4.3499,-4.3499,-4.3499,-4.3499,-4.3499,-4.3499,-4.3499,0.0,0.0,0.0,0.0,0.0,0.0,0.0,0.0,0.0,0.0,0.0,0.0,0.0,0.0,0.0,0.0,0.0,0.0,0.0,0.0,0.0,0.0,0.0,0.0,0.0,0.0,0.0,0.0,0.0,0.0,0.0,0.0,0.0,0.0,0.0,0.0,0.0,0.0,0.0,0.0,0.0,0.0,0.0,0.0,0.0,0.0,0.0,0.0,0.0,0.0,0.0,0.0,0.0,0.0,0.0,0.0,0.0,0.0,0.0,0.0,0.0,0.0,0.0,0.0,0.0,0.0,0.0,0.0,0.0,0.0,0.0,0.0,0.0,0.0,0.0,0.0,0.0,0.0,0.0,0.0,0.0,0.0,0.0,0.0,0.0,0.0,0.0,0.0,0.0,0.0,0.0,0.0,0.0,0.0,0.0,0.0,0.0,0.0,0.0,0.0,0.0,0.0,-4.3589,-4.3499,-4.3499,-4.3499,-4.3499,-4.3499,-4.3499,-4.3499,-4.3499,-4.3499,0.0,0.0,0.0,0.0,0.0,0.0,0.0,0.0,0.0,0.0,0.0,0.0,0.0,0.0,0.0,0.0,0.0,0.0,0.0,0.0,0.0,0.0,0.0,0.0,0.0,0.0,0.0,0.0,0.0,0.0,0.0,0.0,0.0,0.0,0.0,0.0,0.0,0.0,0.0,0.0,0.0,0.0,0.0,0.0,0.0,0.0,0.0,0.0,0.0,0.0,0.0,0.0,0.0,0.0,0.0,0.0,0.0,0.0,0.0,0.0,0.0,0.0,0.0,0.0,0.0,0.0,0.0,0.0,0.0,0.0,0.0,0.0,0.0,0.0,0.0,0.0,0.0,0.0,0.0,0.0,0.0,0.0,0.0,0.0,0.0,0.0,0.0,0.0,0.0,0.0,0.0,0.0,0.0,0.0,0.0,0.0,0.0,0.0,0.0,0.0,0.0,0.0,-4.3837,-4.3748,-4.3748,-4.3748,-4.357,-4.3499,-4.3499,-4.3499,-4.3499,-4.3499,0.0,0.0,0.0,0.0,0.0,0.0,0.0,0.0,0.0,0.0,0.0,0.0,0.0,0.0,0.0,0.0,0.0,0.0,0.0,0.0,0.0,0.0,0.0,0.0,0.0,0.0,0.0,0.0,0.0,0.0,0.0,0.0,0.0,0.0,0.0,0.0,0.0,0.0,0.0,0.0,0.0,0.0,0.0,0.0,0.0,0.0,0.0,0.0,0.0,0.0,0.0,0.0,0.0,0.0,0.0,0.0,0.0,0.0,0.0,0.0,-4.4442,-4.4851,0.0,0.0,0.0,0.0,0.0,0.0,0.0,0.0,0.0,0.0,0.0,0.0,0.0,0.0,0.0,0.0,0.0,0.0,0.0,0.0,0.0,0.0,0.0,0.0,0.0,0.0,0.0,0.0,0.0,0.0,0.0,0.0,0.0,0.0,0.0,0.0,0.0,0.0,0.0,0.0,-4.5686,-4.5598,-4.5598,-4.5598,-4.4333,-4.3499,-4.3499,-4.3499,-4.3499,-4.3499,-4.3499,0.0,0.0,0.0,0.0,0.0,0.0,0.0,0.0,0.0,0.0,0.0,0.0,0.0,0.0,0.0,0.0,0.0,0.0,0.0,0.0,0.0,0.0,0.0,0.0,0.0,0.0,0.0,0.0,0.0,0.0,0.0,0.0,0.0,0.0,0.0,0.0,0.0,0.0,0.0,0.0,0.0,0.0,0.0,0.0,0.0,0.0,0.0,0.0,0.0,0.0,0.0,0.0,0.0,0.0,0.0,0.0,0.0,0.0,0.0,-4.397,-4.4281,0.0,0.0,0.0,0.0,0.0,0.0,0.0,0.0,0.0,0.0,0.0,0.0,0.0,0.0,0.0,0.0,0.0,0.0,0.0,0.0,0.0,0.0,0.0,0.0,0.0,0.0,0.0,0.0,0.0,0.0,0.0,0.0,0.0,0.0,0.0,0.0,0.0,0.0,0.0,0.0,-4.7494,-4.756,-4.7215,-4.6279,-4.5354,-4.4422,-4.357,-4.3499,-4.3499,-4.3499,-4.3499,0.0,0.0,0.0,0.0,0.0,0.0,0.0,0.0,0.0,0.0,0.0,0.0,0.0,0.0,0.0,0.0,0.0,0.0,0.0,0.0,0.0,0.0,0.0,0.0,0.0,0.0,0.0,0.0,0.0,0.0,0.0,0.0,0.0,0.0,0.0,0.0,0.0,0.0,0.0,0.0,0.0,0.0,0.0,0.0,0.0,0.0,0.0,0.0,0.0,0.0,0.0,0.0,0.0,-4.3499,-4.3499,-4.3499,-4.3573,-4.3591,-4.3609,-4.3664,-4.397,-4.4346,-4.4845,0.0,0.0,0.0,0.0,0.0,0.0,0.0,0.0,0.0,0.0,0.0,0.0,0.0,0.0,0.0,0.0,0.0,0.0,0.0,0.0,0.0,0.0,-5.6682,-5.5207,-5.5592,-5.567,-5.3241,0.0,0.0,0.0,0.0,0.0,0.0,0.0,0.0,0.0,0.0,0.0,-4.9191,-4.9211,-4.8421,-4.6888,-4.6104,-4.509,-4.3678,-4.3499,-4.3499,-4.3499,-4.3499,-4.3499,0.0,0.0,0.0,0.0,0.0,0.0,0.0,0.0,0.0,0.0,0.0,0.0,0.0,0.0,0.0,0.0,0.0,0.0,0.0,0.0,0.0,0.0,0.0,0.0,0.0,0.0,0.0,0.0,0.0,0.0,0.0,0.0,-5.0864,-5.1345,0.0,0.0,0.0,0.0,0.0,0.0,0.0,0.0,0.0,0.0,0.0,0.0,0.0,-4.6023,-4.2945,-4.4824,-4.5052,-4.3499,-4.3499,-4.3499,-4.3499,-4.3848,-4.3995,-4.4031,-4.4361,0.0,-4.4727,-4.5519,0.0,0.0,0.0,0.0,0.0,0.0,0.0,0.0,0.0,0.0,0.0,0.0,0.0,0.0,0.0,0.0,0.0,0.0,0.0,0.0,0.0,0.0,-5.8938,-5.8772,-5.845,-5.8007,-5.7166,-5.4244,-5.1761,-5.1601,-5.1179,-5.0696,0.0,0.0,0.0,0.0,0.0,0.0,-5.1157,-4.9977,-4.8955,-4.8699,-4.5793,-4.3748,-4.3499,-4.3499,-4.3499,-4.3499,-4.3499,-4.3499,-4.3499,-4.3499,0.0,0.0,0.0,0.0,0.0,0.0,0.0,0.0,0.0,0.0,0.0,0.0,0.0,0.0,0.0,0.0,0.0,0.0,0.0,0.0,0.0,0.0,0.0,0.0,0.0,0.0,0.0,0.0,0.0,-5.096,-5.1225,-5.1465,-5.1754,-5.2139,0.0,0.0,0.0,0.0,0.0,0.0,0.0,0.0,0.0,-4.6481,-4.6937,-4.6331,-4.4805,-4.475,-4.4263,-4.3499,-4.3499,-4.3609,-4.3829,-4.3995,-4.4196,-4.4435,-4.4856,-4.5021,-4.504,-4.5409,-4.5686,-4.5945,0.0,0.0,0.0,0.0,-4.9982,-5.0621,-5.3902,-5.5137,-5.5224,-5.5049,0.0,0.0,0.0,0.0,0.0,0.0,0.0,-5.9919,-6.0171,-6.0003,-5.9762,-5.945,-5.9044,-5.8471,-5.7682,-5.5729,-5.4138,-5.4298,-5.3116,-5.2099,-5.2099,-5.04,0.0,0.0,0.0,-5.1431,-5.3056,-5.2536,-5.1682,-5.0653,-4.9041,-4.7255,-4.5178,-4.5021,-4.4599,-4.3589,-4.3499,-4.3499,-4.3499,-4.3499,-4.3499,0.0,0.0,0.0,0.0,0.0,0.0,0.0,0.0,0.0,0.0,0.0,0.0,0.0,0.0,0.0,0.0,0.0,0.0,0.0,0.0,0.0,0.0,0.0,0.0,0.0,0.0,0.0,0.0,-5.1369,-5.1754,-5.1874,-5.2235,-5.2692,0.0,0.0,0.0,0.0,0.0,0.0,-5.0596,-4.9579,-4.9028,-4.8945,-4.8516,-4.7647,-4.6191,-4.5354,-4.4497,-4.3646,-4.3646,-4.3848,-4.4233,-4.4343,-4.4563,-4.4856,-4.5278,-4.5443,-4.5443,-4.5443,-4.5443,-4.548,-4.5773,-4.6447,-4.7438,-4.9596,-5.058,-5.1486,-5.5532,-5.6773,-5.6664,-5.649,-5.701,-5.7355,-5.5487,0.0,0.0,0.0,0.0,-5.9642,-5.9667,-5.9643,-5.95,-5.8974,-5.8605,-5.8094,-5.7193,-5.6409,-5.5917,-5.6155,-5.4777,-5.3528,-5.3528,-5.1743,0.0,-5.2619,-5.2204,-5.237,-5.4148,-5.3984,-5.3221,-5.1849,-5.0821,-4.9361,-4.7148,-4.6036,-4.509,-4.4263,-4.3748,-4.3499,-4.3499,-4.3499,-4.3499,-4.3499,0.0,0.0,0.0,0.0,0.0,0.0,0.0,0.0,0.0,0.0,0.0,0.0,0.0,0.0,0.0,0.0,0.0,0.0,0.0,0.0,0.0,0.0,0.0,0.0,0.0,0.0,0.0,0.0,0.0,-5.2932,-5.3004,0.0,0.0,0.0,0.0,-5.3856,-5.1604,-5.1198,-5.3306,-5.1863,-5.0878,-5.0796,-5.2869,-5.1492,-4.6279,-4.7926,-4.7193,-4.405,-4.405,-4.4251,-4.4655,-4.5058,-4.5242,-4.5297,-4.5682,-4.5865,-4.5865,-4.5865,-4.5865,-4.5865,-4.5883,-4.7065,-4.9065,-5.1806,-5.3682,-5.5334,-5.8321,-5.9073,-5.8562,-5.8134,-5.8306,-5.8903,-5.9666,-5.9327,0.0,0.0,-5.8879,-5.8189,-5.8207,-5.8173,-5.8032,-5.7514,-5.7396,-5.7255,-5.6632,-5.6163,-5.5836,-5.5809,-5.5287,-5.4986,-5.4986,0.0,-5.2658,-5.4066,-5.2785,-5.237,-5.4148,-5.2868,-5.1765,-5.1682,-4.8592,-4.7148,-4.8699,-4.5637,-4.4333,-4.5929,-4.4422,-4.3499,-4.3499,-4.3499,-4.3499,-4.3499,-4.3499,0.0,0.0,0.0,0.0,0.0,0.0,0.0,0.0,0.0,0.0,0.0,0.0,0.0,0.0,0.0,0.0,0.0,0.0,0.0,0.0,0.0,0.0,0.0,0.0,0.0,0.0,0.0,0.0,-5.3053,-5.3365,0.0,-5.3798,-5.3984,-5.4119,-5.4004,-5.3505,-5.3495,-5.4022,-5.3518,-5.3197,-5.3115,-5.2861,-5.1765,-4.9786,-4.8296,-4.7666,-4.765,-4.6792,-4.723,-4.8812,-4.765,-4.7955,-4.9287,-4.6915,-4.7345,-4.9413,-4.6878,-4.5883,-4.5978,-4.7251,-4.8162,-4.9229,-5.2745,-5.4366,-5.5181,-5.7424,-5.8477,-5.8794,-5.8964,-5.8903,-5.8841,-5.8818,-5.8413,-5.7901,-5.8132,-5.8066,-5.7951,-5.8011,-5.8213,-5.8259,-5.7407,-5.7043,-5.655,-5.5789,-5.5265,-5.495,-5.4847,-5.4742,-5.4742,-5.5067,-5.4311,-5.3797,-5.4311,-5.382,-5.3633,-5.4334,-5.382,-5.3468,-5.3468,-5.2265,-5.0821,-4.9126,-4.887,-4.8012,-4.6279,-4.5598,-4.5266,-4.5266,-4.4086,-4.3371,-4.3096,-4.3096,-4.2968,0.0,0.0,0.0,0.0,0.0,0.0,0.0,0.0,0.0,0.0,0.0,0.0,0.0,0.0,0.0,0.0,0.0,0.0,0.0,0.0,0.0,0.0,0.0,0.0,0.0,-5.298,-5.3317,-5.3317,-5.3606,-5.3894,-5.4063,-5.4399,-5.4607,-5.4503,-5.4776,-5.477,-5.4556,-5.4476,-5.4416,-5.4416,-5.3221,-5.2353,-5.1922,-4.9732,-4.9174,-5.0202,-4.9255,-4.964,-5.1253,-4.9994,-5.0226,-5.1597,-4.8973,-4.9341,-5.1507,-4.8881,-4.7883,-4.7883,-4.8512,-4.9688,-5.1306,-5.4013,-5.5444,-5.6188,-5.7274,-5.7963,-5.843,-5.8861,-5.8729,-5.8281,-5.8094,-5.7705,-5.7364,-5.7364,-5.7442,-5.7385,-5.722,-5.7337,-5.7219,-5.6455,-5.5987,-5.5649,-5.4974,-5.4661,-5.4416,-5.4416,-5.4416,-5.4498,-5.4824,-5.4579,-5.4416,-5.4416,-5.4416,-5.4416,-5.4416,-5.4416,-5.4416,-5.4416,-5.382,-5.2785,-5.0989,-5.0231,-4.9361,-4.8163,-4.6298,-4.5598,-4.6191,-4.4422,-4.3371,-4.3078,-4.2931,-4.2674,-4.2271,0.0,0.0,0.0,0.0,0.0,0.0,0.0,0.0,0.0,0.0,0.0,0.0,0.0,0.0,0.0,0.0,0.0,0.0,0.0,0.0,0.0,0.0,0.0,-5.3101,-5.351,-5.3822,-5.3846,-5.3846,-5.4039,-5.4592,-5.464,-5.4919,-5.5581,-5.5177,-5.5014,-5.5125,-5.4661,-5.4416,-5.4416,-5.4439,-5.3822,-5.2487,-5.2446,-5.2046,-5.1292,-5.1203,-5.1453,-5.1868,-5.1778,-5.1868,-5.1868,-5.1778,-5.1778,-5.1868,-5.1778,-5.1778,-5.1778,-4.9779,-5.1486,-5.5247,-5.5772,-5.7096,-5.8624,-5.8282,-5.7854,-5.7527,-5.7907,-5.7743,-5.7504,-5.7739,-5.7597,-5.7266,-5.7266,-5.6911,-5.6438,-5.595,-5.5504,-5.5059,-5.4531,-5.4416,-5.4439,-5.4439,-5.4439,-5.4462,-5.4462,-5.4462,-5.4439,-5.4416,-5.4416,-5.4416,-5.4416,-5.4416,0.0,-5.4416,-5.4416,-5.4416,-5.4416,-5.2785,-5.2453,-5.4148,-4.9531,-4.7905,-5.1431,-4.6647,-4.451,-4.6191,-4.451,-4.357,-4.3481,-4.3041,-4.2637,-4.2252,0.0,0.0,0.0,0.0,0.0,0.0,0.0,0.0,0.0,0.0,0.0,0.0,0.0,0.0,0.0,0.0,0.0,0.0,0.0,0.0,0.0,-5.3606,-5.3606,-5.3606,-5.3726,-5.3966,-5.4351,-5.4399,-5.4592,-5.5121,-5.5554,-5.5734,-5.5628,-5.5508,-5.5389,-5.5149,-5.4661,-5.4416,-5.4416,-5.4783,-5.4811,-5.4425,-5.3786,-5.4014,-5.5188,-5.4128,-5.4456,-5.5839,-5.4498,-5.4587,-5.5751,-5.2945,-5.348,-5.6165,-5.3369,-5.408,-5.66,-5.4013,-5.3768,-5.4917,-5.6449,-5.7108,-5.7322,-5.7808,-5.7743,-5.7439,-5.7774,-5.7893,-5.7704,-5.7147,-5.6594,-5.6149,-5.5818,-5.5623,-5.5462,-5.5323,-5.5439,-5.5474,-5.5009,-5.5183,-5.5297,-5.5072,-5.5265,-5.5518,-5.5518,-5.5518,-5.5288,-5.4531,-5.4416,-5.4416,-5.4416,-5.4416,-5.4416,-5.4416,-5.4416,-5.4416,-5.4416,-5.3984,-5.3303,-5.2536,-5.2265,-5.1492,-4.9807,-4.9552,-4.9126,-4.8249,-4.6473,-4.4693,-4.3129,-4.2362,-4.1959,0.0,0.0,0.0,0.0,0.0,0.0,0.0,0.0,0.0,0.0,0.0,0.0,0.0,0.0,0.0,0.0,0.0,0.0,0.0,0.0,0.0,0.0,-5.3822,-5.3894,-5.4111,-5.4159,-5.4255,-5.4568,-5.4808,-5.5145,-5.5698,-5.6035,-5.6166,-5.5985,-5.5768,-5.553,-5.5149,-5.4868,-5.4737,-5.4737,-5.5243,-5.561,-5.5839,-5.5325,-5.5708,-5.701,-5.6249,-5.6384,-5.747,-5.6297,-5.6384,-5.7383,-5.5115,-5.5554,-5.7705,-5.5466,-5.5943,0.0,0.0,0.0,0.0,0.0,-5.7635,-5.7294,-5.7773,-5.7668,-5.7219,-5.7255,-5.7184,-5.689,-5.6185,-5.5765,-5.545,-5.5204,-5.5299,-5.5393,-5.5393,-5.5637,-5.5777,-5.5718,-5.5785,-5.5828,-5.5768,-5.5808,-5.5931,-5.5931,-5.5931,0.0,-5.5151,-5.5059,-5.5059,-5.5059,-5.5059,-5.5059,-5.5059,-5.4875,-5.4737,-5.4737,-5.4531,-5.3984,-5.2951,-5.3138,0.0,0.0,0.0,-4.9701,-4.7905,-4.6801,0.0,0.0,0.0,-4.2014,-4.1684,-4.1445,0.0,0.0,-4.1317,-4.117,0.0,0.0,0.0,0.0,0.0,0.0,0.0,0.0,0.0,0.0,0.0,0.0,0.0,0.0,0.0,0.0,-5.3822,-5.3991,-5.4544,-5.4664,-5.4712,-5.4784,-5.5193,-5.5698,-5.6275,-5.6323,-5.6279,-5.6358,-5.5956,-5.5553,-5.5242,-5.5191,0.0,0.0,0.0,-5.623,-5.6666,-5.6735,-5.701,-5.747,-5.747,-5.747,-5.7556,-5.7556,-5.7556,-5.7642,-5.7642,-5.7642,-5.7728,-5.7659,-5.7592,-5.7321,-5.6324,-5.7004,-5.8462,-5.8341,-5.8068,-5.7668,-5.775,0.0,0.0,-5.6714,-5.6268,-5.5765,-5.5451,-5.5335,-5.5335,-5.523,-5.5497,-5.5927,-5.5927,-5.592,-5.6099,-5.6601,-5.6397,-5.6168,-5.661,-5.6405,-5.6115,-5.6115,-5.6115,-5.6115,-5.6115,-5.6,-5.5931,-5.5931,-5.5931,-5.5931,-5.5931,-5.5564,-5.5288,-5.5288,0.0,0.0,-5.4508,-5.2995,-5.2619,-5.3984,-5.0905,-4.8335,-4.6868,-4.6453,-4.525,-4.3283,-4.307,-4.2527,-4.1831,-4.1776,-4.1537,-4.1134,-4.1079,-4.106,0.0,0.0,0.0,0.0,0.0,0.0,0.0,0.0,0.0,0.0,0.0,0.0,0.0,0.0,0.0,-5.3822,-5.3822,-5.3991,-5.4544,-5.4977,-5.5409,-5.5866,-5.6011,-5.6275,-5.6804,-5.6876,-5.6765,-5.6382,-5.5956,-5.5717,-5.5672,-5.5399,-5.538,-5.5771,-5.6276,-5.6574,-5.6689,-5.7102,-5.7378,-5.747,-5.747,0.0,-5.7963,-5.7963,-5.8158,-5.8586,-5.8586,-5.8733,-5.9111,-5.8624,-5.8379,-5.8259,-5.6917,-5.6894,-5.7384,-5.6708,-5.6345,-5.6244,-5.6655,-5.621,-5.5742,-5.7129,-5.7004,-5.6397,-5.6808,-5.6902,0.0,-5.5966,-5.6036,-5.6462,-5.6462,-5.6448,-5.6601,-5.7017,-5.7178,-5.7144,-5.7228,-5.7214,-5.7171,-5.7171,-5.7171,-5.7171,-5.7171,-5.6482,-5.5931,-5.5931,-5.5931,-5.5931,-5.5931,-5.5839,-5.5794,-5.5794,-5.5357,-5.5059,-5.5059,-5.4317,-5.3386,-5.2265,-5.0231,-4.9467,-5.0568,-4.7819,-4.5978,-4.5551,-4.3796,-4.2784,-4.2637,-4.2326,-4.1959,-4.1555,-4.1225,-4.106,0.0,0.0,0.0,0.0,0.0,0.0,0.0,0.0,0.0,0.0,0.0,-5.3822,-5.3822,0.0,-5.3822,-5.3822,-5.4039,-5.4399,-5.4928,-5.5482,-5.5914,-5.6203,-5.6468,-5.6732,-5.6997,-5.7021,-5.6941,-5.6702,-5.6539,-5.6476,-5.6491,-5.6345,-5.6405,-5.6636,-5.6974,-5.7079,-5.7079,-5.7355,-5.747,-5.747,-5.747,-5.7728,-5.8134,-5.8134,-5.8391,-5.8841,-5.8841,-5.8903,-5.9111,-5.8842,-5.8712,-5.8556,-5.7609,-5.7515,-5.7797,-5.7125,-5.6973,-5.7219,-5.7465,-5.7217,-5.6946,-5.7615,-5.7547,-5.7184,-5.7279,-5.729,-5.7207,-5.6684,-5.6954,-5.7332,-5.7332,-5.7518,-5.779,-5.8294,-5.8254,-5.8188,-5.8418,-5.8119,-5.7814,-5.7814,-5.7642,-5.747,-5.747,-5.7056,-5.6712,-5.6712,-5.6712,-5.6712,-5.6712,-5.6482,-5.6299,-5.6299,-5.5862,-5.5472,-5.5243,-5.4714,-5.3984,-5.3138,-5.2182,-5.1682,-5.1682,-4.902,-4.7148,-4.6191,-4.4215,-4.3078,-4.2858,-4.2674,-4.2362,-4.1977,-4.1776,-4.1445,0.0,0.0,0.0,0.0,0.0,0.0,0.0,-5.3151,-5.3295,-5.3726,-5.3822,-5.3822,-5.3822,-5.3822,-5.3846,-5.3942,-5.4327,-5.4832,-5.5482,-5.5963,-5.6275,-5.6371,-5.6756,-5.7021,-5.7021,-5.7021,-5.7069,-5.7165,-5.7171,-5.7261,-5.737,-5.7345,-5.7414,-5.7422,-5.7435,-5.747,-5.747,-5.747,-5.747,-5.747,-5.7556,-5.7814,-5.822,-5.8306,-5.8647,-5.9097,-5.9097,-5.9026,-5.8908,-5.8879,-5.8807,-5.8664,-5.8176,-5.8328,-5.868,-5.7988,-5.806,-5.842,-5.842,-5.842,-5.8362,-5.8211,-5.807,-5.7928,-5.7632,-5.7655,-5.7655,-5.7405,-5.7794,-5.8207,-5.8122,-5.8343,-5.8733,-5.9243,-5.8988,-5.8733,-5.9158,-5.8562,-5.7963,-5.7963,-5.7728,-5.747,-5.747,-5.747,-5.747,-5.747,-5.747,-5.747,-5.747,-5.7102,-5.6827,-5.6827,-5.6391,-5.5839,-5.5265,-5.4806,-5.4531,-5.4416,-5.3738,-5.3033,-5.2265,-4.9467,-4.7753,-4.7301,-4.5109,-4.383,-4.3565,-4.3565,-4.3116,-4.2399,-4.2399,-4.1996,-5.3316,-5.2377,-5.18,-5.1926,-5.2061,-5.2405,0.0,-5.3416,-5.3726,-5.3798,-5.3822,-5.3822,-5.3822,-5.3822,-5.3966,-5.4447,-5.4568,-5.4952,-5.5987,-5.6203,-5.6419,-5.6876,-5.6973,-5.7021,-5.7021,-5.7021,-5.7213,-5.7694,-5.7386,-5.7407,-5.7891,-5.7551,-5.7407,-5.7464,-5.7533,-5.747,-5.747,-5.747,-5.747,-5.747,-5.79,-5.822,-5.8756,-5.9158,-5.9581,-6.0003,-6.0003,-5.9739,-5.9308,-5.9319,-5.903,-5.8598,-5.855,-5.879,-5.915,-5.7881,-5.7633,-5.801,-5.801,-5.7762,-5.7609,-5.8806,-5.8724,-5.8126,-5.8512,-5.8908,-5.8969,-5.7824,-5.8104,-5.8662,-5.8236,-5.8174,-5.8306,-5.8733,-5.8477,-5.822,-5.822,-5.79,-5.7556,-5.7556,-5.7556,-5.747,-5.747,-5.747,-5.747,-5.747,-5.747,-5.747,-5.747,-5.7424,-5.7401,-5.7401,-5.6919,-5.623,-5.5288,-5.5151,-5.4921,-5.4439,-5.1409,-5.0989,-5.3984,-4.7687,-4.6318,-5.0989,-4.7647,-4.591,-4.5871,-4.5871,-4.4805,-4.2803,-4.2803,-4.2564,-5.2767,-5.205,-5.187,-5.2154,-5.2259,-5.2501,-5.3319,-5.363,-5.3822,-5.3822,-5.3822,-5.3822,-5.3822,-5.3822,-5.3991,-5.452,-5.4856,-5.5337,-5.6131,-5.6492,-5.678,-5.6997,-5.7021,-5.7021,-5.7021,-5.7285,-5.7574,-5.779,-5.8228,-5.8591,-5.8772,-5.8661,-5.8668,-5.8647,-5.8415,-5.8243,-5.8243,-5.8243,-5.8243,-5.8243,-5.8415,-5.8733,-5.9243,-5.9412,-5.975,-6.0171,-6.0171,-6.0051,-5.9834,-5.9834,-5.9714,-5.9522,-5.9522,-5.9642,-5.9786,-5.8843,-5.8843,-5.9248,-5.9248,-5.9082,-5.9046,-5.9344,-5.9248,-5.8874,-5.8856,-5.8903,-5.8988,-5.8415,-5.85,-5.8756,-5.8562,-5.85,-5.8562,-5.8756,-5.8818,-5.8879,-5.8879,-5.8562,-5.8243,-5.822,-5.7814,-5.747,-5.747,-5.747,-5.747,-5.747,-5.747,-5.747,-5.747,-5.747,-5.747,-5.747,-5.701,-5.6391,-5.5679,-5.538,-5.499,-5.4439,-5.2951,-5.237,-5.2785,-4.9892,-4.8356,-4.8507,-4.6955,-4.5686,-4.4599,-4.4599,-4.417,-4.3224,-4.3224,-4.3151,-5.2421,-5.1911,-5.1919,-5.2329,-5.2357,-5.2546,-5.3606,-5.3822,-5.3822,-5.3822,-5.3822,-5.3822,-5.3822,-5.3822,-5.4039,-5.4712,-5.5145,-5.565,-5.6347,-5.678,-5.7021,-5.7021,-5.7021,-5.7069,-5.7237,-5.7598,-5.7935,-5.8223,-5.8945,-5.945,-5.9427,-5.9451,-5.9473,-5.9327,-5.8988,-5.8841,-5.8841,-5.8841,-5.8841,-5.8841,-5.8903,-5.9158,-5.9473,-5.9642,-5.9919,-6.0171,-6.0171,-6.0171,-6.0171,-6.0171,-6.0171,-6.0171,-6.0171,-6.0171,-6.0123,-5.9738,-5.9834,-6.0171,-6.0171,-6.0171,-6.0171,-5.9835,-5.9642,-5.9581,-5.8988,-5.8903,-5.8903,-5.8586,-5.85,-5.8586,-5.85,-5.8415,-5.8415,-5.8415,-5.8733,-5.8988,-5.8988,-5.8647,-5.8477,-5.8624,-5.7963,-5.7556,-5.7642,-5.7556,-5.747,-5.747,-5.747,-5.747,-5.747,-5.747,-5.747,-5.747,-5.7125,-5.6689,-5.6184,-5.5679,-5.5197,-5.4668,-5.397,-5.3303,-5.2453,-5.1514,-5.0146,-4.8507,-4.7474,-4.6298,-4.504,-4.451,-4.3997,-4.3499,-4.3499,-4.3499,-5.2515,-5.2099,-5.1922,-5.259,-5.2526,-5.2517,-5.3555,-5.3822,-5.3822,-5.3822,-5.3822,-5.3822,-5.3822,-5.3822,-5.4159,-5.5193,-5.5385,-5.577,-5.6852,-5.7021,-5.7021,-5.7021,-5.7021,-5.7213,-5.7742,-5.779,-5.8223,-5.9257,-5.9378,-5.9451,-5.951,-5.9473,-5.9327,-5.8841,-5.8841,-5.8841,-5.8841,-5.8841,-5.8841,-5.8841,-5.9243,-5.9473,-5.9473,-6.0003,-6.0171,-6.0171,-6.0171,-6.0171,-6.0171,-6.0171,-6.0171,-6.0171,-6.0171,-6.0171,-6.0171,-6.0147,-6.0171,-6.0171,-6.0171,-6.0171,-6.0171,-6.0171,-6.0171,-6.0003,-5.9073,-5.9158,-5.9243,-5.79,-5.7814,-5.8049,-5.7642,-5.7556,-5.7556,-5.7556,-5.7556,-5.7556,-5.7556,-5.7556,-5.7642,-5.8049,-5.7814,-5.7642,-5.7963,-5.7728,-5.747,-5.747,-5.747,-5.747,-5.747,-5.747,-5.747,-5.747,-5.747,-5.724,-5.6712,-5.6207,-5.5702,-5.522,-5.3053,-5.2536,-5.4252,-5.0905,-5.0653,-5.4066,-5.0737,-4.887,-4.887,-4.6975,-4.5178,-4.3499,-4.3499,-4.3499,-5.2169,-5.2165,-5.2348,-5.2475,-5.2645,-5.2968,-5.3651,-5.3822,-5.3822,-5.3822,-5.3822,-5.3918,-5.4279,-5.4351,-5.4688,-5.577,-5.5963,-5.6203,-5.6925,-5.7021,-5.7021,-5.7021,-5.7333,-5.7742,-5.8271,-5.8319,-5.8632,-5.9329,-5.9714,-5.9895,-5.9979,-6.0003,-5.9919,-5.975,-5.975,-5.975,-5.975,-5.975,-5.975,-5.975,-5.9919,-6.0003,-6.0003,-6.0087,-6.0171,-6.0171,-6.0171,-6.0171,-6.0171,-6.0171,-6.0171,-6.0171,-6.0171,-6.0171,-6.0171,-6.0171,-6.0171,-6.0171,-6.0171,-6.0171,-6.0171,-5.9835,-5.9497,-5.9158,-5.8562,-5.822,-5.8134,-5.7986,-5.7986,-5.8049,-5.79,-5.79,-5.79,-5.79,-5.79,-5.7986,-5.8329,-5.8158,-5.7963,-5.8049,-5.7963,-5.79,-5.7728,-5.7814,-5.7814,-5.7556,-5.747,-5.747,-5.747,-5.747,-5.747,-5.747,-5.747,-5.7263,-5.6735,-5.6528,-5.6092,-5.5265,-5.4433,-5.358,-5.2619,-5.1409,-5.0821,-5.0821,-4.9637,-4.8421,-4.7148,-4.654,-4.5266,-4.3499,-4.3499,-4.3499,-5.203,-5.2171,-5.2521,-5.2357,-5.2716,-5.3237,-5.3675,-5.3822,-5.387,-5.4063,-5.4111,-5.4255,-5.4784,-5.488,-5.5193,-5.6083,-5.6227,-5.6419,-5.6949,-5.7021,-5.7093,-5.7285,-5.7598,-5.8103,-5.88,-5.8872,-5.9113,-5.9642,-5.9979,-6.0171,-6.0171,-6.0171,-6.0171,-6.0171,-6.0171,-6.0171,-6.0171,-6.0171,-6.0171,-6.0171,-6.0171,-6.0171,-6.0171,-6.0171,-6.0171,-6.0171,-6.0171,-6.0171,-6.0171,-6.0171,-6.0171,-6.0171,-6.0171,-6.0171,-6.0171,-6.0171,-6.0171,-6.0171,-6.0171,-6.0171,-6.0171,-5.9835,-5.9581,-5.9243,-5.8733,-5.8391,-5.822,-5.8306,-5.8306,-5.8306,-5.8306,-5.822,-5.8134,-5.8306,-5.8134,-5.8049,-5.8671,-5.8329,-5.7986,-5.8306,-5.8049,-5.7814,-5.7728,-5.7814,-5.7814,-5.7556,-5.747,-5.747,-5.747,-5.747,-5.747,-5.747,-5.747,-5.7332,-5.6987,-5.6781,-5.6322,-5.5518,-5.5311,-5.4448,-5.2725,-5.2702,-5.2099,-5.0905,-4.9637,-4.8335,-4.7128,-4.5861,-4.4687,-4.3499,-4.3499,-4.3499,-5.203,-5.2238,-5.2566,-5.2357,-5.2692,-5.3245,-5.375,-5.387,-5.3991,-5.4496,-5.4616,-5.476,-5.5289,-5.5385,-5.5578,-5.6179,-5.6275,-5.6444,-5.6949,-5.7021,-5.7213,-5.7742,-5.7838,-5.8247,-5.9281,-5.9402,-5.9642,-6.0123,-6.0171,-6.0171,-6.0171,-6.0171,-6.0171,-6.0171,-6.0171,-6.0171,-6.0171,-6.0171,-6.0171,-6.0171,-6.0171,-6.0171,-6.0171,-6.0171,-6.0171,-6.0171,-6.0171,-6.0171,-6.0171,-6.0171,-6.0171,-6.0171,-6.0171,-6.0171,-6.0171,-6.0171,-6.0171,-6.0171,-6.0171,-6.0171,-6.0171,-6.0171,-6.0171,-6.0087,-5.9642,-5.9473,-5.9412,-5.8903,-5.8841,-5.8841,-5.8841,-5.85,-5.8306,-5.8733,-5.8158,-5.7814,-5.8671,-5.8158,-5.7814,-5.8671,-5.8158,-5.7642,-5.8049,-5.7814,-5.747,-5.747,-5.747,-5.747,-5.747,-5.747,-5.747,-5.747,-5.747,-5.747,-5.747,-5.701,-5.6482,-5.5954,-5.5495,-5.499,-5.4439,-5.423,-5.4148,-5.4252,-5.0716,-4.8828,-4.8743,-4.5442,-4.3659,-4.3499,-4.3499,-4.3499,-5.2377,-5.2721,-5.3103,-5.2792,-5.3154,-5.3774,-5.4279,-5.4399,-5.4447,-5.4568,-5.4616,-5.476,-5.5289,-5.5385,-5.5698,-5.666,-5.6828,-5.6852,-5.6997,-5.7021,-5.7213,-5.7742,-5.8151,-5.8656,-5.9329,-5.9738,-6.0027,-6.0171,-6.0171,-6.0171,-6.0171,-6.0171,-6.0171,-6.0171,-6.0171,-6.0171,-6.0171,-6.0171,-6.0171,-6.0171,-6.0171,-6.0171,-6.0171,-6.0171,-6.0171,-6.0171,-6.0171,-6.0171,-6.0171,-6.0171,-6.0171,-6.0171,-6.0171,-6.0171,-6.0171,-6.0171,-6.0171,-6.0171,-6.0171,-6.0171,-6.0171,-6.0171,-6.0003,-5.9666,-5.9558,-5.9243,-5.8988,-5.9243,-5.9327,-5.9327,-5.9327,-5.9243,-5.9134,-5.9304,-5.8903,-5.8671,-5.9243,-5.8903,-5.85,-5.8756,-5.8586,-5.85,-5.8562,-5.8243,-5.7814,-5.7556,-5.747,-5.747,-5.747,-5.747,-5.747,-5.747,-5.747,-5.747,-5.747,-5.7355,-5.6896,-5.5977,-5.5817,-5.5334,-5.4439,-5.1849,-5.0989,-5.2348,-5.0125,-4.8249,-4.6868,-4.7408,-4.623,-4.3499,-4.3499,-4.3499,-5.2515,-5.289,-5.3274,-5.2889,-5.3324,-5.3894,-5.4207,-5.4255,-5.4327,-5.4568,-5.4616,-5.4832,-5.5626,-5.577,-5.6035,-5.6876,-5.7021,-5.7021,-5.7021,-5.7213,-5.7574,-5.8103,-5.8608,-5.9161,-5.969,-6.0003,-6.0171,-6.0171,-6.0171,-6.0171,-6.0171,-6.0171,-6.0171,-6.0171,-6.0171,-6.0171,-6.0171,-6.0171,-6.0171,-6.0171,-6.0171,-6.0171,-6.0171,-6.0171,-6.0171,-6.0171,-6.0171,-6.0171,-6.0171,-6.0171,-6.0171,-6.0171,-6.0171,-6.0171,-6.0171,-6.0171,-6.0171,-6.0171,-6.0171,-6.0171,-6.0171,-6.0171,-6.0003,-5.9835,-5.9835,-5.9581,-5.9497,-5.975,-5.9835,-5.9835,-5.9835,-5.9642,-5.9558,-5.975,-5.9327,-5.8988,-5.9666,-5.9243,-5.8841,-5.8841,-5.8841,-5.8841,-5.8841,-5.8391,-5.8049,-5.7814,-5.7642,-5.747,-5.747,-5.747,-5.747,-5.747,-5.747,-5.747,-5.747,-5.747,-5.7125,-5.6299,-5.6046,-5.5564,-5.4806,-5.2564,-5.1492,-5.1682,-4.9871,-4.8077,-4.6191,-4.6473,-4.5549,-4.3499,-4.3499,-4.3499,-5.2659,-5.301,-5.3371,-5.3131,-5.3446,-5.3846,-5.3994,-5.3918,-5.4063,-5.452,-5.4616,-5.4928,-5.5938,-5.6107,-5.6323,-5.6925,-5.7021,-5.7021,-5.7021,-5.7478,-5.8007,-5.8536,-5.9065,-5.9594,-6.0123,-6.0171,-6.0171,-6.0171,-6.0171,-6.0171,-6.0171,-6.0171,-6.0171,-6.0171,-6.0171,-6.0171,-6.0171,-6.0171,-6.0171,-6.0171,-6.0171,-6.0171,-6.0171,-6.0171,-6.0171,-6.0171,-6.0171,-6.0171,-6.0171,-6.0171,-6.0171,-6.0171,-6.0171,-6.0171,-6.0171,-6.0171,-6.0171,-6.0171,-6.0171,-6.0171,-6.0171,-6.0171,-6.0171,-6.0171,-6.0171,-6.0171,-6.0171,-6.0171,-6.0171,-6.0171,-6.0171,-5.9919,-5.975,-6.0087,-5.9581,-5.9158,-6.0003,-5.9581,-5.9012,-5.9012,-5.9012,-5.9012,-5.8903,-5.8477,-5.8134,-5.8134,-5.7728,-5.747,-5.747,-5.747,-5.747,-5.747,-5.747,-5.747,-5.747,-5.747,-5.7263,-5.6712,-5.6207,-5.5725,-5.5243,-5.4445,-5.3303,-5.1765,-5.0146,-4.8335,-4.6191,-4.4845,-4.4015,-4.3499,-4.3499,-4.3499,-5.3387,-5.3424,-5.3541,-5.4274,-5.4107,-5.3994,-5.4805,-5.4699,-5.4496,-5.4592,-5.4616,-5.4784,-5.5433,-5.553,-5.5866,-5.6852,-5.7021,-5.7021,-5.7021,-5.7478,-5.8007,-5.8536,-5.9065,-5.9594,-6.0123,-6.0171,-6.0171,-6.0171,-6.0171,-6.0171,-6.0171,-6.0171,-6.0171,-6.0171,-6.0171,-6.0171,-6.0171,-6.0171,-6.0171,-6.0171,-6.0171,-6.0171,-6.0171,-6.0171,-6.0171,-6.0171,-6.0171,0.0,-6.0171,-6.0171,-6.0171,-6.0171,-6.0171,-6.0171,-6.0171,-6.0171,-6.0171,-6.0171,-6.0171,-6.0171,-6.0171,-6.0171,-6.0171,-6.0171,-6.0171,-6.0171,-6.0171,-6.0171,-6.0171,-6.0171,-6.0171,-6.0171,-6.0087,-6.0171,-6.0087,-6.0003,-6.0171,-6.0087,-5.9919,-5.9919,-5.9919,-5.9835,-5.9497,-5.8988,-5.8586,-5.8134,-5.7728,-5.747,-5.747,-5.747,-5.747,-5.747,-5.747,-5.747,-5.747,-5.747,-5.7263,-5.6712,-5.6207,-5.5725,-5.5243,-5.3241,-5.2015,-5.1682,-5.1409,-4.9531,-4.6191,-4.7408,-4.6473,-4.3499,-4.3499,-4.3499,-5.3557,-5.3711,-5.3829,-5.4398,-5.4328,-5.4171,-5.4437,-5.4334,-5.4207,-5.4207,-5.4423,-5.476,-5.5289,-5.5626,-5.6107,-5.69,-5.7021,-5.7021,-5.7021,-5.7718,-5.8319,-5.856,-5.9305,-5.9907,-6.0147,-6.0171,-6.0171,-6.0171,-6.0171,-6.0171,-6.0171,-6.0171,-6.0171,-6.0171,-6.0171,-6.0171,-6.0171,-6.0171,-6.0171,-6.0171,-6.0171,-6.0171,-6.0171,-6.0171,-6.0171,-6.0171,-6.0171,-6.0171,-6.0171,-6.0171,-6.0171,-6.0171,-6.0171,-6.0171,-6.0171,-6.0171,-6.0171,-6.0171,-6.0171,-6.0171,-6.0171,-6.0171,-6.0171,-6.0171,-6.0171,-6.0171,-6.0171,-6.0171,-6.0171,-6.0171,-6.0171,-6.0171,-6.0171,-6.0171,-6.0171,-6.0171,-6.0171,-6.0171,-6.0171,-6.0171,-6.0171,-6.0087,-5.9919,-5.9243,-5.8733,-5.85,-5.79,-5.747,-5.747,-5.747,-5.747,-5.747,-5.747,-5.747,-5.747,-5.747,-5.7263,-5.6712,-5.6207,-5.5725,-5.5243,-5.3844,-5.2182,-5.0315,-5.0315,-4.8527,-4.4757,-4.5705,-4.5197,-4.3499,-4.3499,-4.3499,-5.3733,-5.4027,-5.4218,-5.4546,-5.4475,-5.4322,-5.4122,-5.3897,-5.3822,-5.3822,-5.4231,-5.476,-5.5289,-5.5842,-5.6419,-5.6925,-5.7021,-5.7021,-5.7021,-5.7935,-5.8608,-5.8608,-5.9522,-6.0171,-6.0171,-6.0171,-6.0171,-6.0171,-6.0171,-6.0171,-6.0171,-6.0171,-6.0171,-6.0171,-6.0171,-6.0171,-6.0171,-6.0171,-6.0171,-6.0171,-6.0171,-6.0171,-6.0171,-6.0171,-6.0171,-6.0171,-6.0171,-6.0171,-6.0171,-6.0171,-6.0171,-6.0171,-6.0171,-6.0171,-6.0171,-6.0171,-6.0171,-6.0171,-6.0171,-6.0171,-6.0171,-6.0171,-6.0171,-6.0171,-6.0171,-6.0171,-6.0171,-6.0171,-6.0171,-6.0171,-6.0171,-6.0171,-6.0171,-6.0171,-6.0171,-6.0171,-6.0171,-6.0171,-6.0171,-6.0171,-6.0171,-6.0171,-6.0171,-5.9412,-5.8841,-5.8841,-5.8072,-5.747,-5.747,-5.747,-5.747,-5.747,-5.747,-5.747,-5.747,-5.747,-5.7263,-5.6712,-5.6207,-5.5725,-5.5243,-5.4691,-5.3033,-5.0231,-5.0146,-4.8356,-4.4687,-4.4687,-4.4263,-4.3499,-4.3499,-4.3499,-5.4336,-5.4602,-5.4934,-5.5774,-5.5189,-5.4496,-5.4794,-5.4347,-5.3822,-5.3822,-5.4231,-5.476,-5.5289,-5.5842,-5.6419,-5.6925,-5.7021,-5.7021,-5.7021,-5.7935,-5.8608,-5.8608,-5.9522,-6.0171,-6.0171,-6.0171,-6.0171,-6.0171,-6.0171,-6.0171,-6.0171,-6.0171,-6.0171,-6.0171,-6.0171,-6.0171,-6.0171,-6.0171,-6.0171,-6.0171,-6.0171,-6.0171,-6.0171,-6.0171,-6.0171,-6.0171,-6.0171,-6.0171,0.0,-6.0171,-6.0171,-6.0171,-6.0171,-6.0171,-6.0171,-6.0171,-6.0171,-6.0171,-6.0171,-6.0171,-6.0171,-6.0171,-6.0171,-6.0171,-6.0171,-6.0171,-6.0171,-6.0171,-6.0171,-6.0171,-6.0171,-6.0171,-6.0171,-6.0171,-6.0171,-6.0171,-6.0171,-6.0171,-6.0171,-6.0171,-6.0171,-6.0171,-6.0171,-5.9412,-5.8841,-5.8841,-5.8072,-5.747,-5.747,-5.747,-5.747,-5.747,-5.747,-5.747,-5.747,-5.747,-5.7263,-5.6712,-5.6207,-5.5725,-5.5243,-5.4691,-5.423,-5.3902,-5.3902,-5.2099,-4.8527,-4.8527,-4.6734,-4.3499,-4.3499,-4.3499,-5.4411,-5.4892,-5.5299,-5.5703,-5.5312,-5.4719,-5.4645,-5.4197,-5.3822,-5.3822,-5.4231,-5.476,-5.5289,-5.5842,-5.6419,-5.6925,-5.7021,-5.7021,-5.7021,-5.7935,-5.8608,-5.8608,-5.9522,-6.0171,-6.0171,-6.0171,-6.0171,-6.0171,-6.0171,-6.0171,-6.0171,-6.0171,-6.0171,-6.0171,-6.0171,-6.0171,-6.0171,-6.0171,-6.0171,-6.0171,-6.0171,-6.0171,-6.0171,-6.0171,-6.0171,-6.0171,-6.0171,-6.0171,0.0,-6.0171,-6.0171,-6.0171,-6.0171,-6.0171,-6.0171,-6.0171,-6.0171,-6.0171,-6.0171,-6.0171,-6.0171,-6.0171,-6.0171,-6.0171,-6.0171,-6.0171,-6.0171,-6.0171,-6.0171,-6.0171,-6.0171,-6.0171,-6.0171,-6.0171,-6.0171,-6.0171,-6.0171,-6.0171,-6.0171,-6.0171,-6.0171,-6.0171,-6.0171,-5.9412,-5.8818,-5.8818,-5.8049,-5.747,-5.747,-5.747,-5.747,-5.747,-5.747,-5.747,-5.747,-5.7171,-5.6781,-5.6253,-5.5771,-5.5265,-5.476,-5.4531,-5.3902,-5.2785,-5.1682,-4.9871,-4.7301,-4.6211,-4.4952,-4.3499,-4.3499,-4.3499,-5.4662,-5.5214,-5.5644,-5.5753,-5.5411,-5.4967,-5.4645,-5.4197,-5.3822,-5.3822,-5.4231,-5.4712,-5.5097,-5.5746,-5.6347,-5.6732,-5.6925,-5.7021,-5.7021,-5.779,-5.8416,-5.8584,-5.9402,-6.0003,-6.0147,-6.0171,-6.0171,-6.0171,-6.0171,-6.0171,-6.0171,-6.0171,-6.0171,-6.0171,-6.0171,-6.0171,-6.0171,-6.0171,-6.0171,-6.0171,-6.0171,-6.0171,-6.0171,-6.0171,-6.0171,-6.0171,-6.0171,-6.0171,0.0,-6.0171,-6.0171,-6.0171,-6.0171,-6.0171,-6.0171,-6.0171,-6.0171,-6.0171,-6.0171,-6.0171,-6.0171,-6.0171,-6.0171,-6.0171,-6.0171,-6.0171,-6.0171,-6.0171,-6.0171,-6.0171,-6.0171,-6.0171,-6.0171,-6.0171,-6.0171,-6.0171,-6.0171,-6.0171,-6.0171,-6.0171,-6.0171,-6.0171,-6.0171,-5.9412,-5.8818,-5.8794,-5.8049,-5.747,-5.747,-5.747,-5.747,-5.747,-5.7332,-5.724,-5.724,-5.6896,-5.6413,-5.5771,-5.5403,-5.4967,-5.4439,-5.4416,-5.382,-5.2536,-5.0737,-4.8849,-4.7061,-4.5197,-4.3997,-4.3499,-4.3499,-4.3499,-5.5239,-5.5792,-5.6194,-5.6219,-5.5632,-5.4967,-5.4967,-5.4347,-5.3822,-5.3822,-5.4231,-5.4616,-5.4616,-5.5506,-5.6227,-5.6251,-5.6684,-5.7021,-5.7021,-5.7478,-5.8007,-5.8536,-5.9065,-5.9594,-6.0123,-6.0171,-6.0171,-6.0171,-6.0171,-6.0171,-6.0171,-6.0171,-6.0171,-6.0171,-6.0171,-6.0171,-6.0171,-6.0171,-6.0171,-6.0171,-6.0171,-6.0171,-6.0171,-6.0171,-6.0171,-6.0171,-6.0171,-6.0171,0.0,-6.0171,-6.0171,-6.0171,-6.0171,-6.0171,-6.0171,-6.0171,-6.0171,-6.0171,-6.0171,-6.0171,-6.0171,-6.0171,-6.0171,-6.0171,-6.0171,-6.0171,-6.0171,-6.0171,-6.0171,-6.0171,-6.0171,-6.0171,-6.0171,-6.0171,-6.0171,-6.0171,-6.0171,-6.0171,-6.0171,-6.0171,-6.0171,-6.0171,-6.0171,-5.9412,-5.8841,-5.8841,-5.8072,-5.747,-5.747,-5.747,-5.747,-5.747,-5.701,-5.6689,-5.6689,-5.6689,-5.6253,-5.5288,-5.522,-5.4967,-5.4439,-5.4416,-5.4416,-5.4334,-5.2619,-5.0737,-4.8955,-4.7061,-4.5266,-4.3499,-4.3499,-4.3499,-5.534,-5.5792,-5.6219,-5.6219,-5.5632,-5.4967,-5.4967,-5.4347,-5.3822,-5.3822,-5.3942,-5.4183,-5.4544,-5.5193,-5.5794,-5.6179,-5.6684,-5.7021,-5.7021,-5.7478,-5.8007,-5.8536,-5.9378,-6.0003,-6.0147,-6.0171,-6.0171,-6.0171,-6.0171,-6.0171,-6.0171,-6.0171,-6.0171,-6.0171,-6.0171,-6.0171,-6.0171,-6.0171,-6.0171,-6.0171,-6.0171,-6.0171,-6.0171,-6.0171,-6.0171,-6.0171,-6.0171,-6.0171,-6.0171,-6.0171,-6.0171,-6.0171,-6.0171,-6.0171,-6.0171,-6.0171,-6.0171,-6.0171,-6.0171,-6.0171,-6.0171,-6.0171,-6.0171,-6.0171,-6.0171,-6.0171,-6.0171,-6.0171,-6.0171,-6.0171,-6.0171,-6.0171,-6.0171,-6.0171,-6.0171,-6.0171,-6.0171,-6.0171,-6.0171,-6.0171,-6.0171,-6.0171,-6.0171,-5.9412,-5.8818,-5.8794,-5.8049,-5.747,-5.747,-5.7171,-5.6942,-5.6942,-5.6482,-5.6299,-5.6643,-5.6069,-5.5541,-5.5243,-5.4875,-5.4577,-5.4416,-5.4416,-5.4416,-5.4416,-5.2619,-5.0821,-4.8935,-4.7128,-4.5266,-4.3499,-4.3499,-4.3499,-5.5691,-5.5942,-5.6219,-5.6219,-5.5705,-5.5189,-5.5041,-5.4496,-5.3972,-5.3822,-5.3822,-5.3918,-5.4255,-5.4904,-5.5506,-5.5866,-5.654,-5.7021,-5.7021,-5.7309,-5.779,-5.8512,-5.9353,-5.9955,-6.0147,-6.0171,-6.0171,-6.0171,-6.0171,-6.0171,-6.0171,-6.0171,-6.0171,-6.0171,-6.0171,-6.0171,-6.0171,-6.0171,-6.0171,-6.0171,-6.0171,-6.0171,-6.0171,-6.0171,-6.0171,-6.0171,-6.0171,-6.0171,0.0,-6.0171,-6.0171,-6.0171,-6.0171,-6.0171,-6.0171,-6.0171,-6.0171,-6.0171,-6.0171,-6.0171,-6.0171,-6.0171,-6.0171,-6.0171,-6.0171,-6.0171,-6.0171,-6.0171,-6.0171,-6.0171,-6.0171,-6.0171,-6.0171,-6.0171,-6.0171,-6.0171,-6.0171,-6.0171,-6.0171,-6.0171,-6.0171,-6.0171,-6.0171,-5.9412,-5.8818,-5.8794,-5.8049,-5.7401,-5.7194,-5.6896,-5.6597,-5.6413,-5.5954,-5.5794,-5.6092,-5.5564,-5.5128,-5.4921,-5.46,-5.4416,-5.4416,-5.4416,-5.4416,-5.4416,-5.2619,-5.0821,-4.8935,-4.6366,-4.4599,-4.3499,-4.3499,-4.3499,0.0,-5.6219,-5.6219,-5.6219,-5.5926,-5.5485,-5.5115,-5.4719,0.0,-5.3897,-5.3822,-5.3822,-5.3822,-5.4688,-5.5385,-5.5385,-5.6299,-5.7021,-5.7021,-5.7045,-5.7454,-5.8488,-5.9065,-5.9594,-6.0123,-6.0171,-6.0171,-6.0171,-6.0171,-6.0171,-6.0171,-6.0171,-6.0171,-6.0171,-6.0171,-6.0171,-6.0171,-6.0171,-6.0171,-6.0171,-6.0171,-6.0171,-6.0171,-6.0171,-6.0171,-6.0171,-6.0171,-6.0171,-6.0171,-6.0171,-6.0171,-6.0171,-6.0171,-6.0171,-6.0171,-6.0171,-6.0171,-6.0171,-6.0171,-6.0171,-6.0171,-6.0171,-6.0171,-6.0171,-6.0171,-6.0171,-6.0171,-6.0171,-6.0171,-6.0171,-6.0171,-6.0171,-6.0171,-6.0171,-6.0171,-6.0171,-6.0171,-6.0171,-6.0171,-6.0171,-6.0171,-6.0171,-6.0171,-5.9412,-5.8818,-5.8771,-5.8026,-5.7326,-5.6774,-5.6597,-5.6391,-5.5931,-5.5449,-5.5151,-5.5151,-5.5151,-5.4944,-5.4439,-5.4416,-5.4416,-5.4416,-5.4416,-5.4416,-5.4416,-5.2536,-5.0653,-4.8955,-4.5285,-4.3499,-4.3499,-4.3499,-4.3499,-5.6219,0.0,-5.6219,-5.6219,-5.5926,-5.5485,0.0,-5.4719,-5.4272,-5.3897,-5.3822,-5.3822,-5.3822,-5.4688,-5.5385,-5.5385,-5.6299,-5.7021,-5.7021,-5.7357,-5.7862,-5.8512,-5.9065,-5.9594,-6.0123,-6.0171,-6.0171,-6.0171,-6.0171,-6.0171,-6.0171,-6.0171,-6.0171,-6.0171,-6.0171,-6.0171,-6.0171,-6.0171,-6.0171,-6.0171,-6.0171,-6.0171,-6.0171,-6.0171,-6.0171,-6.0171,-6.0171,-6.0171,-6.0171,-6.0171,-6.0171,-6.0171,-6.0171,-6.0171,-6.0171,-6.0171,-6.0171,-6.0171,-6.0171,-6.0171,-6.0171,-6.0171,-6.0171,-6.0171,-6.0171,-6.0171,-6.0171,-6.0171,-6.0171,-6.0171,-6.0171,-6.0171,-6.0171,-6.0171,-6.0171,-6.0171,-6.0171,-6.0171,-6.0171,-6.0171,-6.0171,-6.0171,-6.0171,-5.975,-5.9185,-5.8782,-5.7977,-5.7198,-5.6689,-5.6045,-5.5518,-5.5403,-5.4921,-5.46,-5.46,-5.46,-5.4531,-5.4416,-5.4416,-5.4416,-5.4416,-5.4416,-5.4416,-5.4416,-5.1241,-4.9467,-4.8955,-4.5285,-4.3499,-4.3499,-4.3499,-4.3499,-5.6219,-5.6219,-5.6219,-5.6219,-5.6072,-5.5705,-5.5115,-5.4794,-5.4496,-5.3897,-5.3822,-5.3822,-5.3822,-5.4688,-5.5385,-5.5385,-5.6299,-5.7021,-5.7021,-5.7261,-5.7646,-5.8175,-5.8704,-5.9233,-5.9762,-6.0027,-6.0171,-6.0171,-6.0171,-6.0171,-6.0171,-6.0171,-6.0171,-6.0171,-6.0171,-6.0171,-6.0171,-6.0171,-6.0171,-6.0171,-6.0171,-6.0171,-6.0171,-6.0171,-6.0171,-6.0171,-6.0171,-6.0171,-6.0171,-6.0171,-6.0171,-6.0171,-6.0171,-6.0171,-6.0171,-6.0171,-6.0171,-6.0171,-6.0171,-6.0171,-6.0171,-6.0171,-6.0171,-6.0171,-6.0171,-6.0171,-6.0171,-6.0171,-6.0171,-6.0171,-6.0171,-6.0171,-6.0171,-6.0171,-6.0171,-6.0171,-6.0171,-6.0171,-6.0171,-6.0171,-6.0171,-6.0171,-6.0171,-5.9619,-5.9021,-5.8736,-5.7747,-5.6833,-5.6322,-5.5629,-5.5128,-5.4875,-5.4577,-5.4416,-5.4416,-5.4416,-5.4416,-5.4416,-5.4416,-5.4416,-5.4416,-5.4416,-5.3984,-5.3221,-5.04,-4.8613,-4.7733,-4.4864,-4.3499,-4.3499,-4.3499,-4.3499,-5.6219,-5.6219,-5.6219,-5.6219,-5.6219,-5.5999,-5.5263,-5.5041,-5.4818,-5.4047,-5.3822,-5.3822,-5.3822,-5.4688,-5.5385,-5.5385,-5.6299,-5.7021,-5.7021,-5.7021,-5.7213,-5.7742,-5.8199,-5.868,-5.9209,-5.9666,-5.9979,-6.0051,-6.0051,-6.0075,-6.0171,-6.0171,-6.0171,-6.0171,-6.0171,-6.0171,-6.0171,-6.0171,-6.0171,-6.0171,-6.0171,-6.0171,-6.0171,-6.0171,-6.0171,-6.0171,-6.0171,0.0,-6.0171,-6.0171,-6.0171,-6.0171,-6.0171,-6.0171,-6.0171,-6.0171,-6.0171,-6.0171,-6.0171,-6.0171,-6.0171,-6.0171,-6.0171,-6.0171,-6.0171,-6.0171,-6.0171,-6.0171,-6.0171,-6.0171,-6.0171,-6.0171,-6.0171,-6.0171,-6.0171,-6.0171,-6.0171,-6.0171,-6.0171,-6.0171,-6.0099,-6.0051,-6.0051,-5.9261,-5.8653,-5.8557,-5.7431,-5.6382,-5.587,-5.5412,-5.4921,-5.4462,-5.4416,-5.4416,-5.4416,-5.4416,-5.4416,-5.4416,-5.4416,-5.4416,-5.4416,-5.4148,-5.3303,-5.1765,-4.9637,-4.7819,-4.6191,-4.4333,-4.3499,-4.3499,-4.3499,-4.3499,-5.6219,-5.6219,-5.6219,-5.6219,-5.6219,-5.6072,-5.5632,-5.5263,-5.4892,-5.4421,-5.4047,-5.3822,-5.3822,-5.4688,-5.5385,-5.5385,-5.6299,-5.7021,-5.7021,-5.7021,-5.7213,-5.7742,-5.7886,-5.8127,-5.8656,-5.88,-5.9017,-5.9474,-5.9498,-5.969,-6.0147,-6.0171,-6.0171,-6.0171,-6.0171,-6.0171,-6.0171,-6.0171,-6.0171,-6.0171,-6.0171,-6.0171,-6.0171,-6.0171,-6.0171,-6.0171,0.0,-6.0171,-6.0171,-6.0171,-6.0171,-6.0171,-6.0171,-6.0171,-6.0171,-6.0171,-6.0171,-6.0171,-6.0171,-6.0171,-6.0171,-6.0171,-6.0171,-6.0171,-6.0171,-6.0171,-6.0171,-6.0171,-6.0171,-6.0171,-6.0171,-6.0171,-6.0171,-6.0171,-6.0171,-6.0171,-6.0171,-6.0171,-6.0171,-6.0171,-5.981,-5.9498,-5.9498,-5.8982,-5.8478,-5.8046,-5.717,-5.6338,-5.5798,-5.5021,-5.4508,-5.4416,-5.4416,-5.4416,-5.4416,-5.4416,-5.4416,-5.4416,-5.4416,-5.4416,-5.4416,-5.2951,-5.2015,-5.1682,-4.8335,-4.6453,-4.6191,-4.4333,-4.3499,-4.3499,-4.3499,-4.3499,-5.6219,-5.6219,-5.6219,-5.6219,-5.6219,-5.6072,-5.5705,-5.5485,-5.5189,-5.457,-5.4248,-5.4047,-5.3822,-5.4688,-5.5578,-5.6179,-5.6684,-5.7021,-5.7021,-5.7021,-5.7117,-5.7357,-5.7646,-5.7911,-5.8151,-5.844,-5.8704,-5.8945,-5.8969,-5.9065,-5.9305,-5.9594,-5.9738,-5.9738,-6.0027,-6.0171,-6.0171,-6.0171,-6.0171,-6.0171,-6.0171,-6.0171,-6.0171,-6.0171,-6.0171,-6.0171,0.0,-6.0171,-6.0171,-6.0171,-6.0171,-6.0171,-6.0171,-6.0171,-6.0171,-6.0171,-6.0171,-6.0171,-6.0171,-6.0171,-6.0171,-6.0171,-6.0171,-6.0171,-6.0171,-6.0171,-6.0171,-6.0171,-6.0171,-6.0171,-6.0171,-6.0171,-6.0171,-6.0171,-6.0171,-6.0171,-6.0171,-5.9955,-5.9738,-5.9738,-5.9329,-5.8969,-5.8969,-5.8512,-5.8079,-5.7838,-5.6824,-5.5973,-5.5715,-5.4986,-5.4416,-5.4416,-5.4668,-5.4852,-5.4852,-5.5082,-5.499,-5.4439,-5.4416,-5.3984,-5.2951,-5.2099,-5.0737,-4.8764,-4.7041,-4.5686,-4.4757,-4.3926,-4.3499,-4.3481,-4.3261,-4.3151,-5.6219,-5.6219,-5.6219,-5.6219,-5.6219,-5.6146,-5.5852,-5.5705,-5.5411,-5.4794,-5.4546,-5.4322,-5.3972,-5.4764,-5.5746,-5.6852,-5.7021,-5.7021,-5.7021,-5.7021,-5.7021,-5.7021,-5.7381,-5.7622,-5.7622,-5.7983,-5.8271,-5.8392,-5.8416,-5.8464,-5.8584,-5.8993,-5.9209,-5.9209,-5.9594,-5.9859,-5.9979,-6.0003,-6.0051,-6.0171,-6.0171,-6.0171,-6.0171,-6.0171,-6.0171,-6.0171,-6.0171,-6.0171,-6.0171,-6.0171,-6.0171,-6.0171,-6.0171,-6.0171,-6.0171,-6.0171,-6.0171,-6.0171,-6.0171,-6.0171,-6.0171,-6.0171,-6.0171,-6.0171,-6.0171,-6.0171,-6.0171,-6.0171,-6.0171,-6.0171,-6.0171,-6.0171,-6.0171,-6.0171,-6.0171,-6.0171,-6.0171,-5.9859,-5.957,-5.957,-5.9137,-5.8776,-5.8776,-5.8343,-5.7983,-5.7983,-5.6895,-5.6067,-5.6067,-5.5334,-5.476,-5.476,-5.5128,-5.5334,-5.522,-5.5426,-5.5243,-5.4462,-5.4416,-5.355,-5.1765,-5.1241,-4.9531,-4.6279,-4.5774,-4.4845,-4.3499,-4.3499,-4.3444,-4.3334,-4.3023,-4.2821,-5.6219,-5.6219,-5.6219,-5.6219,-5.6219,-5.6219,-5.6146,-5.5852,-5.5558,-5.5558,-5.4942,-5.4397,-5.4322,-5.4917,-5.5746,-5.6852,-5.7021,-5.7021,-5.7021,-5.7021,-5.7021,-5.7021,-5.7045,-5.7069,-5.7069,-5.7117,-5.7333,-5.7838,-5.7862,-5.8079,-5.856,-5.8632,-5.8656,-5.8656,-5.8704,-5.8945,-5.945,-5.945,-5.969,-6.0171,-6.0171,-6.0171,-6.0171,-6.0171,-6.0171,-6.0171,-6.0171,-6.0171,-6.0171,-6.0171,-6.0171,-6.0171,-6.0171,-6.0171,-6.0171,-6.0171,-6.0171,-6.0171,-6.0171,-6.0171,-6.0171,-6.0171,-6.0171,-6.0171,-6.0171,-6.0171,-6.0171,-6.0171,-6.0171,-6.0171,-6.0171,-6.0171,-6.0171,-6.0171,-6.0171,-6.0171,-6.0171,-6.0147,-6.0123,-6.0123,-5.969,-5.9329,-5.9329,-5.8897,-5.8536,-5.8536,-5.7774,-5.7172,-5.7172,-5.6401,-5.5817,-5.5817,-5.5862,-5.5702,-5.5243,-5.4783,-5.4485,-5.4416,-5.4416,-5.355,-5.1765,-5.0061,-4.8249,-4.6279,-4.451,-4.3659,-4.3499,-4.3499,-4.3298,-4.2913,-4.2876,-4.2674,-5.6219,-5.6219,-5.6219,-5.6219,-5.6219,-5.6219,-5.6219,-5.6072,-5.5852,-5.5337,-5.4942,-5.484,-5.4969,-5.5198,-5.5746,-5.6852,-5.7021,-5.7021,-5.7021,-5.7021,-5.7021,-5.7021,-5.7021,-5.7021,-5.7021,-5.7021,-5.7093,-5.7309,-5.7309,-5.7405,-5.7598,-5.7935,-5.8103,-5.8103,-5.8416,-5.8704,-5.8897,-5.8897,-5.8993,-5.9209,-5.9859,-6.0171,-6.0171,-6.0171,-6.0171,-6.0171,-6.0171,-6.0171,-6.0171,-6.0171,-6.0171,-6.0171,-6.0171,-6.0171,-6.0171,-6.0171,-6.0171,-6.0171,-6.0171,-6.0171,-6.0171,-6.0171,-6.0171,-6.0171,-6.0171,-6.0171,-6.0171,-6.0171,-6.0171,-6.0171,-6.0171,-6.0171,-6.0171,-6.0171,-6.0171,-6.0171,-6.0171,-5.9907,-5.969,-5.969,-5.9257,-5.8897,-5.8897,-5.8728,-5.8608,-5.8608,-5.7869,-5.729,-5.729,-5.6262,-5.5472,-5.5472,-5.5472,-5.5518,-5.5656,-5.5197,-5.4898,-5.4898,-5.46,-5.355,-5.1765,-5.1073,-4.9276,-4.6279,-4.5511,-4.4448,-4.3096,-4.3096,-4.2894,-4.2491,-4.2252,-4.2051,-5.6219,-5.6219,-5.6219,-5.6219,-5.6219,-5.6219,-5.6219,-5.6219,-5.6072,-5.5485,-5.5312,-5.5257,-5.5395,-5.553,-5.5963,-5.6876,-5.7021,-5.7021,-5.7021,-5.7021,-5.7021,-5.7021,-5.7021,-5.7021,-5.7021,-5.7021,-5.7021,-5.7021,-5.7021,-5.7021,-5.7021,-5.7357,-5.755,-5.755,-5.7911,-5.8175,-5.8343,-5.8343,-5.844,-5.8608,-5.9329,-5.9666,-5.969,-5.9859,-5.9931,-5.9931,-6.0099,-6.0171,-6.0171,-6.0171,-6.0171,-6.0171,-6.0171,-6.0171,-6.0171,-6.0171,-6.0171,-6.0171,-6.0171,-6.0171,-6.0171,-6.0171,-6.0171,-6.0171,-6.0171,-6.0171,-6.0171,-6.0171,-6.0171,-6.0171,-6.0171,-6.0171,-6.0171,-6.0171,-6.0171,-6.0171,-6.0171,-5.9883,-5.9642,-5.9642,-5.9353,-5.9089,-5.9089,-5.9089,-5.9041,-5.8872,-5.8106,-5.7454,-5.7313,-5.6216,-5.5449,-5.5449,-5.5311,-5.5357,-5.5679,-5.5243,-5.4967,-5.4967,-5.4623,-5.355,-5.1765,-5.1157,-4.9361,-4.6279,-4.5551,-4.4416,-4.2858,-4.2747,-4.2472,-4.2087,-4.1812,-4.161,-5.6219,-5.6219,-5.6219,-5.6219,-5.6219,-5.6219,-5.6219,-5.6219,-5.6219,-5.6219,-5.598,-5.5697,-5.5443,-5.5842,-5.6395,-5.6925,-5.7021,-5.7021,-5.7021,-5.7021,-5.7021,-5.7021,-5.7021,-5.7021,-5.7021,-5.7021,-5.7021,-5.7021,-5.7021,-5.7021,-5.7021,-5.7021,-5.7021,-5.7021,-5.7021,-5.7285,-5.779,-5.779,-5.8055,-5.8584,-5.8584,-5.8584,-5.8608,-5.9137,-5.9378,-5.9402,-5.9931,-6.0147,-6.0171,-6.0171,-6.0171,-6.0171,-6.0171,-6.0171,-6.0171,-6.0171,-6.0171,-6.0171,-6.0171,-6.0171,-6.0171,-6.0171,-6.0171,-6.0171,-6.0171,-6.0171,-6.0171,-6.0171,-6.0171,-6.0171,-6.0171,-6.0171,-6.0171,-6.0171,-6.0171,-6.0171,-6.0171,-6.0171,-6.0171,-6.0171,-6.0171,-6.0171,-6.0171,-6.0171,-5.9979,-5.945,-5.8629,-5.7854,-5.7337,-5.6434,-5.5931,-5.5908,-5.5495,-5.5197,-5.5197,-5.4714,-5.4416,-5.4416,-5.4416,-5.355,-5.1765,-4.9977,-4.8163,-4.6279,-4.399,-4.2945,-4.2858,-4.2472,-4.2069,-4.1684,-4.1684,-4.1464,-5.6219,-5.6219,-5.6219,-5.6219,-5.6219,-5.6219,-5.6219,-5.6219,-5.6072,-5.5485,-5.5065,-5.4932,-5.5294,-5.553,-5.5938,-5.6876,-5.7021,-5.7021,-5.7021,-5.7021,-5.7021,-5.7021,-5.7021,-5.7021,-5.7021,-5.7021,-5.7021,-5.7021,-5.7021,-5.7021,-5.7021,-5.7021,-5.7021,-5.7021,-5.7021,-5.7093,-5.7261,-5.7261,-5.7333,-5.7478,-5.7478,-5.7886,-5.8608,-5.8752,-5.8824,-5.8848,-5.8993,-5.9065,-5.9089,-5.9474,-5.9834,-6.0171,-6.0171,-6.0171,-6.0171,-6.0171,-6.0171,-6.0171,-6.0171,-6.0171,-6.0171,-6.0171,-6.0171,-6.0171,-6.0171,-6.0171,-6.0171,-6.0171,-6.0171,-6.0171,-6.0171,-6.0171,-6.0171,-6.0171,-6.0171,-6.0171,-6.0171,-6.0171,-6.0171,-6.0171,-5.9883,-5.9618,-5.9618,-5.9305,-5.9017,-5.8848,-5.8082,-5.7147,-5.5994,-5.5592,-5.5288,-5.4898,-5.4737,-5.4646,-5.4646,-5.4508,-5.4416,-5.4416,-5.4416,-5.355,-5.1765,-5.1157,-4.93,-4.5848,-4.5126,-4.3849,-4.2032,-4.1922,-4.1647,-4.1244,-4.1244,-4.117,-5.6219,-5.6219,-5.6219,-5.6219,-5.6219,-5.6219,-5.6219,-5.6072,-5.5779,-5.5115,-5.4816,-5.483,-5.5318,-5.5578,-5.6011,-5.6876,-5.7021,-5.7021,-5.7021,-5.7021,-5.7021,-5.7021,-5.7021,-5.7021,-5.7021,-5.7021,-5.7021,-5.7021,-5.7021,-5.7021,-5.7021,-5.7021,-5.7021,-5.7021,-5.7021,-5.7021,-5.7021,-5.7021,-5.7021,-5.7021,-5.7021,-5.7357,-5.7983,-5.8199,-5.8271,-5.8295,-5.8512,-5.8608,-5.8632,-5.8945,-5.9257,-5.957,-5.9786,-5.9859,-5.9883,-6.0099,-6.0171,-6.0171,-6.0171,-6.0171,-6.0171,-6.0171,-6.0171,-6.0171,-6.0171,-6.0171,-6.0171,-6.0171,-6.0171,-6.0171,-6.0171,-6.0027,-5.9907,-6.0123,-6.0171,-6.0123,-5.9907,-5.9859,-5.9786,-5.9594,-5.9281,-5.9065,-5.9065,-5.88,-5.8536,-5.8319,-5.737,-5.621,-5.5003,-5.4898,-5.476,-5.4439,-5.4416,-5.4416,-5.4416,-5.4416,-5.4416,-5.4416,-5.4416,-5.346,-5.1481,-5.1398,-4.989,-4.6746,-4.5641,-4.3975,-4.1684,-4.1519,-4.1299,-4.106,-4.106,-4.106,-5.6219,-5.6219,-5.6219,-5.6219,-5.6219,-5.6219,-5.6219,-5.5852,-5.5411,-5.5115,-5.5036,-5.5145,-5.5294,-5.5746,-5.6275,-5.6852,-5.6949,-5.6973,-5.7021,-5.7021,-5.7021,-5.7021,-5.7021,-5.7021,-5.7021,-5.7021,-5.7021,-5.7021,-5.7021,-5.7021,-5.7021,-5.7021,-5.7021,-5.7021,-5.7021,-5.7021,-5.7021,-5.7021,-5.7021,-5.7021,-5.7021,-5.7021,-5.7045,-5.7526,-5.7742,-5.7766,-5.8247,-5.8488,-5.8536,-5.8536,-5.856,-5.8656,-5.9137,-5.9305,-5.9378,-5.9859,-6.0027,-6.0027,-6.0027,-6.0027,-6.0027,-6.0027,-6.0027,-6.0027,-6.0027,-6.0027,-6.0027,-6.0027,-6.0027,-6.0027,-6.0027,-5.9666,-5.9426,-5.9907,-6.0027,-5.9907,-5.9426,-5.9305,-5.9161,-5.868,-5.856,-5.8536,-5.8536,-5.8488,-5.8295,-5.7734,-5.6586,-5.5368,-5.4579,-5.4416,-5.4416,-5.4416,-5.4416,-5.4416,-5.4416,-5.4416,-5.4416,-5.4416,-5.437,-5.3384,-5.123,-5.0961,-5.0069,-4.8211,-4.5573,-4.3438,-4.1866,-4.1328,-4.106,-4.106,-4.106,-4.106,-5.6219,-5.6219,-5.6219,-5.6219,-5.6219,-5.6219,-5.6219,-5.5632,-5.5115,-5.5041,-5.4743,-5.4587,-5.4764,-5.488,-5.5265,-5.6251,-5.6395,-5.654,-5.6973,-5.7021,-5.7021,-5.7021,-5.7021,-5.7021,-5.7021,-5.7021,-5.7021,-5.7021,-5.7021,-5.7021,-5.7021,-5.7021,-5.7021,-5.7021,-5.7021,-5.7021,-5.7021,-5.7021,-5.7021,-5.7021,-5.7021,-5.7021,-5.7021,-5.7141,-5.7189,-5.7189,-5.7309,-5.7598,-5.7983,-5.7983,-5.8223,-5.8608,-5.8728,-5.8776,-5.8776,-5.8897,-5.8945,-5.8945,-5.8945,-5.8945,-5.8945,-5.8945,-5.8945,-5.8945,-5.8945,-5.8945,-5.8945,-5.8945,-5.8945,-5.8945,-5.8945,-5.8848,-5.88,-5.8921,-5.8945,-5.8897,-5.88,-5.8776,-5.8728,-5.8608,-5.8271,-5.7983,-5.7983,-5.7646,-5.7173,-5.6733,-5.6108,-5.553,-5.4986,-5.4661,-5.4416,-5.4416,-5.4416,-5.4416,-5.4416,-5.4416,-5.4416,-5.4416,-5.4049,-5.3634,-5.3093,-5.164,-4.9686,-4.7196,-4.5191,-4.3851,-4.3209,-4.1751,-4.106,-4.106,-4.106,-4.106,-5.6219,-5.6219,-5.6219,-5.6219,-5.6219,-5.6146,-5.5999,-5.5411,-5.4967,-5.4719,-5.4421,-5.4192,-5.4496,-5.4616,-5.488,-5.5698,-5.5842,-5.5938,-5.6203,-5.6468,-5.6636,-5.6636,-5.6852,-5.7021,-5.7021,-5.7021,-5.7021,-5.7021,-5.7021,-5.7021,-5.7021,-5.7021,-5.7021,-5.7021,-5.7021,-5.7021,-5.7021,-5.7021,-5.7021,-5.7021,-5.7021,-5.7021,-5.7021,-5.7021,-5.7021,-5.7021,-5.7021,-5.7189,-5.743,-5.743,-5.7598,-5.7862,-5.8127,-5.8223,-5.8247,-5.8512,-5.8608,-5.8608,-5.8608,-5.8608,-5.8608,-5.8608,-5.8608,-5.8608,-5.8608,-5.8608,-5.8608,-5.8608,-5.8608,-5.8608,-5.8608,-5.8416,-5.8223,-5.8223,-5.8416,-5.8536,-5.8271,-5.8223,-5.8151,-5.7886,-5.7622,-5.743,-5.743,-5.7213,-5.6861,-5.6486,-5.5956,-5.553,-5.5149,-5.4661,-5.4416,-5.4416,-5.4416,-5.4416,-5.4416,-5.4416,-5.4301,-5.4072,-5.3842,-5.3475,-5.2992,-5.1197,-4.921,-4.6906,-4.5779,-4.4261,-4.2428,-4.1546,-4.106,-4.106,-4.106,-4.106,-5.6219,-5.6219,-5.6219,-5.6219,-5.6219,-5.6072,-5.5705,-5.5263,-5.4892,-5.4472,-5.4122,-5.3942,-5.4399,-5.4471,-5.464,-5.5169,-5.5265,-5.5289,-5.5385,-5.5794,-5.6083,-5.6083,-5.6468,-5.678,-5.6876,-5.6876,-5.6925,-5.7021,-5.7021,-5.7021,-5.7021,-5.7021,-5.7021,-5.7021,-5.7021,-5.7021,-5.7021,-5.7021,-5.7021,-5.7021,-5.7021,-5.7021,-5.7021,-5.7021,-5.7021,-5.7021,-5.7021,-5.7021,-5.7021,-5.7021,-5.7021,-5.7069,-5.7502,-5.767,-5.7718,-5.8175,-5.8319,-5.8319,-5.8319,-5.8319,-5.8319,-5.8319,-5.8319,-5.8319,-5.8319,-5.8319,-5.8319,-5.8319,-5.8319,-5.8319,-5.8319,-5.8007,-5.767,-5.767,-5.8007,-5.8199,-5.7766,-5.767,-5.755,-5.7117,-5.7021,-5.7021,-5.7021,-5.7021,-5.6861,-5.6542,-5.6037,-5.5611,-5.523,-5.4742,-5.4416,-5.4416,-5.4416,-5.4416,-5.4416,-5.4416,-5.4209,-5.3727,-5.3612,-5.305,-5.1796,-5.0273,-4.8506,-4.6455,-4.6024,-4.4373,-4.1546,-4.1229,-4.106,-4.106,-4.106,-4.106,-5.6219,-5.6219,-5.6219,-5.6219,-5.6219,-5.6072,-5.5705,-5.5263,-5.4892,-5.4472,-5.4122,-5.3846,-5.3918,-5.3918,-5.4087,-5.4616,-5.4712,-5.488,-5.5337,-5.5458,-5.5506,-5.5506,-5.5578,-5.5794,-5.6299,-5.6347,-5.6516,-5.6997,-5.7021,-5.7021,-5.7021,-5.7021,-5.7021,-5.7021,-5.7021,-5.7021,-5.7021,-5.7021,-5.7021,-5.7021,-5.7021,-5.7021,-5.7021,-5.7021,-5.7021,-5.7021,-5.7021,-5.7021,-5.7021,-5.7021,-5.7021,-5.7021,-5.7093,-5.7117,-5.7141,-5.7213,-5.7237,-5.7237,-5.7237,-5.7237,-5.7237,-5.7237,-5.7237,-5.7237,-5.7237,-5.7237,-5.7237,-5.7237,-5.7237,-5.7237,-5.7237,-5.7189,-5.7117,-5.7117,-5.7189,-5.7213,-5.7141,-5.7117,-5.7117,-5.7045,-5.7021,-5.7021,-5.7021,-5.7021,-5.6941,-5.6941,-5.6197,-5.5691,-5.5611,-5.4882,-5.4416,-5.4416,-5.4416,-5.4416,-5.4416,-5.4416,-5.4209,-5.3727,-5.3268,-5.2082,-5.0043,-4.9307,-4.7373,-4.4123,-4.3982,-4.3715,-4.3239,-4.1779,-4.106,-4.106,-4.106,-4.106,-5.6219,-5.6219,-5.6219,-5.6219,-5.6072,-5.5779,-5.5337,-5.4942,-5.457,-5.4122,-5.3897,-5.3822,-5.3822,-5.3822,-5.3894,-5.4135,-5.4159,-5.4255,-5.4471,-5.476,-5.4952,-5.4952,-5.5217,-5.5626,-5.6179,-5.6227,-5.6444,-5.6973,-5.7021,-5.7021,-5.7021,-5.7021,-5.7021,-5.7021,-5.7021,-5.7021,-5.7021,-5.7021,-5.7021,-5.7021,-5.7021,-5.7021,-5.7021,-5.7021,-5.7021,-5.7021,-5.7021,-5.7021,-5.7021,-5.7021,-5.7021,-5.7021,-5.7021,-5.7021,-5.7021,-5.7021,-5.7021,-5.7021,-5.7021,-5.7021,-5.7021,-5.7021,-5.7021,-5.7021,-5.7021,-5.7021,-5.7021,-5.7021,-5.7021,-5.7021,-5.7021,-5.7021,-5.7021,-5.7021,-5.7021,-5.7021,-5.7021,-5.7021,-5.7021,-5.7021,-5.7021,-5.7021,-5.7021,-5.7021,-5.7021,-5.7021,-5.6278,-5.5691,-5.5691,-5.4986,-5.4416,-5.4416,-5.4416,-5.4416,-5.4416,-5.4163,-5.3796,-5.3268,-5.2763,-5.1526,-4.9227,-4.7954,-4.6142,-4.3633,-4.3633,-4.3156,-4.2197,-4.1462,-4.106,-4.106,-4.106,-4.106,-5.6219,-5.6219,-5.6219,-5.6072,-5.5852,-5.5485,-5.4942,-5.4645,-5.4272,-5.3897,-5.3822,-5.3822,-5.3822,-5.3822,-5.3822,-5.3822,-5.3822,-5.3822,-5.3822,-5.4159,-5.4399,-5.4399,-5.476,-5.5265,-5.5963,-5.6011,-5.6299,-5.6973,-5.7021,-5.6973,-5.6828,-5.6828,-5.6828,-5.6828,-5.6828,-5.6876,-5.7021,-5.7021,-5.7021,-5.7021,-5.7021,-5.7021,-5.7021,-5.7021,-5.7021,-5.7021,-5.7021,-5.7021,-5.7021,-5.7021,-5.7021,-5.7021,-5.7021,-5.7021,-5.7021,-5.7021,-5.7021,-5.7021,-5.7021,-5.7021,-5.7021,-5.7021,-5.7021,-5.7021,-5.7021,-5.7021,-5.7021,-5.7021,-5.7021,-5.7021,-5.7021,-5.7021,-5.7021,-5.7021,-5.7021,-5.7021,-5.7021,-5.7021,-5.7021,-5.7021,-5.7021,-5.7021,-5.7021,-5.7021,-5.7021,-5.7021,-5.6278,-5.5691,-5.5691,-5.4986,-5.4416,-5.4416,-5.4416,-5.437,-5.4232,-5.3911,-5.3406,-5.2763,-5.1956,-5.0557,-4.8187,-4.6465,-4.47,-4.2991,-4.2991,-4.2345,-4.106,-4.106,-4.106,-4.106,-4.106,-4.106,-5.6219,-5.6219,-5.6146,-5.5705,-5.5632,-5.5386,-5.462,-5.4397,-5.4272,-5.3897,-5.3822,-5.3822,-5.3822,-5.3822,-5.3822,-5.3822,-5.3822,-5.3822,-5.3822,-5.3846,-5.387,-5.387,-5.3894,-5.4303,-5.5337,-5.5433,-5.589,-5.6949,-5.7021,-5.6804,-5.6299,-5.6275,-5.6275,-5.6275,-5.6275,-5.6516,-5.7021,-5.7021,-5.7021,-5.7021,-5.7021,-5.7021,-5.7021,-5.7021,-5.7021,-5.7021,-5.7021,-5.7021,-5.7021,-5.7021,-5.7021,-5.7021,-5.7021,-5.7021,-5.7021,-5.7021,-5.7021,-5.7021,-5.7021,-5.7021,-5.7021,-5.7021,-5.7021,-5.7021,-5.7021,-5.7021,-5.7021,-5.7021,-5.7021,-5.7021,-5.7021,-5.7021,-5.7021,-5.7021,-5.7021,-5.7021,-5.7021,-5.7021,-5.7021,-5.7021,-5.7021,-5.7021,-5.7021,-5.7021,-5.7021,-5.7021,-5.6278,-5.5691,-5.5691,-5.4986,-5.4416,-5.4416,-5.4416,-5.4232,-5.3773,-5.3704,-5.3268,-5.2281,-5.0701,-4.8741,-4.6405,-4.47,-4.2908,-4.1229,-4.1229,-4.1229,-4.106,-4.106,-4.106,-4.106,-4.106,-4.106,-5.6219,-5.5999,-5.5779,-5.5632,-5.5238,-5.4794,-5.4472,-5.4197,-5.3972,-5.3822,-5.3822,-5.3822,-5.3822,-5.3822,-5.3822,-5.3822,-5.3822,-5.3822,-5.3822,-5.3822,-5.3822,-5.3822,-5.3822,-5.4111,-5.4832,-5.5193,-5.5698,-5.6444,-5.6516,-5.6419,-5.6251,-5.589,-5.5698,-5.5698,-5.5698,-5.5963,-5.6516,-5.6852,-5.7021,-5.7021,-5.7021,-5.7021,-5.7021,-5.7021,-5.7021,-5.7021,-5.7021,-5.7021,-5.7021,-5.7021,-5.7021,-5.7021,-5.7021,-5.7021,-5.7021,-5.7021,-5.7021,-5.7021,-5.7021,-5.7021,-5.7021,-5.7021,-5.7021,-5.7021,-5.7021,-5.7021,-5.7021,-5.7021,-5.7021,-5.7021,-5.7021,-5.7021,-5.7021,-5.7021,-5.7021,-5.7021,-5.7021,-5.7021,-5.7021,-5.7021,-5.7021,-5.7021,-5.7021,-5.7021,-5.7021,-5.7021,-5.6278,-5.5691,-5.5691,-5.4986,-5.4416,-5.4416,-5.4416,-5.4209,-5.3727,-5.3383,-5.24,-5.0644,-4.9654,-4.7698,-4.47,-4.3962,-4.2825,-4.1145,-4.106,-4.106,-4.106,-4.106,-4.106,-4.106,-4.106,-4.106,-5.5852,-5.5779,-5.5705,-5.5312,-5.4868,-5.457,-5.4248,-5.3972,-5.3822,-5.3822,-5.3822,-5.3822,-5.3822,-5.3822,-5.3822,-5.3822,-5.3822,-5.3822,-5.3822,-5.3822,-5.3822,-5.3822,-5.3822,-5.4015,-5.4544,-5.4928,-5.5361,-5.5914,-5.5963,0.0,-5.5698,-5.5337,-5.5121,-5.5121,-5.5313,-5.5578,-5.5963,-5.6492,-5.6756,-5.6756,-5.6925,-5.7021,-5.7021,-5.7021,-5.7021,-5.7021,-5.7021,-5.7021,-5.7021,-5.7021,-5.7021,-5.7021,-5.7021,-5.7021,-5.7021,-5.7021,-5.7021,-5.7021,-5.7021,-5.7021,-5.7021,-5.7021,-5.7021,-5.7021,-5.7021,-5.7021,-5.7021,-5.7021,-5.7021,-5.7021,-5.7021,-5.7021,-5.7021,-5.7021,-5.7021,-5.7021,-5.7021,-5.7021,-5.7021,-5.7021,-5.7021,-5.7021,-5.7021,-5.7021,-5.6941,-5.6782,-5.6197,-5.5611,-5.553,-5.4905,-5.4416,-5.4416,-5.4278,-5.398,-5.3475,-5.2946,-5.1708,-4.9482,-4.8439,-4.6647,-4.3715,-4.3074,-4.2262,-4.1145,-4.106,-4.106,-4.106,-4.106,-4.106,-4.106,-4.106,-4.106,0.0,0.0,0.0,-5.4695,-5.4645,-5.4744,-5.3972,0.0,-5.3822,-5.3822,-5.3822,-5.3822,-5.3822,-5.3822,-5.3822,-5.3822,-5.3822,-5.3822,-5.3822,-5.3822,-5.3822,-5.3822,-5.3822,-5.4015,-5.4544,-5.4592,-5.4832,-5.5337,-5.5385,-5.5145,-5.464,-5.4592,-5.4592,-5.4592,-5.5097,-5.5385,-5.5385,-5.5938,-5.6203,-5.6227,-5.6732,-5.6973,-5.6997,-5.6997,-5.6997,-5.7021,-5.7021,-5.7021,-5.7021,-5.7021,-5.7021,-5.7021,-5.7021,-5.7021,-5.7021,-5.7021,-5.7021,-5.7021,-5.7021,-5.7021,-5.7021,-5.7021,-5.7021,-5.7021,-5.7021,-5.7021,-5.7021,-5.7021,-5.7021,-5.7021,-5.7021,-5.7021,-5.7021,-5.7021,-5.7021,-5.7021,-5.7021,-5.7021,-5.7021,-5.7021,-5.7021,-5.7021,-5.7021,-5.7021,-5.6861,-5.6486,-5.6037,-5.553,-5.5149,-5.4661,-5.4416,-5.4416,-5.398,-5.3475,-5.2946,-5.2441,-5.1131,-4.8864,-4.7128,-4.5332,-4.3633,-4.1946,-4.106,-4.106,-4.106,-4.106,-4.106,-4.106,-4.106,-4.106,-4.106,-4.106,-5.5115,0.0,0.0,0.0,0.0,0.0,-5.3822,0.0,-5.3822,-5.3822,-5.3822,-5.3822,-5.3822,-5.3822,-5.3822,-5.3822,-5.3822,-5.3822,-5.3822,-5.3822,-5.3822,-5.3822,-5.3822,-5.387,-5.4015,-5.4375,-5.4664,0.0,-5.4832,-5.476,-5.4616,-5.4255,-5.4039,-5.4039,-5.4544,-5.4832,-5.4832,-5.5361,-5.5626,-5.5626,-5.577,-5.6059,-5.6444,-5.6444,-5.666,-5.7021,-5.7021,-5.7021,-5.7021,-5.7021,-5.7021,-5.7021,-5.7021,-5.7021,-5.7021,-5.7021,-5.7021,-5.7021,-5.7021,-5.7021,-5.7021,-5.7021,-5.7021,-5.7021,-5.7021,-5.7021,-5.7021,-5.7021,-5.7021,-5.7021,-5.7021,-5.7021,-5.7021,-5.7021,-5.7021,-5.7021,-5.7021,-5.7021,-5.7021,-5.7021,-5.7021,-5.7021,-5.7021,-5.7021,-5.6941,-5.6861,-5.6197,-5.5691,-5.553,-5.4882,-5.4416,-5.4416,-5.398,-5.3475,-5.2946,-5.1288,-4.9344,-4.7069,-4.5251,-4.357,-4.1863,-4.1378,-4.106,-4.106,-4.106,-4.106,-4.106,-4.106,-4.106,-4.106,-4.106,-4.106,-5.4645,-5.457,-5.457,-5.4272,0.0,0.0,-5.3822,-5.3822,-5.3822,0.0,-5.3822,-5.3822,-5.3822,-5.3654,-5.351,-5.351,-5.3317,-5.3317,-5.375,-5.363,-5.3582,-5.3798,-5.363,-5.3582,-5.3798,-5.4087,-5.4279,-5.4279,-5.4279,-5.4279,-5.4279,-5.3991,-5.3822,-5.3822,-5.4111,-5.4279,-5.4279,-5.4808,-5.5073,-5.5073,-5.5289,-5.5578,-5.589,-5.589,-5.6059,-5.6347,-5.6588,-5.6684,-5.6708,-5.6925,-5.7021,-5.7021,-5.7021,-5.7021,-5.7021,-5.7021,-5.7021,-5.7021,-5.7021,-5.7021,-5.7021,-5.7021,-5.7021,-5.7021,-5.7021,-5.7021,-5.7021,-5.7021,-5.7021,-5.7021,-5.7021,-5.7021,-5.7021,-5.7021,-5.7021,-5.7021,-5.7021,-5.7021,-5.7021,-5.7021,-5.7021,-5.7021,-5.7021,-5.7021,-5.6861,-5.6518,-5.6013,-5.553,-5.5206,-5.4742,-5.4324,-5.414,-5.3658,-5.3153,-5.2648,-5.0577,-4.8706,-4.739,-4.4925,-4.3156,-4.2197,-4.1462,-4.106,-4.106,-4.106,-4.106,-4.106,-4.106,-4.106,-4.106,-4.106,-4.106,-5.4248,-5.4373,-5.4646,-5.3876,-5.3977,0.0,-5.3729,-5.3654,-5.3654,0.0,-5.3654,-5.3654,-5.3654,-5.3293,-5.298,-5.298,-5.2596,-5.2596,-5.351,-5.3269,-5.3149,-5.3606,-5.3245,-5.3149,-5.3606,-5.3654,-5.3654,-5.3654,-5.3702,-5.375,-5.3822,-5.3822,-5.3822,-5.3822,-5.3822,-5.3822,-5.3822,-5.4279,-5.452,-5.452,-5.5001,-5.5241,-5.5313,-5.5313,-5.5337,-5.5433,-5.5914,-5.6131,-5.6179,-5.6636,-5.69,-5.7021,-5.7021,-5.7021,-5.7021,-5.7021,-5.7021,-5.7021,-5.7021,-5.7021,-5.7021,-5.7021,-5.7021,-5.7021,-5.7021,-5.7021,-5.7021,-5.7021,-5.7021,-5.7021,-5.7021,-5.7021,-5.7021,-5.7021,-5.7021,-5.7021,-5.7021,-5.7021,-5.7021,-5.7021,-5.7021,-5.7021,-5.7021,-5.7021,-5.6678,-5.5852,-5.5691,-5.5368,-5.4579,-5.437,-5.4163,-5.3727,-5.3153,-5.2648,-5.2212,-5.0075,-4.882,-4.882,-4.5494,-4.3633,-4.3633,-4.203,-4.106,-4.106,-4.106,-4.106,-4.106,-4.106,-4.106,-4.106,-4.106,-4.106,-5.5826,-5.4598,-5.3444,-5.3295,-5.2958,0.0,-5.2572,-5.2572,-5.2572,0.0,-5.2572,-5.2572,-5.2572,-5.2499,-5.2427,-5.2427,-5.2355,-5.2355,-5.2548,-5.2499,-5.2475,-5.2572,-5.2499,-5.2475,-5.2572,-5.2572,-5.2572,-5.2572,-5.298,-5.3389,-5.3798,-5.3822,-5.3822,-5.3822,-5.3822,-5.3822,-5.3822,-5.3918,-5.3966,-5.3966,-5.4087,-5.4351,-5.476,-5.476,-5.5001,-5.5409,-5.5506,-5.5554,-5.5554,-5.5674,-5.6227,-5.7021,-5.7021,-5.7021,-5.7021,-5.7021,-5.7021,-5.7021,-5.7021,-5.7021,-5.7021,-5.7021,-5.7021,-5.7021,-5.7021,-5.7021,-5.7021,-5.7021,-5.7021,-5.7021,-5.7021,-5.7021,-5.7021,-5.7021,-5.7021,-5.7021,-5.7021,-5.7021,-5.7021,-5.7021,-5.7021,-5.7021,-5.7021,-5.7021,-5.6861,-5.6301,-5.5956,-5.553,-5.5067,-5.4315,-5.3796,-5.3704,-5.2878,-5.2281,-5.2189,-5.0075,-4.882,-4.882,-4.5494,-4.3633,-4.3633,-4.203,-4.106,-4.106,-4.106,-4.106,-4.106,-4.106,-4.106,-4.106,-4.106,-4.106,-5.4545,-5.3424,-5.2668,-5.2668,-5.2475,0.0,0.0,-5.2283,-5.2283,-5.2283,-5.2283,-5.2283,-5.2283,-5.2067,-5.1874,-5.1874,-5.1658,-5.1489,-5.1489,-5.173,-5.1994,-5.2259,-5.2043,-5.1994,-5.2259,-5.2283,-5.2283,-5.2283,-5.2524,-5.2908,-5.3413,-5.3437,-5.3558,-5.3822,-5.3822,-5.3822,-5.3822,-5.3822,-5.3822,-5.3822,-5.3822,-5.3966,-5.4207,-5.4207,-5.4351,-5.4616,-5.488,-5.5001,-5.5025,-5.5289,-5.5722,-5.6203,-5.6203,-5.6203,-5.6251,-5.6516,-5.6636,-5.666,-5.6925,-5.7021,-5.7021,-5.7021,-5.7021,-5.7021,-5.7021,-5.6828,-5.6636,-5.6636,-5.6419,-5.6203,-5.6203,-5.6203,-5.6203,-5.6203,-5.6203,-5.6203,-5.6203,-5.6203,-5.6203,-5.6203,-5.6203,-5.6395,-5.6925,-5.6804,-5.6398,-5.5762,-5.5287,-5.47,-5.406,-5.3612,-5.3199,-5.2969,-5.2487,-5.2074,-5.1821,-4.9941,-4.9157,-5.0042,-4.5981,-4.3962,-4.4843,-4.2428,-4.106,-4.106,-4.106,-4.106,-4.106,-4.106,-4.106,-4.106,-4.106,-4.106,-5.3106,-5.2405,-5.2139,-5.2139,-5.2043,-5.197,0.0,0.0,0.0,-5.197,-5.197,-5.197,-5.197,0.0,0.0,-5.1465,0.0,0.0,0.0,-5.1129,0.0,-5.1922,-5.161,-5.1513,-5.1922,-5.197,-5.2018,-5.2115,-5.2139,-5.2355,-5.2884,-5.3004,-5.3245,-5.3654,-5.3774,-5.3822,-5.3822,-5.3822,-5.3822,-5.3822,-5.3822,-5.3822,-5.3822,-5.3822,-5.3822,-5.3846,-5.4279,-5.4447,-5.4496,-5.4904,-5.5097,-5.5121,-5.5313,-5.5385,-5.5458,-5.5914,-5.6083,-5.6131,-5.6564,-5.6708,-5.6708,-5.6708,-5.6708,-5.6708,-5.6708,-5.6419,-5.6083,-5.6083,-5.5746,-5.5385,-5.5385,-5.5385,-5.5385,-5.5385,-5.5385,-5.5385,-5.5385,-5.5385,-5.5385,-5.5385,-5.5385,-5.5674,-5.6564,-5.6347,-5.5745,-5.4956,-5.4469,-5.3872,-5.298,-5.2809,-5.2602,-5.2212,-5.2097,-5.1867,-5.1454,-5.0121,-4.9808,-5.0866,-4.6626,-4.4618,-4.5657,-4.2761,-4.106,-4.106,-4.106,-4.106,-4.106,-4.106,-4.106,-4.106,-4.106,-4.106,-5.4719,-5.2954,-5.1586,-5.1586,-5.1225,-5.0888,-5.0888,0.0,-5.0888,-5.0888,0.0,-5.0888,-5.0888,0.0,0.0,-5.1417,-5.1056,-5.0864,-5.1345,-5.1056,-5.0816,-5.0864,-5.084,-5.0816,-5.0888,-5.0888,-5.1081,-5.1537,-5.1586,-5.1802,-5.2331,-5.2812,-5.3101,-5.3149,-5.3582,-5.3822,-5.3822,-5.3822,-5.3822,-5.3822,-5.3822,-5.3822,-5.3822,-5.3822,-5.3822,-5.3822,-5.387,-5.3918,-5.3918,-5.3966,-5.3991,-5.4087,-5.5025,-5.5385,-5.5409,-5.5458,-5.5482,-5.5506,-5.5554,-5.5578,-5.5578,-5.5578,-5.5578,-5.5578,-5.5578,-5.553,-5.5482,-5.5482,-5.5433,-5.5385,-5.5385,-5.5385,-5.5385,-5.5385,-5.5385,-5.5385,-5.5385,-5.5385,-5.5385,-5.5385,-5.5385,-5.5433,-5.5554,-5.553,-5.5195,-5.4414,-5.4234,-5.3872,-5.298,-5.2533,-5.2235,-5.2189,-5.1775,-5.1477,-5.1431,-5.1176,-5.0533,-4.9157,-4.7128,-4.5332,-4.3962,-4.2114,-4.106,-4.106,-4.106,-4.106,-4.106,-4.106,-4.106,-4.106,-4.106,-4.106,-5.2973,-5.1651,-5.1032,-5.1032,-5.0864,-5.0696,-5.0696,-5.0696,-5.0696,-5.0696,0.0,0.0,0.0,0.0,0.0,0.0,-5.084,-5.0792,0.0,0.0,-5.0696,-5.0696,0.0,0.0,-5.0696,-5.0696,-5.0792,-5.1008,-5.1032,-5.1273,-5.1802,-5.2043,-5.2283,-5.2596,-5.3125,-5.3389,-5.3389,-5.3678,-5.3822,-5.3822,-5.3822,-5.3822,-5.3822,-5.3822,-5.3822,-5.3822,-5.3822,-5.3822,-5.3822,-5.3822,-5.3822,-5.387,-5.4303,-5.4471,-5.452,-5.4832,-5.4928,-5.4977,-5.5289,-5.5385,-5.5385,-5.5385,-5.5385,-5.5385,-5.5385,-5.5193,-5.4928,-5.4928,-5.4712,-5.4471,-5.4471,-5.4471,-5.4471,-5.4471,-5.4471,-5.4471,-5.4471,-5.4471,-5.4471,-5.4471,-5.4471,-5.4471,-5.4471,-5.4506,-5.4414,-5.3794,-5.3226,-5.2729,-5.2129,-5.1867,-5.1753,-5.1753,-5.1546,-5.1431,-5.1431,-5.0455,-4.955,-4.882,-4.6223,-4.3962,-4.2178,-4.1462,-4.106,-4.106,-4.106,-4.106,-4.106,-4.106,-4.106,-4.106,-4.106,-4.106,-5.1956,-5.0954,-5.0696,-5.0696,-5.0696,-5.0696,-5.0696,-5.0696,-5.0696,-5.0696,-5.0696,0.0,0.0,0.0,-5.0744,-5.0888,0.0,-5.0744,-5.0912,-5.0792,-5.0696,-5.0696,-5.0696,0.0,0.0,-5.0696,-5.0696,-5.0696,-5.0696,-5.0864,-5.1249,-5.1417,-5.1658,-5.2043,-5.2572,-5.2908,-5.3077,-5.3437,-5.3678,-5.3822,-5.3822,-5.3822,-5.3822,-5.3822,-5.3822,-5.3822,-5.3822,-5.3822,-5.3822,-5.3822,-5.3822,-5.3822,-5.3822,-5.3822,-5.387,-5.4255,-5.4399,-5.4447,-5.4832,-5.4952,-5.4952,-5.4952,-5.4952,-5.4952,-5.4952,-5.4688,-5.4399,-5.4399,-5.4111,-5.3822,-5.3822,-5.3822,-5.3822,-5.3822,-5.3822,-5.3822,-5.3822,-5.3822,-5.3822,-5.3822,-5.3822,-5.3822,-5.3822,-5.3832,-5.379,-5.3229,-5.2617,-5.2024,-5.1508,-5.1431,-5.1431,-5.1431,-5.1431,-5.1431,-5.1431,-4.9808,-4.8425,-4.7448,-4.4536,-4.2345,-4.1145,-4.106,-4.106,-4.106,-4.106,-4.106,-4.106,-4.106,-4.106,-4.106,-4.106,-4.106,-5.3121,-5.1747,-5.0696,-5.0696,-5.0696,-5.0696,-5.0696,-5.0696,-5.0696,-5.0696,-5.0696,-5.0696,-5.0696,-5.0696,-5.0864,-5.1393,-5.1032,0.0,0.0,-5.1032,-5.0696,-5.0696,-5.0696,-5.0696,0.0,-5.0696,-5.0696,-5.0696,-5.0696,-5.072,-5.072,-5.1225,-5.1489,-5.1513,-5.2018,-5.2548,-5.3053,-5.3077,-5.3341,-5.3822,-5.3822,-5.3822,-5.3822,-5.3822,-5.3822,-5.3822,-5.3822,-5.3822,-5.3822,-5.3822,-5.3822,-5.3822,-5.3822,-5.3822,-5.3822,-5.3846,-5.3846,-5.3846,-5.387,-5.387,-5.387,-5.387,-5.387,-5.387,-5.387,-5.387,-5.3846,-5.3846,-5.3822,-5.3822,-5.3822,-5.3822,-5.3822,-5.3822,-5.3822,-5.3822,-5.3822,-5.3822,-5.3822,-5.3822,-5.3822,-5.3822,-5.3822,-5.3822,-5.3545,-5.2764,-5.2612,-5.2307,-5.1508,-5.1431,-5.1431,-5.1431,-5.1431,-5.1431,-5.1431,-4.9808,-4.7368,-4.3962,-4.2114,-4.1145,-4.106,-4.106,-4.106,-4.106,-4.106,-4.106,-4.106,-4.106,-4.106,-4.106,-4.106,-4.106,-5.2025,-5.1095,-5.0696,-5.0696,-5.0696,-5.0696,-5.0696,-5.0696,-5.0696,-5.0696,-5.0696,-5.0696,-5.0696,-5.0696,-5.0768,-5.0936,-5.0816,-5.0768,0.0,-5.0816,-5.0696,-5.0696,-5.0696,-5.0696,-5.0696,0.0,0.0,-5.0696,-5.0696,-5.0696,-5.0696,-5.0864,-5.096,-5.096,-5.1489,-5.185,-5.2018,-5.2379,-5.2812,-5.3317,-5.3317,-5.3485,-5.3822,-5.3822,-5.3822,-5.3822,-5.3822,-5.3822,-5.3822,-5.3822,-5.3822,-5.3822,-5.3822,-5.3822,-5.3822,-5.3822,-5.3822,-5.3822,-5.3822,-5.3822,-5.3822,-5.3822,-5.3822,-5.3822,-5.3822,-5.3822,-5.3822,-5.3822,-5.3822,-5.3822,-5.3822,-5.3822,-5.3822,-5.3822,-5.3822,-5.3822,-5.3822,-5.3822,-5.3822,-5.3822,-5.3822,-5.3822,-5.3822,-5.3822,-5.3596,-5.3068,-5.2535,-5.2077,-5.187,-5.1562,-5.1431,-5.1431,-5.1431,-5.0944,-4.9808,-4.7027,-4.4373,-4.2114,-4.1378,-4.106,-4.106,-4.106,-4.106,-4.106,-4.106,-4.106,-4.106,-4.106,-4.106,-4.106,-4.106,-4.106,-5.1956,-5.1095,0.0,-5.0696,-5.0696,-5.0696,-5.0696,-5.0696,-5.0696,-5.0696,-5.0696,-5.0696,-5.0696,-5.0696,-5.0696,-5.0696,-5.0696,-5.0696,0.0,-5.0696,-5.0696,-5.0696,-5.0696,-5.0696,-5.0696,-5.0696,-5.0696,-5.0696,-5.0696,-5.0696,-5.0696,-5.0696,-5.0696,-5.0696,-5.1032,-5.1297,-5.1489,-5.1826,-5.2259,-5.2788,-5.2788,-5.3053,-5.3558,-5.3558,-5.3654,-5.3822,-5.3822,-5.3822,-5.3822,-5.3822,-5.3822,-5.3822,-5.3822,-5.3822,-5.3822,-5.3822,-5.3822,-5.3822,-5.3822,-5.3822,-5.3822,-5.3822,-5.3822,-5.3822,-5.3822,-5.3822,-5.3774,-5.3606,-5.3678,-5.3774,-5.3606,-5.3678,-5.3822,-5.3822,-5.3822,-5.3822,-5.3822,-5.3822,-5.3822,-5.3822,-5.3822,-5.3822,-5.3822,-5.3822,-5.3672,-5.3243,-5.2612,-5.2154,-5.2,-5.1639,-5.1431,-5.1431,-5.1431,-5.0455,-4.8107,-4.5819,-4.355,-4.1229,-4.106,-4.106,-4.106,-4.106,-4.1134,-4.128,-4.1134,-4.1134,-4.128,-4.1134,-4.106,-4.106,-4.106,-4.106]}]]